[[{"header":{"parameterUnit":"m.s-1","parameterCategory":1,"la1":30.6,"la2":28.766,"lo1":-90.7593,"lo2":-88.6598,"dy":0.0162,"dx":0.0183,"nx":116,"ny":114,"refTime":"2024-05-03T06:00:00:Z","depth":0,"parameterNumber":2,"parameterNumberName":"U-component_of_WINDS"},"data":[0.0,0.0,0.0,0.0,0.0,0.0,0.0,0.0,0.0,0.0,0.0,0.0,0.0,0.0,0.0,0.0,0.0,0.0,0.0,0.0,0.0,0.0,0.0,0.0,0.0,0.0,0.0,0.0,0.0,0.0,0.0,0.0,0.0,0.0,0.0,0.0,0.0,0.0,0.0,0.0,0.0,0.0,0.0,0.0,0.0,0.0,0.0,0.0,0.0,0.0,0.0,0.0,0.0,0.0,0.0,0.0,0.0,0.0,0.0,0.0,0.0,0.0,0.0,0.0,0.0,0.0,0.0,0.0,0.0,0.0,0.0,0.0,0.0,0.0,0.0,0.0,0.0,0.0,0.0,0.0,0.0,0.0,0.0,0.0,0.0,0.0,0.0,0.0,0.0,0.0,0.0,0.0,0.0,0.0,0.0,0.0,0.0,0.0,0.0,0.0,0.0,0.0,0.0,0.0,0.0,0.0,0.0,0.0,0.0,0.0,0.0,0.0,0.0,0.0,0.0,0.0,0.0,0.0,0.0,0.0,0.0,0.0,0.0,0.0,0.0,0.0,0.0,0.0,0.0,0.0,0.0,0.0,0.0,0.0,0.0,0.0,0.0,0.0,0.0,0.0,0.0,0.0,0.0,0.0,0.0,0.0,0.0,0.0,0.0,0.0,0.0,0.0,0.0,0.0,0.0,0.0,0.0,0.0,0.0,0.0,0.0,0.0,0.0,0.0,0.0,0.0,0.0,0.0,0.0,0.0,0.0,0.0,0.0,0.0,0.0,0.0,0.0,0.0,0.0,0.0,0.0,0.0,0.0,0.0,0.0,0.0,0.0,0.0,0.0,0.0,0.0,0.0,0.0,0.0,0.0,0.0,0.0,0.0,0.0,0.0,0.0,0.0,0.0,0.0,0.0,0.0,0.0,0.0,0.0,0.0,0.0,0.0,0.0,0.0,0.0,0.0,0.0,0.0,0.0,0.0,0.0,0.0,0.0,0.0,0.0,0.0,0.0,0.0,0.0,0.0,0.0,0.0,0.0,0.0,0.0,0.0,0.0,0.0,0.0,0.0,0.0,0.0,0.0,0.0,0.0,0.0,0.0,0.0,0.0,0.0,0.0,0.0,0.0,0.0,0.0,0.0,0.0,0.0,0.0,0.0,0.0,0.0,0.0,0.0,0.0,0.0,0.0,0.0,0.0,0.0,0.0,0.0,0.0,0.0,0.0,0.0,0.0,0.0,0.0,0.0,0.0,0.0,0.0,0.0,0.0,0.0,0.0,0.0,0.0,0.0,0.0,0.0,0.0,0.0,0.0,0.0,0.0,0.0,0.0,0.0,0.0,0.0,0.0,0.0,0.0,0.0,0.0,0.0,0.0,0.0,0.0,0.0,0.0,0.0,0.0,0.0,0.0,0.0,0.0,0.0,0.0,0.0,0.0,0.0,0.0,0.0,0.0,0.0,0.0,0.0,0.0,0.0,0.0,0.0,0.0,0.0,0.0,0.0,0.0,0.0,0.0,0.0,0.0,0.0,0.0,0.0,0.0,0.0,0.0,0.0,0.0,0.0,0.0,0.0,0.0,0.0,0.0,0.0,0.0,0.0,0.0,0.0,0.0,0.0,0.0,0.0,0.0,0.0,0.0,0.0,0.0,0.0,0.0,0.0,0.0,0.0,0.0,0.0,0.0,0.0,0.0,0.0,0.0,0.0,0.0,0.0,0.0,0.0,0.0,0.0,0.0,0.0,0.0,0.0,0.0,0.0,0.0,0.0,0.0,0.0,0.0,0.0,0.0,0.0,0.0,0.0,0.0,0.0,0.0,0.0,0.0,0.0,0.0,0.0,0.0,0.0,0.0,0.0,0.0,0.0,0.0,0.0,0.0,0.0,0.0,0.0,0.0,0.0,0.0,0.0,0.0,0.0,0.0,0.0,0.0,0.0,0.0,0.0,0.0,0.0,0.0,0.0,0.0,0.0,0.0,0.0,0.0,0.0,0.0,0.0,0.0,0.0,0.0,0.0,0.0,0.0,0.0,0.0,0.0,0.0,0.0,0.0,0.0,0.0,0.0,0.0,0.0,0.0,0.0,0.0,0.0,0.0,0.0,0.0,0.0,0.0,0.0,0.0,0.0,0.0,0.0,0.0,0.0,0.0,0.0,0.0,0.0,0.0,0.0,0.0,0.0,0.0,0.0,0.0,0.0,0.0,0.0,0.0,0.0,0.0,0.0,0.0,0.0,0.0,0.0,0.0,0.0,0.0,0.0,0.0,0.0,0.0,0.0,0.0,0.0,0.0,0.0,0.0,0.0,0.0,0.0,0.0,0.0,0.0,0.0,0.0,0.0,0.0,0.0,0.0,0.0,0.0,0.0,0.0,0.0,0.0,0.0,0.0,0.0,0.0,0.0,0.0,0.0,0.0,0.0,0.0,0.0,0.0,0.0,0.0,0.0,0.0,0.0,0.0,0.0,0.0,0.0,0.0,0.0,0.0,0.0,0.0,0.0,0.0,0.0,0.0,0.0,0.0,0.0,0.0,0.0,0.0,0.0,0.0,0.0,0.0,0.0,0.0,0.0,0.0,0.0,0.0,0.0,0.0,0.0,0.0,0.0,0.0,0.0,0.0,0.0,0.0,0.0,0.0,0.0,0.0,0.0,0.0,0.0,0.0,0.0,0.0,0.0,0.0,0.0,0.0,0.0,0.0,0.0,0.0,0.0,0.0,0.0,0.0,0.0,0.0,0.0,0.0,0.0,0.0,0.0,0.0,0.0,0.0,0.0,0.0,0.0,0.0,0.0,0.0,0.0,0.0,0.0,0.0,0.0,0.0,0.0,0.0,0.0,0.0,0.0,0.0,0.0,0.0,0.0,0.0,0.0,0.0,0.0,0.0,0.0,0.0,0.0,0.0,0.0,0.0,0.0,0.0,0.0,0.0,0.0,0.0,0.0,0.0,0.0,0.0,0.0,0.0,0.0,0.0,0.0,0.0,0.0,0.0,0.0,0.0,0.0,0.0,0.0,0.0,0.0,0.0,0.0,0.0,0.0,0.0,0.0,0.0,0.0,0.0,0.0,0.0,0.0,0.0,0.0,0.0,0.0,0.0,0.0,0.0,0.0,0.0,0.0,0.0,0.0,0.0,0.0,0.0,0.0,0.0,0.0,0.0,0.0,0.0,0.0,0.0,0.0,0.0,0.0,0.0,0.0,0.0,0.0,0.0,0.0,0.0,0.0,0.0,0.0,0.0,0.0,0.0,0.0,0.0,0.0,0.0,0.0,0.0,0.0,0.0,0.0,0.0,0.0,0.0,0.0,0.0,0.0,0.0,0.0,0.0,0.0,0.0,0.0,0.0,0.0,0.0,0.0,0.0,0.0,0.0,0.0,0.0,0.0,0.0,0.0,0.0,0.0,0.0,0.0,0.0,0.0,0.0,0.0,0.0,0.0,0.0,0.0,0.0,0.0,0.0,0.0,0.0,0.0,0.0,0.0,0.0,0.0,0.0,0.0,0.0,0.0,0.0,0.0,0.0,0.0,0.0,0.0,0.0,0.0,0.0,0.0,0.0,0.0,0.0,0.0,0.0,0.0,0.0,0.0,0.0,0.0,0.0,0.0,0.0,0.0,0.0,0.0,0.0,0.0,0.0,0.0,0.0,0.0,0.0,0.0,0.0,0.0,0.0,0.0,0.0,0.0,0.0,0.0,0.0,0.0,0.0,0.0,0.0,0.0,0.0,0.0,0.0,0.0,0.0,0.0,0.0,0.0,0.0,0.0,0.0,0.0,0.0,0.0,0.0,0.0,0.0,0.0,0.0,0.0,0.0,0.0,0.0,0.0,0.0,0.0,0.0,0.0,0.0,0.0,0.0,0.0,0.0,0.0,0.0,0.0,0.0,0.0,0.0,0.0,0.0,0.0,0.0,0.0,0.0,0.0,0.0,0.0,0.0,0.0,0.0,0.0,0.0,0.0,0.0,0.0,0.0,0.0,0.0,0.0,0.0,0.0,0.0,0.0,0.0,0.0,0.0,0.0,0.0,0.0,0.0,0.0,0.0,0.0,0.0,0.0,0.0,0.0,0.0,0.0,0.0,0.0,0.0,0.0,0.0,0.0,0.0,0.0,0.0,0.0,0.0,0.0,0.0,0.0,0.0,0.0,0.0,0.0,0.0,0.0,0.0,0.0,0.0,0.0,0.0,0.0,0.0,0.0,0.0,0.0,0.0,0.0,0.0,0.0,0.0,0.0,0.0,0.0,0.0,0.0,0.0,0.0,0.0,0.0,0.0,0.0,0.0,0.0,0.0,0.0,0.0,0.0,0.0,0.0,0.0,0.0,0.0,0.0,0.0,0.0,0.0,0.0,0.0,0.0,0.0,0.0,0.0,0.0,0.0,0.0,0.0,0.0,0.0,0.0,0.0,0.0,0.0,0.0,0.0,0.0,0.0,0.0,0.0,0.0,0.0,0.0,0.0,0.0,0.0,0.0,0.0,0.0,0.0,0.0,0.0,0.0,0.0,0.0,0.0,0.0,0.0,0.0,0.0,0.0,0.0,0.0,0.0,0.0,0.0,0.0,0.0,0.0,0.0,0.0,0.0,0.0,0.0,0.0,0.0,0.0,0.0,0.0,0.0,0.0,0.0,0.0,0.0,0.0,0.0,0.0,0.0,0.0,0.0,0.0,0.0,0.0,0.0,0.0,0.0,0.0,0.0,0.0,0.0,0.0,0.0,0.0,0.0,0.0,0.0,0.0,0.0,0.0,0.0,0.0,0.0,0.0,0.0,0.0,0.0,0.0,0.0,0.0,0.0,0.0,0.0,0.0,0.0,0.0,0.0,0.0,0.0,0.0,0.0,0.0,0.0,0.0,0.0,0.0,0.0,0.0,0.0,0.0,0.0,0.0,0.0,0.0,0.0,0.0,0.0,0.0,0.0,0.0,0.0,0.0,0.0,0.0,0.0,0.0,0.0,0.0,0.0,0.0,0.0,0.0,0.0,0.0,0.0,0.0,0.0,0.0,0.0,0.0,0.0,0.0,0.0,0.0,0.0,0.0,0.0,0.0,0.0,0.0,0.0,0.0,0.0,0.0,0.0,0.0,0.0,0.0,0.0,0.0,0.0,0.0,0.0,0.0,0.0,0.0,0.0,0.0,0.0,0.0,0.0,0.0,0.0,0.0,0.0,0.0,0.0,0.0,0.0,0.0,0.0,0.0,0.0,0.0,0.0,0.0,0.0,0.0,0.0,0.0,0.0,0.0,0.0,0.0,0.0,0.0,0.0,0.0,0.0,0.0,0.0,0.0,0.0,0.0,0.0,0.0,0.0,0.0,0.0,0.0,0.0,0.0,0.0,0.0,0.0,0.0,0.0,0.0,0.0,0.0,0.0,0.0,0.0,0.0,0.0,0.0,0.0,0.0,0.0,0.0,0.0,0.0,0.0,0.0,0.0,0.0,0.0,0.0,0.0,0.0,0.0,0.0,0.0,0.0,0.0,0.0,0.0,0.0,0.0,0.0,0.0,0.0,0.0,0.0,0.0,0.0,0.0,0.0,0.0,0.0,0.0,0.0,0.0,0.0,0.0,0.0,0.0,0.0,0.0,0.0,0.0,0.0,0.0,0.0,0.0,0.0,0.0,0.0,0.0,0.0,0.0,0.0,0.0,0.0,0.0,0.0,0.0,0.0,0.0,0.0,0.0,0.0,0.0,0.0,0.0,0.0,0.0,0.0,0.0,0.0,0.0,0.0,0.0,0.0,0.0,0.0,0.0,0.0,0.0,0.0,0.0,0.0,0.0,0.0,0.0,0.0,0.0,0.0,0.0,0.0,0.0,0.0,0.0,0.0,0.0,0.0,0.0,0.0,0.0,0.0,0.0,0.0,0.0,0.0,0.0,0.0,0.0,0.0,0.0,0.0,0.0,0.0,0.0,0.0,0.0,0.0,0.0,0.0,0.0,0.0,0.0,0.0,0.0,0.0,0.0,0.0,0.0,0.0,0.0,0.0,0.0,0.0,0.0,0.0,0.0,0.0,0.0,0.0,0.0,0.0,0.0,0.0,0.0,0.0,0.0,0.0,0.0,0.0,0.0,0.0,0.0,0.0,0.0,0.0,0.0,0.0,0.0,0.0,0.0,-7.1289,-7.0976,0.0,0.0,0.0,0.0,0.0,0.0,0.0,0.0,0.0,0.0,0.0,0.0,0.0,0.0,0.0,0.0,0.0,0.0,0.0,0.0,0.0,0.0,0.0,-6.6288,-6.611,-6.5698,-6.524,-6.4976,-6.4972,0.0,0.0,0.0,0.0,0.0,-6.3672,-6.3262,-6.3047,-6.3047,-6.3047,-6.3054,-6.3045,-6.305,-6.3508,-6.4316,0.0,0.0,0.0,0.0,0.0,0.0,0.0,0.0,0.0,0.0,0.0,0.0,0.0,0.0,0.0,0.0,0.0,0.0,0.0,0.0,0.0,0.0,0.0,0.0,0.0,0.0,0.0,0.0,0.0,0.0,0.0,0.0,0.0,0.0,0.0,0.0,0.0,0.0,0.0,0.0,0.0,0.0,0.0,0.0,0.0,0.0,0.0,0.0,0.0,0.0,0.0,0.0,0.0,0.0,0.0,0.0,0.0,0.0,0.0,0.0,0.0,0.0,0.0,0.0,0.0,0.0,0.0,0.0,0.0,0.0,-7.1152,-7.1328,0.0,0.0,0.0,0.0,0.0,0.0,0.0,0.0,0.0,0.0,0.0,0.0,0.0,0.0,0.0,0.0,0.0,0.0,0.0,0.0,0.0,-6.6172,-6.5449,-6.537,-6.5074,-6.4366,-6.4161,-6.4074,-6.4065,-6.3926,0.0,0.0,-6.3164,-6.2774,-6.2774,-6.2071,-6.1698,-6.1698,-6.1698,-6.1705,-6.1697,-6.1696,-6.2465,-6.3844,-6.4017,0.0,0.0,0.0,0.0,0.0,0.0,0.0,0.0,0.0,0.0,0.0,0.0,0.0,0.0,0.0,0.0,0.0,0.0,0.0,0.0,0.0,0.0,0.0,0.0,0.0,0.0,0.0,0.0,0.0,0.0,0.0,0.0,0.0,0.0,0.0,0.0,0.0,0.0,0.0,0.0,0.0,0.0,0.0,0.0,0.0,0.0,0.0,0.0,0.0,0.0,0.0,0.0,0.0,0.0,0.0,0.0,0.0,0.0,0.0,0.0,0.0,0.0,0.0,-7.0155,-6.9862,-6.9941,-6.9941,-6.9902,-6.9922,-7.1387,-7.1914,-7.1797,-7.1933,0.0,0.0,0.0,0.0,0.0,0.0,0.0,0.0,0.0,0.0,0.0,0.0,0.0,0.0,0.0,0.0,0.0,0.0,0.0,-6.4609,-6.4473,-6.4469,-6.4425,-6.4306,-6.3609,-6.3167,-6.3164,-6.2462,-6.2032,-6.2032,-6.1932,-6.1874,-6.1874,-6.1757,-6.1698,-6.1698,-6.1698,-6.1705,-6.1697,-6.1707,-6.1826,-6.2073,-6.2827,-6.3163,-6.3222,0.0,0.0,0.0,0.0,0.0,0.0,0.0,0.0,0.0,0.0,0.0,0.0,0.0,0.0,0.0,0.0,0.0,0.0,0.0,0.0,0.0,0.0,0.0,0.0,0.0,0.0,0.0,0.0,0.0,0.0,0.0,0.0,0.0,0.0,0.0,0.0,0.0,0.0,0.0,0.0,0.0,-7.0925,-7.0992,0.0,0.0,0.0,0.0,0.0,0.0,0.0,0.0,0.0,0.0,0.0,0.0,0.0,-7.1406,-7.1544,-7.1427,-7.1469,-7.1646,-7.1548,-7.1549,-7.168,-7.168,-7.168,-7.168,-7.1894,0.0,-7.0937,-7.1699,0.0,0.0,0.0,0.0,0.0,0.0,0.0,0.0,0.0,0.0,0.0,0.0,0.0,0.0,0.0,0.0,0.0,0.0,0.0,0.0,0.0,-6.3572,-6.3374,-6.2886,-6.2486,-6.2264,-6.2278,-6.1905,-6.1707,-6.1698,-6.1698,-6.1698,-6.1698,-6.1698,-6.1698,-6.1698,-6.1698,-6.1703,-6.1707,-6.1709,-6.1694,-6.1719,-6.21,-6.2279,-6.2298,-6.2684,0.0,0.0,0.0,0.0,0.0,0.0,0.0,0.0,0.0,0.0,0.0,0.0,0.0,0.0,0.0,0.0,0.0,0.0,0.0,0.0,0.0,0.0,0.0,0.0,0.0,0.0,0.0,0.0,0.0,0.0,0.0,0.0,0.0,0.0,0.0,0.0,0.0,0.0,0.0,-7.0898,-7.0912,-7.0939,-7.0939,-7.0965,0.0,0.0,0.0,0.0,0.0,0.0,0.0,0.0,0.0,-6.9918,-6.9899,-6.9944,-7.0044,-7.0044,-7.0161,-7.0389,-7.0389,-7.0452,-7.0547,-7.0547,-7.0547,-7.0547,-7.0547,-7.0312,-7.0039,-7.0918,-7.0976,-7.0547,0.0,0.0,0.0,0.0,-6.9746,-6.9453,0.0,0.0,0.0,0.0,0.0,0.0,0.0,0.0,0.0,0.0,0.0,0.0,-6.2793,-6.287,-6.2654,-6.1775,-6.1692,-6.1704,-6.1697,-6.1696,-6.1709,-6.1701,-6.1698,-6.1698,-6.1698,-6.1698,-6.1698,-6.1698,-6.1698,-6.1698,-6.1698,-6.1709,-6.1694,-6.1694,-6.1701,-6.1702,-6.1701,-6.1692,-6.1692,-6.1697,0.0,0.0,0.0,0.0,0.0,0.0,0.0,0.0,0.0,0.0,0.0,0.0,0.0,0.0,0.0,0.0,0.0,0.0,0.0,0.0,0.0,0.0,0.0,0.0,0.0,0.0,0.0,0.0,0.0,0.0,0.0,0.0,0.0,0.0,0.0,0.0,0.0,-7.0898,-7.0821,-7.0629,-7.0591,-7.0508,0.0,0.0,0.0,0.0,0.0,0.0,-6.9725,-6.9686,-6.9415,-6.8816,-6.8796,-6.881,-6.8871,-6.8871,-6.898,-6.9206,-6.9227,-6.9284,-6.9372,-6.9394,-6.9414,-6.9433,-6.9433,-6.9297,-6.916,-7.0039,-7.0019,-6.9433,-6.9472,-6.9336,-6.9082,-6.9082,-6.8984,-6.8828,0.0,0.0,0.0,0.0,0.0,0.0,0.0,0.0,0.0,0.0,0.0,-6.3652,-6.1953,-6.2499,-6.2654,-6.1775,-6.1708,-6.1699,-6.1697,-6.1707,-6.1701,-6.1698,-6.1698,-6.1698,-6.1698,-6.1698,-6.1698,-6.1698,-6.1698,-6.1698,-6.1698,-6.1701,-6.1701,-6.1701,-6.1701,-6.1694,-6.1708,-6.1708,-6.1704,-6.1697,-6.1697,0.0,0.0,0.0,0.0,0.0,0.0,0.0,0.0,0.0,0.0,0.0,0.0,0.0,0.0,0.0,0.0,0.0,0.0,0.0,0.0,0.0,0.0,0.0,0.0,0.0,0.0,0.0,0.0,0.0,0.0,0.0,0.0,0.0,0.0,0.0,0.0,0.0,0.0,-6.986,-6.9763,0.0,0.0,0.0,0.0,-6.8733,-6.8783,-6.8839,-6.8863,-6.8854,-6.8835,-6.8796,-6.8796,-6.8796,-6.8807,-6.8807,-6.8849,-6.8929,-6.9044,-6.9174,-6.9303,-6.9371,-6.9433,-6.9492,-6.9492,-6.9023,-6.832,-6.9199,-6.9531,-6.9492,-6.9492,-6.8984,-6.8262,-6.8262,-6.7734,-6.7031,0.0,0.0,0.0,0.0,0.0,-6.6894,-6.6894,-6.6152,-6.5293,-6.4414,-6.4297,-6.3848,-6.2676,-6.2812,-6.287,-6.2557,-6.2027,-6.1709,-6.1699,-6.1694,-6.1707,-6.1698,-6.1698,-6.1698,-6.1698,-6.1698,-6.1698,-6.1698,-6.1698,-6.1698,-6.1698,-6.1698,-6.1698,-6.1698,-6.1698,-6.1703,-6.1692,-6.1692,-6.1709,-6.1707,-6.1707,-6.1703,0.0,0.0,0.0,0.0,0.0,0.0,0.0,0.0,0.0,0.0,0.0,0.0,0.0,0.0,0.0,0.0,0.0,0.0,0.0,0.0,0.0,0.0,0.0,0.0,0.0,0.0,0.0,0.0,0.0,0.0,0.0,0.0,0.0,0.0,0.0,0.0,0.0,-6.9725,-6.9206,0.0,-6.8436,-6.85,-6.8574,-6.8586,-6.8709,-6.8524,-6.7984,-6.7965,-6.7713,-6.7133,-6.7133,-6.7133,-6.7133,-6.7133,-6.7183,-6.7285,-6.7345,-6.7422,-6.7571,-6.762,-6.7679,-6.77,-6.7791,-6.7656,-6.7383,-6.7695,-6.7832,-6.7832,-6.7832,-6.7637,-6.7363,-6.7363,-6.7168,-6.6894,0.0,0.0,0.0,-6.6894,-6.6894,-6.6894,-6.6894,-6.6406,-6.5723,-6.4844,-6.498,-6.4726,-6.3574,-6.3691,-6.3769,-6.3456,-6.2634,-6.2142,-6.2132,-6.1852,-6.1707,-6.1701,-6.1698,-6.1698,-6.1698,-6.1698,-6.1698,-6.1698,-6.1698,-6.1698,-6.1698,-6.1703,-6.1705,-6.1705,-6.1709,-6.1692,-6.1692,-6.1692,-6.1707,-6.1698,-6.1698,-6.1698,-6.1698,0.0,0.0,0.0,0.0,0.0,0.0,0.0,0.0,0.0,0.0,0.0,0.0,0.0,0.0,0.0,0.0,0.0,0.0,0.0,0.0,0.0,0.0,0.0,0.0,0.0,0.0,0.0,0.0,0.0,0.0,0.0,0.0,0.0,0.0,-6.9783,-6.9148,-6.8859,-6.8302,-6.7859,-6.759,-6.7653,-6.7726,-6.7718,-6.784,-6.7654,-6.7094,-6.7056,-6.6804,-6.6224,-6.6205,-6.6205,-6.6205,-6.6205,-6.6235,-6.6323,-6.638,-6.6443,-6.654,-6.6658,-6.6697,-6.6702,-6.6833,-6.6894,-6.6894,-6.6894,-6.6894,-6.6894,-6.6894,-6.6894,-6.6894,-6.6894,-6.6894,-6.6894,0.0,-6.6894,-6.6894,-6.6894,-6.6894,-6.6894,-6.6894,-6.6894,-6.6582,-6.5703,-6.6367,-6.625,-6.4531,-6.5098,-6.5254,-6.4414,-6.3531,-6.3037,-6.2998,-6.2201,-6.1737,-6.1698,-6.1698,-6.1698,-6.1698,-6.1698,-6.1698,-6.1701,-6.1701,-6.1701,-6.1701,-6.1694,-6.1697,-6.1699,-6.1707,-6.1709,-6.1709,-6.1709,-6.172,-6.174,-6.1701,-6.172,-6.174,0.0,0.0,0.0,0.0,0.0,0.0,0.0,0.0,0.0,0.0,0.0,0.0,0.0,0.0,0.0,0.0,0.0,0.0,0.0,0.0,0.0,0.0,0.0,0.0,0.0,0.0,0.0,0.0,0.0,0.0,0.0,0.0,0.0,-6.9667,-6.8917,-6.8052,-6.7186,-6.7071,-6.6763,-6.5974,-6.596,-6.6013,-6.6001,-6.6088,-6.6162,-6.6243,-6.6263,-6.6282,-6.6282,-6.6282,-6.6282,-6.6282,-6.6282,-6.6282,-6.6282,-6.64,-6.6423,-6.6431,-6.6607,-6.6692,-6.6697,-6.6832,-6.6894,-6.6894,-6.6894,-6.6894,-6.6892,-6.6894,-6.6894,-6.6894,-6.6892,-6.6891,-6.6891,-6.6894,-6.6894,-6.6894,-6.6894,-6.6894,-6.6894,-6.6894,-6.6894,-6.6582,-6.5703,-6.6367,-6.6484,-6.5351,-6.5469,-6.5508,-6.5253,-6.4447,-6.3661,-6.303,-6.2783,-6.2364,-6.1737,-6.1698,-6.1698,-6.1698,-6.1698,-6.1703,-6.1694,-6.1694,-6.1697,-6.1702,-6.1705,-6.1707,-6.1707,-6.1708,-6.1709,-6.1709,-6.1709,-6.2058,-6.2581,-6.1956,-6.209,-6.2648,0.0,0.0,0.0,0.0,0.0,0.0,0.0,0.0,0.0,0.0,0.0,0.0,0.0,0.0,0.0,0.0,0.0,0.0,0.0,0.0,0.0,0.0,0.0,0.0,0.0,0.0,0.0,0.0,0.0,0.0,0.0,-6.8648,-6.8032,-6.8667,-6.8013,-6.7359,-6.7128,-6.659,-6.6128,-6.5917,-6.5958,-6.6009,-6.6001,-6.6681,-6.7112,-6.7133,-6.7733,-6.81,-6.81,-6.81,-6.81,-6.81,-6.81,-6.81,-6.8081,-6.7484,-6.7193,-6.7184,-6.6701,-6.6471,-6.6489,-6.6678,-6.6756,-6.6758,-6.685,-6.6892,-6.6892,-6.6892,-6.6892,-6.6908,-6.6906,-6.6863,-6.6839,-6.6894,-6.6894,-6.6894,-6.6894,-6.6894,-6.6894,-6.6894,-6.6894,-6.6719,-6.6211,-6.6582,-6.6719,-6.6191,-6.6133,-6.6133,-6.6132,-6.5015,-6.409,-6.3578,-6.3199,-6.2941,-6.2809,-6.2783,-6.2783,-6.2789,-6.2783,-6.2787,-6.2797,-6.2797,-6.2799,-6.2783,-6.2786,-6.2787,-6.2787,-6.2789,-6.279,-6.279,-6.279,-6.3083,-6.3493,-6.2983,-6.3093,-6.3531,-6.3546,-6.3855,-6.4416,-6.5292,-6.5604,-6.5691,-6.6375,0.0,0.0,0.0,0.0,0.0,0.0,0.0,0.0,0.0,0.0,0.0,0.0,0.0,0.0,0.0,0.0,0.0,0.0,0.0,0.0,0.0,0.0,0.0,0.0,-6.7763,-6.7148,-6.734,-6.6917,-6.659,-6.659,-6.6186,-6.6032,-6.6359,-6.6446,-6.6672,-6.7062,-6.7655,-6.801,-6.8042,-6.8526,-6.8796,-6.8796,-6.8796,-6.8796,-6.8796,-6.8796,-6.8796,-6.8796,-6.8294,-6.7849,-6.7491,-6.7107,-6.6753,-6.6407,-6.6607,-6.6709,-6.6712,-6.6842,-6.6888,-6.6866,0.0,0.0,0.0,0.0,-6.6834,-6.6805,-6.6894,-6.6894,-6.6894,-6.6894,-6.6894,-6.6894,-6.6894,-6.6894,-6.6894,-6.6894,-6.6894,-6.6894,-6.6894,-6.6894,-6.6894,-6.6894,-6.5484,-6.4541,-6.4442,-6.3637,-6.3481,-6.4267,-6.4299,-6.4299,-6.4306,-6.4299,-6.4301,-6.4308,-6.4308,-6.4309,-6.4309,-6.4294,-6.4256,-6.4159,-6.414,-6.4101,-6.4004,-6.4101,-6.4219,-6.4316,-6.4412,-6.4444,-6.445,-6.444,-6.4494,-6.4689,-6.5468,-6.5741,-6.5831,-6.6395,0.0,0.0,0.0,0.0,0.0,0.0,0.0,0.0,0.0,0.0,0.0,0.0,0.0,0.0,0.0,0.0,0.0,0.0,0.0,0.0,0.0,0.0,0.0,0.0,-6.7013,-6.6724,-6.5994,-6.5974,-6.5994,-6.5897,-6.5974,-6.632,-6.7032,-6.725,-6.7684,-6.8535,-6.8741,-6.8867,-6.891,-6.9018,0.0,0.0,0.0,-6.9087,-6.9087,-6.9087,-6.9087,-6.9087,-6.899,-6.8526,-6.7782,-6.7693,-6.7246,-6.6524,-6.662,-6.665,-6.6684,-6.6807,-6.6834,-6.6811,-6.6878,-6.6881,-6.686,-6.6715,-6.6668,-6.6658,-6.6894,-6.6894,-6.6894,-6.6894,-6.6894,-6.6894,-6.6894,-6.6894,-6.6894,-6.6894,-6.6894,-6.6894,-6.6894,-6.6894,-6.6894,-6.6894,-6.6597,-6.61,-6.5391,-6.4537,-6.411,-6.4287,-6.4305,-6.4305,-6.4306,-6.4305,-6.4308,-6.4294,-6.4294,-6.4295,-6.4296,-6.4297,-6.3926,-6.3242,-6.3242,-6.2851,-6.2246,-6.2949,-6.3652,-6.4355,-6.5073,-6.5341,-6.5357,-6.5349,-6.5748,-6.6346,-6.6502,-6.6561,-6.6572,-6.659,-6.6471,-6.6283,-6.6138,-6.6005,0.0,0.0,0.0,0.0,0.0,0.0,0.0,0.0,0.0,0.0,0.0,0.0,0.0,0.0,0.0,0.0,0.0,0.0,0.0,-6.7148,-6.6551,-6.607,-6.5917,-6.6455,-6.6628,-6.5974,-6.6474,-6.6917,-6.7071,-6.7808,-6.8327,-6.8513,-6.9239,-6.9675,-6.9687,-7.0419,-7.0827,-7.0827,-7.0827,-7.0827,-7.0827,-7.0827,-7.0827,-7.0808,-7.0092,0.0,-6.9473,-6.81,-6.7374,-6.7172,-6.6556,-6.6392,-6.6538,-6.6638,-6.671,-6.68,-6.6802,-6.6822,-6.6744,-6.6078,-6.5822,-6.5722,-6.6894,-6.6894,-6.6894,-6.6894,-6.6894,-6.6894,-6.6894,-6.6894,-6.6894,-6.6894,-6.6894,-6.6894,-6.6894,-6.6894,-6.6894,-6.6894,-6.6499,-6.6063,-6.563,-6.5188,-6.5152,-6.5583,-6.5601,-6.5601,-6.5603,-6.5601,-6.5602,-6.5605,-6.5605,-6.5605,-6.5605,-6.5605,-6.5137,-6.4297,-6.4297,-6.3828,-6.3027,-6.3476,-6.414,-6.498,-6.5424,-6.5867,-6.6258,-6.6206,-6.6449,-6.6795,-6.6795,-6.6795,-6.6792,-6.672,-6.6524,-6.6299,-6.6228,-6.6065,-6.5897,0.0,0.0,0.0,0.0,0.0,0.0,0.0,0.0,0.0,0.0,0.0,0.0,0.0,0.0,-6.8282,-6.784,0.0,-6.6974,-6.6551,-6.6494,-6.6494,-6.6494,-6.7225,-6.7436,-6.659,-6.7244,-6.7917,-6.8359,-6.8828,-6.929,-6.9721,-7.0201,-7.0474,-7.0544,-7.1004,-7.1269,-7.1291,-7.1269,-7.1269,-7.1291,-7.1269,-7.1269,-7.1291,-7.0825,-7.0358,-6.9913,-6.859,-6.7757,-6.7313,-6.6525,-6.629,-6.6452,-6.6638,-6.6736,-6.6795,-6.6795,-6.6541,-6.6151,-6.5741,-6.5312,-6.4882,-6.6894,-6.6894,-6.6894,-6.6894,-6.6894,-6.6894,-6.6894,-6.6894,-6.6894,-6.6894,-6.6894,-6.6894,-6.6894,-6.6894,-6.6894,-6.6891,-6.6265,-6.5853,-6.5852,-6.5856,-6.6171,-6.6875,-6.6894,-6.6893,-6.6894,-6.6894,-6.6894,-6.6894,-6.6894,-6.6894,-6.6894,-6.6894,-6.6426,-6.5586,-6.543,-6.4863,-6.4043,-6.4043,-6.4551,-6.5351,-6.5522,-6.6121,-6.6881,-6.6824,-6.6795,-6.6795,-6.6795,-6.6795,-6.6795,-6.6795,-6.6576,-6.6295,-6.6295,-6.6109,-6.5897,-6.5897,-6.5897,0.0,0.0,0.0,0.0,0.0,0.0,0.0,0.0,-6.859,-6.8956,-6.809,-6.7917,-6.7705,-6.6994,-6.6859,-6.6705,-6.6205,-6.6667,-6.7148,-6.7321,-6.8109,-6.8398,-6.7686,-6.8225,-6.8936,-6.9629,-6.984,-7.0233,-7.0921,-7.0992,-7.1056,-7.1166,-7.1159,-7.1213,-7.1258,-7.1213,-7.1213,-7.1258,-7.1224,-7.1224,-7.1258,-7.1224,-7.0834,-7.0096,-6.9073,-6.8188,-6.7487,-6.6562,-6.6267,-6.6399,-6.667,-6.6787,-6.6795,-6.6795,-6.6307,-6.5604,-6.5604,-6.5058,-6.4279,-6.6894,-6.6894,-6.6894,-6.6894,-6.6894,-6.6894,-6.6894,-6.6894,-6.6894,-6.6894,-6.6894,-6.6894,-6.6894,-6.6894,-6.689,-6.6905,-6.6814,-6.6757,-6.6754,-6.6757,-6.6797,-6.6894,-6.6894,-6.6894,-6.6894,-6.6894,-6.6894,-6.6894,-6.6894,-6.6894,-6.6894,-6.6894,-6.6426,-6.5566,-6.4785,-6.3965,-6.3144,-6.3144,-6.3652,-6.4512,-6.5287,-6.6121,-6.6881,-6.6824,-6.6795,-6.6795,-6.6795,-6.6795,-6.6795,-6.6795,-6.6576,-6.6295,-6.6295,-6.6109,-6.5897,-6.5897,-6.5897,-6.5917,-6.6013,-6.6551,-6.7109,-6.7225,-6.7898,-6.8129,0.0,-6.6801,-6.7148,-6.634,-6.6186,-6.6147,-6.6051,-6.6032,-6.6244,-6.6859,-6.7032,-6.7359,-6.8148,-6.9013,-6.9513,-6.9417,-6.9494,-6.959,-6.9687,-7.036,-7.0802,-7.0912,-7.0965,-7.1005,-7.103,-7.1081,-7.1118,-7.1118,-7.1118,-7.1118,-7.1118,-7.1178,-7.1178,-7.1118,-7.1178,-7.112,-7.0913,-6.9263,-6.8467,-6.8275,-6.678,-6.6194,-6.6329,-6.6544,-6.6682,-6.6795,-6.6795,-6.6307,-6.5604,-6.5604,-6.5058,-6.4182,-6.6894,-6.6894,-6.6894,-6.6894,-6.6894,-6.6894,-6.6894,-6.6894,-6.6894,-6.6894,-6.6894,-6.6894,-6.6894,-6.6893,-6.6891,-6.6909,-6.6892,-6.6893,-6.6892,-6.6894,-6.6894,-6.6894,-6.6894,-6.6894,-6.6894,-6.6894,-6.6894,-6.6894,-6.6894,-6.6894,-6.6894,-6.6894,-6.6426,-6.5586,-6.5215,-6.457,-6.3769,-6.3769,-6.4258,-6.5097,-6.5443,-6.6121,-6.6881,-6.6824,-6.6795,-6.6795,-6.6795,-6.6795,0.0,-6.6795,-6.6576,-6.6295,-6.6295,-6.6109,-6.5897,-6.5897,-6.5897,-6.5897,-6.5897,-6.6147,-6.6397,-6.6397,-6.7032,-6.734,-6.6167,-6.6513,-6.6859,-6.607,-6.5897,-6.5897,-6.5897,-6.6282,-6.6705,-6.7051,-6.7955,-6.8744,-6.9109,-6.9879,-7.0398,-7.0398,-7.0398,-7.0398,-7.0398,-7.0706,-7.0898,-7.0898,-7.0925,-7.0965,-7.1005,-7.103,-7.1056,-7.1093,-7.1068,-7.1056,-7.1106,-7.1093,-7.1093,-7.1106,-7.1093,-7.1068,-7.0985,-6.9246,-6.7911,-6.6942,-6.6372,-6.6138,-6.6221,-6.6477,-6.6639,-6.6674,-6.6674,-6.6528,-6.6249,-6.5761,-6.5058,-6.4182,-6.6894,-6.6894,-6.6894,-6.6894,-6.6894,-6.6894,-6.6894,-6.6894,-6.6894,-6.6894,-6.6894,-6.6894,-6.6894,-6.6894,-6.6892,-6.6892,-6.6892,-6.6893,-6.6893,-6.6894,-6.6894,-6.6894,-6.6894,-6.6894,-6.6894,-6.6894,-6.6894,-6.6894,-6.6894,-6.6894,-6.6894,-6.6894,-6.6562,-6.5957,-6.5703,-6.5254,-6.4648,-6.4394,-6.4805,-6.5605,-6.5601,-6.6124,-6.6883,-6.6828,-6.6661,-6.6502,-6.6717,-6.6795,-6.6795,-6.6795,-6.6576,-6.6295,-6.6295,-6.6109,-6.5897,-6.5897,-6.5897,-6.5897,-6.5897,-6.5897,-6.5897,-6.5897,-6.634,-6.6609,-6.6032,-6.634,-6.659,-6.6013,-6.5897,-6.5974,-6.6186,-6.6705,-6.7263,-6.7744,-6.8879,-6.9783,-6.9994,-7.0533,-7.0898,-7.0898,-7.0898,-7.0898,-7.0898,-7.0898,-7.0898,-7.0898,-7.0898,-7.0925,-7.0965,-7.0979,-7.0992,-7.1043,-7.1005,-7.0992,-7.1043,-7.1018,-7.1018,-7.1043,-7.1018,-7.0876,-7.058,-6.8847,-6.7263,-6.591,-6.5994,-6.6065,-6.6109,-6.6361,-6.6471,-6.6527,-6.6527,-6.6576,-6.6584,-6.6015,-6.5289,-6.4486,-6.6894,-6.6894,-6.6894,-6.6894,-6.6894,-6.6894,-6.6894,-6.6894,-6.6894,-6.6894,-6.6894,-6.6894,-6.6892,-6.6894,-6.6894,-6.6892,-6.6894,-6.6894,-6.6894,-6.6894,-6.6894,-6.6894,-6.6894,-6.6894,-6.6894,-6.6894,-6.6894,-6.6894,-6.6894,-6.6894,-6.6894,-6.6894,-6.6894,-6.6816,-6.5976,-6.5586,-6.5508,-6.4668,-6.4805,-6.5605,-6.5604,-6.6127,-6.6883,-6.6834,-6.6317,-6.5741,-6.6522,-6.6795,-6.6795,-6.6795,-6.6576,-6.6295,-6.6295,-6.6109,-6.5897,-6.5897,-6.5897,-6.5897,-6.5897,-6.5897,-6.5897,-6.5897,-6.5917,-6.5936,-6.5897,-6.5917,-6.5917,-6.5897,-6.5897,-6.6128,-6.6917,-6.7071,-6.7648,-6.936,-6.9667,-6.9975,-7.0744,-7.0879,-7.0898,-7.0898,-7.0898,-7.0898,-7.0898,-7.0898,-7.0898,-7.0898,-7.0898,-7.0898,-7.0898,-7.0898,-7.0898,-7.0912,-7.0898,-7.0898,-7.0912,-7.0965,-7.0965,-7.0912,-7.0965,-7.0561,-6.9687,-6.7936,-6.6686,-6.5897,-6.591,-6.5978,-6.6108,-6.6099,-6.6184,-6.6322,-6.6322,-6.6302,-6.631,-6.629,-6.5855,-6.5275,-6.7754,-6.7305,-6.6894,-6.6894,-6.6894,-6.6894,-6.6894,-6.6894,-6.6894,-6.6894,-6.6894,0.0,0.0,0.0,0.0,0.0,-6.6894,-6.6894,-6.6894,-6.6894,-6.6894,-6.6894,-6.6894,-6.6894,-6.6894,-6.6894,-6.6894,-6.6894,-6.6894,-6.6894,-6.6894,-6.6894,-6.6894,-6.6894,-6.6582,-6.6465,-6.6445,-6.6152,-6.6191,-6.6465,-6.6463,-6.6635,-6.6824,-6.6231,-6.585,-6.5565,0.0,-6.5507,-6.6092,-6.6619,-6.6576,-6.6295,-6.6295,-6.6109,-6.5897,-6.5897,-6.5897,-6.5897,-6.5897,-6.5897,-6.5897,-6.5897,-6.5897,-6.5897,-6.5897,-6.5897,-6.5897,-6.5897,-6.5897,-6.6147,-6.6936,-6.7571,-6.834,-6.9513,-7.0148,-7.0591,-7.086,-7.0898,-7.0898,-7.0898,-7.0898,-7.0898,-7.0898,-7.0898,-7.0898,-7.0898,-7.0898,-7.0898,-7.0898,-7.0898,-7.0898,-7.0898,-7.0898,-7.0898,-7.0898,-7.0925,-7.0925,-7.0898,-7.0387,-6.9681,-6.8802,-6.7628,-6.6647,-6.5897,-6.5897,-6.5928,-6.5967,-6.6065,-6.6129,-6.6176,-6.6176,-6.6228,-6.6299,-6.6202,-6.6019,-6.5777,0.0,-6.8203,-6.7812,-6.7793,-6.7793,0.0,0.0,0.0,0.0,0.0,0.0,0.0,0.0,0.0,0.0,0.0,0.0,-6.6894,-6.6894,-6.6894,-6.6894,-6.6894,-6.6894,-6.6894,-6.6894,-6.6894,-6.6894,-6.6894,-6.6894,-6.6894,-6.6894,-6.6894,-6.6894,-6.6894,-6.6894,-6.6894,-6.6894,-6.6894,-6.6894,-6.6874,-6.6561,-6.6439,-6.6333,-6.5468,-6.4933,0.0,-6.4394,-6.4667,-6.5253,-6.6092,-6.638,-6.6386,-6.6329,-6.6109,-6.5897,-6.5897,-6.5897,-6.5897,-6.5897,-6.5897,-6.5897,-6.5897,-6.5897,-6.5897,-6.5897,-6.5897,-6.5897,-6.5897,-6.5897,-6.6244,-6.7359,-6.8013,-6.8783,-6.9937,-7.0552,-7.0898,-7.0898,-7.0898,-7.0898,-7.0898,-7.0898,-7.0898,-7.0898,-7.0898,-7.0898,-7.0898,-7.0898,-7.0898,-7.0898,-7.0898,-7.0898,-7.0898,-7.0898,-7.0898,-7.0898,-7.0898,-7.0898,-7.0898,-6.9763,-6.8936,-6.8359,-6.7205,-6.6378,-6.5897,-6.5897,-6.5897,-6.591,-6.5982,-6.603,-6.603,-6.603,-6.6077,-6.6138,-6.6065,-6.603,-6.5966,0.0,0.0,-6.9472,0.0,0.0,0.0,0.0,0.0,0.0,0.0,0.0,0.0,0.0,0.0,0.0,0.0,0.0,0.0,-6.7031,-6.7031,-6.7012,-6.6972,-6.6972,-6.6953,-6.6894,-6.6894,-6.6894,-6.6894,-6.6894,-6.6894,-6.6894,-6.6894,-6.6894,-6.6894,-6.6894,-6.6894,-6.6894,-6.6894,-6.6894,-6.6833,-6.5993,-6.5637,-6.5505,-6.4626,-6.3761,-6.3106,-6.3887,-6.4201,-6.4377,-6.5292,-6.6046,-6.6549,-6.6351,-6.6109,-6.5923,-6.591,-6.5897,-6.5897,-6.5897,-6.5897,-6.5897,-6.5897,-6.5897,-6.5897,-6.5897,-6.5897,-6.5897,-6.5897,-6.5897,-6.6397,-6.8032,-6.8379,-6.8936,-7.0571,-7.0879,-7.0898,-7.0898,-7.0898,-7.0898,-7.0898,-7.0898,-7.0898,-7.0898,-7.0898,-7.0898,-7.0898,-7.0898,-7.0898,-7.0898,-7.0898,-7.0898,-7.0898,-7.0898,-7.0898,-7.0898,-7.0898,-7.0898,-7.0879,-6.9206,-6.8385,-6.8327,-6.6667,-6.5897,-6.5897,-6.5897,-6.5897,-6.5897,-6.5897,-6.5897,-6.5897,-6.5897,-6.5897,-6.5897,-6.5897,-6.5897,-6.5916,0.0,0.0,0.0,0.0,0.0,0.0,0.0,0.0,0.0,0.0,0.0,0.0,0.0,0.0,0.0,0.0,0.0,0.0,-6.8769,-6.8808,-6.8555,-6.789,-6.7871,-6.7558,-6.6914,-6.6894,-6.6894,-6.6893,-6.6893,-6.6892,-6.6908,-6.6908,-6.6908,-6.6908,-6.6908,-6.6908,-6.6908,-6.6908,-6.6907,-6.6887,-6.6652,-6.6178,-6.5505,-6.4626,-6.3761,-6.293,-6.252,-6.2774,-6.3555,-6.5097,-6.6046,-6.6558,-6.6256,-6.6089,-6.603,-6.5921,-6.5897,-6.5897,-6.5897,-6.5897,-6.5897,-6.5897,-6.5897,-6.5897,-6.5897,-6.5897,-6.5897,-6.5897,-6.5897,-6.6205,-6.7244,-6.7955,-6.8763,-6.984,-7.0514,-7.0898,-7.0898,-7.0898,-7.0898,-7.0898,-7.0898,-7.0898,-7.0898,-7.0898,-7.0898,-7.0898,-7.0898,-7.0898,-7.0898,-7.0898,-7.0898,-7.0898,-7.0898,-7.0898,-7.0898,-7.0898,-7.0898,-7.0879,-6.9206,-6.8385,-6.8327,-6.6667,-6.5897,-6.5897,-6.5897,-6.5897,-6.5897,-6.5897,-6.5897,-6.5897,-6.5897,-6.5897,-6.5897,-6.5897,-6.5897,-6.5891,0.0,0.0,0.0,0.0,0.0,0.0,0.0,0.0,0.0,0.0,0.0,0.0,0.0,0.0,0.0,0.0,0.0,0.0,0.0,-6.9453,-6.9238,-6.875,-6.875,-6.8359,-6.748,-6.7461,-6.7284,-6.6892,-6.6909,-6.6907,-6.6904,-6.6904,-6.6904,-6.6904,-6.6904,-6.6904,-6.6904,-6.6904,-6.6881,0.0,0.0,-6.6034,-6.5499,-6.464,-6.3757,-6.293,-6.2442,-6.2833,-6.377,-6.5136,-6.6046,-6.6544,-6.627,-6.6138,-6.6067,-6.5933,-6.5897,-6.5897,-6.5897,-6.5897,-6.5897,-6.5897,-6.5897,-6.5897,-6.5897,-6.5897,-6.5897,-6.5897,-6.5897,-6.6147,-6.6936,-6.7494,-6.8244,-6.9494,-7.0071,-7.0494,-7.0841,-7.0898,-7.0898,-7.0898,-7.0898,-7.0898,-7.0898,-7.0898,-7.0898,-7.0898,-7.0898,-7.0898,-7.0898,-7.0898,-7.0898,-7.0898,-7.0898,-7.0898,-7.0898,-7.0898,-7.0898,-7.0879,-6.9206,-6.8385,-6.8327,-6.6667,-6.5897,-6.5897,-6.5897,-6.5897,-6.5897,-6.5897,-6.5897,-6.5897,-6.5897,-6.5897,-6.5897,-6.5897,-6.5897,-6.5897,0.0,0.0,0.0,0.0,0.0,0.0,0.0,0.0,0.0,0.0,-6.9746,-6.9746,-6.9746,-6.9746,0.0,0.0,0.0,0.0,0.0,0.0,-6.9687,-6.957,-6.9629,-6.9258,-6.8379,-6.8241,-6.7829,-6.7066,-6.6944,-6.6881,-6.6881,-6.6881,-6.6881,-6.6881,-6.6881,-6.6881,-6.6881,-6.6881,-6.6857,-6.6731,-6.605,-6.5692,-6.5526,0.0,-6.3926,-6.3164,-6.3047,-6.3496,-6.4258,-6.5136,-6.5955,-6.6595,-6.6393,-6.6245,-6.6108,-6.5974,-6.5903,-6.5897,-6.5897,-6.5897,-6.5897,-6.5897,-6.5897,-6.5897,-6.5897,-6.5897,-6.5897,-6.5897,-6.5897,-6.6109,-6.6801,-6.7032,-6.759,-6.9109,-6.9552,-6.9937,-7.0648,-7.0821,-7.0898,-7.0898,-7.0898,-7.0898,-7.0898,-7.0898,-7.0898,-7.0898,-7.0898,-7.0898,-7.0898,-7.0898,-7.0898,-7.0898,-7.0898,-7.0898,-7.0898,-7.0898,-7.0841,-7.0725,-6.9148,-6.8327,-6.8167,-6.6609,-6.5897,-6.5897,-6.5897,-6.5897,-6.5897,-6.5897,-6.5897,-6.5897,-6.5897,-6.5897,-6.5897,-6.5897,-6.5897,-6.5897,0.0,0.0,0.0,0.0,0.0,0.0,0.0,0.0,0.0,0.0,-7.1543,-7.1543,0.0,0.0,0.0,0.0,0.0,0.0,0.0,0.0,0.0,-7.0508,-7.0488,-7.0078,-6.9217,-6.8532,-6.8099,-6.7892,-6.7166,-6.6811,-6.6822,-6.6822,-6.6822,-6.6822,-6.6822,-6.6822,-6.6822,-6.6822,-6.6802,-6.68,-6.6644,-6.6192,-6.5585,-6.5429,0.0,0.0,-6.3262,-6.3106,-6.336,-6.4238,-6.5521,-6.6749,-6.66,-6.6413,-6.6234,-6.6099,-6.599,-6.5897,-6.5897,-6.5897,-6.5897,-6.5897,-6.5897,-6.5897,-6.5897,-6.5897,-6.5897,-6.5897,-6.5897,-6.5936,-6.607,-6.6647,-6.7186,-6.7494,-6.8763,-6.9744,-6.9898,-7.0475,-7.0898,-7.0898,-7.0898,-7.0898,-7.0898,-7.0898,-7.0898,-7.0898,-7.0898,-7.0898,-7.0898,-7.0898,-7.0898,-7.0898,-7.0898,-7.0898,-7.0898,-7.0898,-7.0571,-6.9898,-6.8879,-6.8013,-6.7282,-6.634,-6.5897,-6.5897,-6.5897,-6.5897,-6.5897,-6.5897,-6.5897,-6.5897,-6.5897,-6.5897,-6.5897,-6.5897,-6.5897,-6.5897,0.0,0.0,0.0,0.0,0.0,0.0,0.0,-7.1992,-7.1992,-7.1992,-7.1992,-7.1992,-7.1992,-7.1992,-7.1992,0.0,0.0,0.0,0.0,0.0,0.0,0.0,0.0,0.0,-7.009,-6.9698,-6.9048,-6.8101,0.0,-6.7229,-6.6795,-6.6795,-6.6795,-6.6795,-6.6795,-6.6795,-6.6795,-6.6795,-6.6795,-6.6795,-6.6795,-6.6561,-6.6229,0.0,0.0,0.0,-6.3301,-6.3008,-6.3067,-6.3477,-6.4765,-6.6238,-6.6507,-6.6532,-6.6406,-6.6157,-6.6054,-6.599,-6.5916,-6.5897,-6.5897,-6.5897,-6.5897,-6.5897,-6.5897,-6.5897,-6.5897,-6.5897,-6.5897,-6.5897,-6.5897,-6.6224,-6.6609,-6.7032,-6.8186,-6.9186,-6.9648,-7.0398,-7.0898,-7.0898,-7.0898,-7.0898,-7.0898,-7.0898,-7.0898,-7.0898,-7.0898,-7.0898,-7.0898,-7.0898,-7.0898,-7.0898,-7.0898,-7.0898,-7.0898,-7.0898,-7.0494,-6.9687,-6.8821,-6.7936,-6.7071,-6.6263,-6.5897,-6.5897,-6.5897,-6.5897,-6.5897,-6.5897,-6.5897,-6.5897,-6.5897,-6.5897,-6.5897,-6.5897,-6.5897,-6.5897,0.0,0.0,0.0,0.0,0.0,0.0,-7.1992,-7.1992,-7.1992,-7.1992,-7.1992,-7.1992,-7.1992,-7.1992,-7.1992,0.0,0.0,0.0,0.0,0.0,0.0,0.0,0.0,0.0,-7.0982,0.0,0.0,-6.8664,-6.8284,0.0,0.0,0.0,0.0,0.0,-6.6795,-6.6795,-6.6795,-6.6795,-6.6795,0.0,0.0,-6.6795,-6.6795,0.0,0.0,0.0,0.0,-6.3164,-6.3008,-6.3008,-6.3906,-6.5167,-6.589,-6.6337,-6.6558,-6.6281,-6.6158,-6.6086,-6.5967,-6.5928,-6.5897,-6.5897,-6.5897,-6.5897,-6.5897,-6.5897,-6.5897,-6.5897,-6.5897,-6.5897,-6.5897,-6.5897,-6.6109,-6.6744,-6.7552,-6.8436,-6.9302,-7.0129,-7.0706,-7.0879,-7.0898,-7.0898,-7.0898,-7.0898,-7.0898,-7.0898,-7.0898,-7.0898,-7.0898,-7.0898,-7.0898,-7.0898,-7.0898,-7.0898,-7.0898,-7.0898,-7.0398,-6.9417,-6.8744,-6.7859,-6.6821,-6.6186,-6.5897,-6.5897,-6.5897,-6.5897,-6.5897,-6.5897,-6.5897,-6.5897,-6.5897,-6.5897,-6.5897,-6.5897,-6.5897,-6.5897,0.0,0.0,0.0,0.0,0.0,0.0,-7.1992,-7.1992,-7.1992,-7.1992,-7.1992,-7.1992,-7.199,-7.1992,-7.1992,0.0,0.0,0.0,0.0,0.0,0.0,0.0,0.0,0.0,0.0,0.0,0.0,-7.0465,-6.8884,0.0,0.0,0.0,0.0,0.0,0.0,-6.6795,-6.6795,-6.6795,0.0,0.0,0.0,0.0,0.0,0.0,0.0,0.0,0.0,-6.3672,-6.3008,-6.3008,-6.3106,-6.3399,-6.4233,-6.5473,-6.659,-6.6569,-6.6338,-6.6098,-6.6077,-6.5982,-6.5897,-6.5897,-6.5897,-6.5897,-6.5897,-6.5897,-6.5897,-6.5897,-6.5897,-6.5897,-6.5897,-6.5897,-6.5917,-6.5994,-6.6686,-6.7513,-6.8398,-6.9263,-7.0071,-7.0802,-7.0898,-7.0898,-7.0898,-7.0898,-7.0898,-7.0898,-7.0898,-7.0898,-7.0898,-7.0898,-7.0898,-7.0898,-7.0898,-7.0898,-7.0898,-7.0898,-7.011,-6.8532,-6.8442,-6.7571,-6.6013,-6.5936,-6.5897,-6.5897,-6.5897,-6.5897,-6.5897,-6.5897,-6.5897,-6.5897,-6.5897,-6.5897,-6.5897,-6.5897,-6.5897,-6.5897,0.0,0.0,0.0,0.0,0.0,0.0,-7.1992,-7.1992,-7.1992,-7.1992,-7.1992,-7.1992,-7.2009,-7.199,-7.199,-7.2007,-7.2007,0.0,0.0,0.0,0.0,0.0,0.0,0.0,0.0,0.0,-7.1231,-7.0699,-6.9489,0.0,0.0,0.0,0.0,0.0,0.0,-6.6795,-6.6795,-6.6795,0.0,0.0,0.0,0.0,0.0,0.0,0.0,0.0,0.0,0.0,-6.3008,-6.3008,-6.3008,-6.3067,-6.3418,-6.43,-6.5285,-6.5694,-6.5667,-6.5601,-6.5983,-6.5994,-6.5897,-6.5897,-6.5897,-6.5897,-6.5897,-6.5897,-6.5897,-6.5897,-6.5897,-6.5897,-6.5897,-6.5897,-6.5897,-6.5897,-6.6571,-6.7398,-6.8282,-6.9148,-6.9994,-7.0802,-7.0898,-7.0898,-7.0898,-7.0898,-7.0898,-7.0898,-7.0898,-7.0898,-7.0898,-7.0898,-7.0898,-7.0898,-7.0898,-7.0898,-7.0898,-7.0898,-7.0071,-6.8385,-6.8385,-6.7513,-6.5897,-6.5897,-6.5897,-6.5897,-6.5897,-6.5897,-6.5897,-6.5897,-6.5897,-6.5897,-6.5897,-6.5897,-6.5897,-6.5897,-6.5897,-6.582,0.0,0.0,0.0,0.0,0.0,-7.1992,-7.1992,-7.1992,-7.1992,-7.1992,-7.1991,-7.2009,-7.2005,-7.2004,-7.2002,-7.1993,-7.1998,0.0,0.0,0.0,0.0,0.0,0.0,0.0,0.0,0.0,-7.1694,-7.1089,-6.9957,-6.9098,0.0,0.0,-6.6795,-6.6795,0.0,0.0,0.0,0.0,0.0,0.0,0.0,0.0,0.0,0.0,0.0,0.0,0.0,0.0,0.0,0.0,0.0,-6.2618,-6.2618,-6.3047,-6.3723,-6.4708,-6.5083,-6.5256,-6.5689,-6.5891,-6.5958,-6.5903,-6.5897,-6.5897,-6.5897,-6.5897,-6.5897,-6.5897,-6.5897,-6.5897,-6.5897,-6.5897,-6.5897,-6.5897,-6.6378,-6.7032,-6.7898,-6.8763,-6.9629,-7.0456,-7.0764,-7.0898,-7.0898,-7.0898,-7.0898,-7.0898,-7.0898,-7.0898,-7.0898,-7.0898,-7.0898,-7.0898,-7.0898,-7.0898,-7.0898,-7.0667,-6.9821,-6.8385,-6.8148,-6.7263,-6.5897,-6.5897,-6.5897,-6.5897,-6.5897,-6.5897,-6.5897,-6.5897,-6.5897,-6.5897,-6.5897,-6.5897,-6.5897,-6.5897,-6.5897,-6.5782,0.0,0.0,0.0,0.0,0.0,-7.1992,-7.1992,-7.1991,-7.2009,-7.2009,-7.2004,-7.1998,-7.2008,-7.2006,-7.2002,-7.2009,-7.201,0.0,0.0,0.0,0.0,0.0,0.0,0.0,-7.2007,-7.2007,-7.2007,-7.1987,-7.025,-6.9391,-6.9352,-6.7615,-6.6795,-6.6795,0.0,0.0,0.0,0.0,0.0,0.0,0.0,0.0,0.0,0.0,0.0,0.0,0.0,0.0,0.0,0.0,0.0,0.0,0.0,-6.1718,-6.2069,-6.3809,-6.4774,-6.5258,-6.5146,-6.5592,-6.6076,-6.5921,-6.5897,-6.5897,-6.5897,-6.5897,-6.5897,-6.5897,-6.5897,-6.5897,-6.5897,-6.5897,-6.5897,-6.5897,-6.5897,-6.6186,-6.6994,-6.7859,-6.8744,-6.961,-7.0417,-7.0898,-7.0898,-7.0898,-7.0898,-7.0898,-7.0898,-7.0898,-7.0898,-7.0898,-7.0898,-7.0898,-7.0898,-7.0898,-7.0898,-7.011,-6.9263,-6.8385,-6.7532,-6.6686,-6.5897,-6.5897,-6.5897,-6.5897,-6.5897,-6.5897,-6.5897,-6.5897,-6.5897,-6.5897,-6.5897,-6.5897,-6.5897,-6.5897,-6.5897,-6.5782,0.0,0.0,0.0,0.0,0.0,0.0,-7.2006,-7.2004,-7.2003,-7.2003,-7.2002,-7.1998,-7.2006,-7.2006,-7.2002,-7.2009,-7.1995,0.0,0.0,0.0,0.0,0.0,0.0,-7.2007,-7.2007,-7.2007,-7.2007,-7.2007,-7.0855,-6.9977,-6.9372,-6.822,-6.7361,-6.6795,-6.6795,-6.6795,0.0,0.0,0.0,0.0,0.0,0.0,-6.6795,0.0,0.0,0.0,0.0,0.0,0.0,0.0,0.0,0.0,0.0,0.0,0.0,-6.3067,-6.3897,-6.4518,-6.4971,-6.5601,-6.6076,-6.5933,-6.5897,-6.5897,-6.5897,-6.5897,-6.5897,-6.5897,-6.5897,-6.5897,-6.5897,-6.5897,-6.5897,-6.5897,-6.5897,-6.6186,-6.6994,-6.7859,-6.8725,-6.961,-7.0417,-7.0898,-7.0898,-7.0898,-7.0898,-7.0898,-7.0898,-7.0898,-7.0898,-7.0898,-7.0898,-7.0898,-7.0898,-7.0898,-7.0898,-7.011,-6.9263,-6.8385,-6.7513,-6.6667,-6.5897,-6.5897,-6.5897,-6.5897,-6.5897,-6.5897,-6.5897,-6.5897,-6.5897,-6.5897,-6.5897,-6.5897,-6.5897,-6.5897,-6.5513,-6.4897,0.0,0.0,0.0,0.0,0.0,0.0,-7.2001,-7.1998,-7.1996,-7.1996,-7.1993,-7.2006,-7.2,-7.2,-7.1997,-7.2007,-7.2007,0.0,0.0,0.0,0.0,0.0,-7.2007,-7.2007,-7.2007,-7.2007,-7.2007,-7.2007,-7.1128,-7.025,-6.9372,-6.8513,-6.7634,-6.6795,-6.6795,-6.6795,0.0,0.0,0.0,0.0,0.0,0.0,-6.6795,0.0,0.0,0.0,0.0,0.0,0.0,0.0,0.0,0.0,0.0,0.0,0.0,0.0,-6.3527,-6.4261,-6.4927,-6.5633,-6.6138,-6.5958,-6.5897,-6.5897,-6.5897,-6.5897,-6.5897,-6.5897,-6.5897,-6.5897,-6.5897,-6.5897,-6.5897,-6.5897,-6.5897,-6.607,-6.6571,-6.7378,-6.8359,-6.9571,-7.0417,-7.0898,-7.0898,-7.0898,-7.0898,-7.0898,-7.0898,-7.0898,-7.0898,-7.0898,-7.0898,-7.0898,-7.0898,-7.0744,-7.0456,-6.9629,-6.8763,-6.7898,-6.7051,-6.6378,-6.5897,-6.5897,-6.5897,-6.5897,-6.5897,-6.5897,0.0,-6.5897,-6.5897,-6.5897,-6.5897,-6.5705,-6.5416,-6.5416,-6.4859,-6.3993,0.0,0.0,0.0,0.0,0.0,0.0,0.0,-7.1991,-7.2004,-7.2004,-7.1995,-7.2007,-7.2007,-7.2007,-7.2007,-7.2007,-7.2007,0.0,0.0,0.0,0.0,-7.2007,-7.2007,-7.2007,-7.2007,-7.2007,-7.2007,-7.2007,-7.1187,-7.0309,-6.9372,-6.8571,-6.7693,-6.6795,-6.6795,-6.6795,0.0,0.0,0.0,0.0,-6.6795,-6.6795,0.0,0.0,0.0,0.0,0.0,0.0,0.0,0.0,0.0,0.0,0.0,0.0,0.0,0.0,0.0,0.0,0.0,-6.5724,-6.6245,-6.5974,-6.5897,-6.5897,-6.5897,-6.5897,0.0,-6.5897,-6.5897,-6.5897,-6.5897,-6.5897,-6.5897,-6.5897,-6.5897,-6.5897,-6.5897,-6.659,-6.7725,-6.9417,-7.0321,-7.0802,-7.0802,-7.086,-7.0898,-7.0898,-7.0898,-7.0879,-7.0821,-7.0802,-7.0783,-7.0725,-7.0725,-7.0398,-6.9706,-6.8783,-6.7898,-6.709,-6.6282,-6.5897,-6.5897,-6.5897,-6.5897,-6.5897,-6.5897,-6.5897,-6.5897,-6.5897,-6.5897,-6.5878,-6.582,-6.5301,-6.4589,-6.4532,-6.3955,-6.3108,0.0,0.0,0.0,0.0,0.0,0.0,0.0,0.0,0.0,0.0,-7.2009,-7.2007,-7.2007,-7.2007,-7.2007,0.0,0.0,0.0,0.0,0.0,0.0,-7.2007,-7.2007,-7.2007,-7.2007,-7.2007,-7.2007,-7.2007,-7.1792,-7.0914,-6.9391,-6.9196,-6.8279,-6.6795,-6.6795,-6.6795,0.0,0.0,0.0,0.0,-6.6795,-6.6795,0.0,0.0,0.0,0.0,-6.6795,-6.6288,0.0,0.0,0.0,0.0,0.0,0.0,0.0,0.0,-6.4143,-6.4545,-6.5712,0.0,-6.6245,-6.5974,-6.5897,-6.5897,0.0,-6.5897,-6.5897,-6.5897,-6.5897,-6.5897,-6.5897,-6.5897,-6.5897,-6.5897,-6.5897,-6.5897,-6.5897,-6.659,-6.7494,-6.859,-6.9456,-6.9975,-6.9975,-7.0533,-7.0898,-7.0898,-7.0898,-7.0629,-7.0014,-6.9975,-6.9687,-6.9013,-6.8994,-6.9225,-6.9706,-6.8167,-6.7301,-6.709,-6.6282,-6.5897,-6.5897,-6.5897,-6.5897,-6.5897,-6.5897,-6.5897,-6.5897,-6.5897,-6.5897,-6.582,-6.5166,-6.4782,-6.4532,-6.3858,-6.3089,-6.2339,0.0,0.0,0.0,0.0,0.0,0.0,0.0,0.0,0.0,0.0,-7.2007,-7.2007,-7.2007,-7.2007,-7.2007,0.0,0.0,0.0,0.0,-7.2007,-7.2007,-7.2007,-7.2007,-7.2007,-7.2007,-7.2007,-7.2007,-7.2007,-7.2007,-7.1109,-6.9391,-6.9391,-6.8474,-6.6795,-6.6795,-6.6795,-6.6795,-6.6795,-6.6795,-6.6795,-6.6795,0.0,0.0,0.0,0.0,0.0,-6.6795,-6.6522,0.0,-6.5175,-6.4316,-6.3438,0.0,0.0,0.0,0.0,-6.457,-6.5117,-6.6157,-6.6366,-6.6245,-6.5974,-6.5897,-6.5897,-6.5897,-6.5897,-6.5897,-6.5897,-6.5897,-6.5897,-6.5897,-6.5897,-6.5897,-6.5897,-6.5897,-6.5897,-6.5897,-6.659,-6.7282,-6.7744,-6.8571,-6.9109,-6.9109,-6.9494,-6.9744,-6.9744,-6.9744,-6.9571,-6.9129,-6.9109,-6.8792,-6.8148,-6.7927,-6.8032,-6.8494,-6.7571,-6.6898,-6.6532,-6.6109,-6.5897,-6.5897,-6.5897,-6.5897,-6.5897,-6.5897,-6.5897,-6.5897,-6.5897,-6.5897,-6.5801,-6.4936,-6.4359,-6.3897,-6.3051,-6.2224,-6.1493,0.0,0.0,0.0,0.0,0.0,0.0,0.0,0.0,0.0,0.0,0.0,0.0,0.0,0.0,0.0,0.0,0.0,0.0,0.0,-7.2007,-7.2007,-7.2007,-7.2007,-7.2007,-7.2007,-7.2007,-7.2007,-7.2007,-7.2007,-7.1187,-6.9606,-6.945,-6.8474,-6.6795,-6.6795,-6.6795,-6.6795,-6.6795,-6.6795,-6.6795,-6.6795,0.0,0.0,0.0,0.0,0.0,0.0,0.0,0.0,-6.5878,-6.5019,-6.4162,-6.3438,0.0,0.0,0.0,0.0,0.0,-6.6425,-6.6445,-6.6234,-6.6001,-6.5916,-6.5897,-6.5897,-6.5897,-6.5897,-6.5897,-6.5897,-6.5897,-6.5897,-6.5897,-6.5897,-6.5897,-6.5897,-6.5897,-6.5897,-6.6494,-6.6917,-6.6917,-6.7686,-6.8205,-6.8205,-6.8321,-6.8385,-6.8385,-6.8339,-6.8254,-6.8139,-6.8079,-6.7822,-6.7334,-6.694,-6.6754,-6.6826,-6.6885,-6.6571,-6.5897,-6.5897,-6.5897,-6.5897,-6.5897,-6.5897,-6.5897,-6.5897,-6.5897,-6.5897,-6.5897,-6.582,-6.5609,-6.4743,-6.3878,-6.3031,-6.2204,-6.1416,-6.08,0.0,0.0,0.0,0.0,0.0,0.0,0.0,0.0,0.0,0.0,0.0,0.0,0.0,0.0,0.0,0.0,0.0,0.0,0.0,-7.2007,-7.2007,-7.2007,-7.2007,-7.2007,-7.2007,-7.2007,-7.2007,-7.2007,-7.2007,-7.1499,-7.0484,-6.9742,-6.8474,-6.6795,-6.6795,-6.6795,-6.6795,-6.6795,-6.6795,-6.6795,-6.6795,0.0,0.0,0.0,0.0,0.0,0.0,0.0,0.0,-6.5878,-6.5019,-6.4279,-6.4143,0.0,0.0,0.0,0.0,0.0,-6.6425,-6.6445,-6.6267,-6.6118,-6.599,-6.5897,-6.5897,-6.5897,-6.5897,-6.5897,-6.5897,-6.5897,-6.5897,-6.5897,-6.5897,-6.5897,-6.5897,-6.5897,-6.5897,-6.6013,-6.607,-6.607,-6.6801,-6.7301,-6.7301,-6.7975,-6.8385,-6.8385,-6.8081,-6.7588,-6.6919,-6.654,-6.5994,-6.5202,-6.512,-6.5229,-6.5584,-6.5914,-6.6013,-6.5897,-6.5897,-6.5897,-6.5897,-6.5897,-6.5897,-6.5897,-6.5897,-6.5897,-6.5897,-6.5897,-6.5474,-6.4705,-6.3839,-6.2993,-6.2166,-6.132,-6.0916,-6.08,0.0,0.0,0.0,0.0,0.0,0.0,0.0,0.0,0.0,0.0,0.0,0.0,0.0,0.0,0.0,0.0,0.0,0.0,-7.2007,-7.2007,-7.2007,-7.2007,-7.2007,-7.2007,-7.2007,-7.2007,-7.2007,-7.2007,-7.2007,-7.1558,-7.0679,-6.9333,-6.8025,-6.6795,-6.6795,-6.6795,-6.6795,-6.6795,-6.6795,-6.6795,0.0,0.0,0.0,0.0,0.0,0.0,0.0,0.0,0.0,0.0,-6.537,-6.4377,-6.4843,0.0,0.0,0.0,0.0,0.0,-6.6622,-6.6581,-6.6419,-6.6254,-6.6044,-6.5897,-6.5897,-6.5897,-6.5897,-6.5897,-6.5897,-6.5897,-6.5897,-6.5897,-6.5897,-6.5897,-6.5897,-6.5897,-6.5897,-6.5897,-6.5897,-6.5897,-6.6224,-6.6436,-6.6436,-6.6801,-6.7051,-6.7051,-6.6682,-6.6292,-6.591,-6.5513,-6.5026,-6.4445,-6.4611,-6.4786,-6.4973,-6.5378,-6.5676,-6.5897,-6.5897,-6.5897,-6.5897,-6.5897,-6.5897,-6.5897,-6.5897,-6.5897,-6.5859,-6.5397,-6.4955,-6.4474,-6.3166,-6.2416,-6.1985,-6.1108,-6.08,-6.08,0.0,0.0,0.0,0.0,0.0,0.0,0.0,0.0,0.0,0.0,0.0,0.0,0.0,0.0,0.0,0.0,0.0,0.0,-7.2007,-7.2007,-7.2007,-7.2007,-7.2007,-7.2007,-7.2007,-7.2007,-7.2007,-7.2007,-7.2007,-7.1441,-7.0367,-6.904,-6.783,-6.6795,-6.6795,-6.6795,-6.6795,-6.6795,-6.6795,-6.6795,0.0,0.0,0.0,0.0,0.0,0.0,0.0,0.0,0.0,0.0,0.0,0.0,0.0,0.0,0.0,-6.5624,-6.6327,-6.6795,-6.6795,-6.6674,-6.6489,-6.6344,-6.6119,-6.5933,-6.591,-6.5897,-6.5897,-6.5897,-6.5897,-6.5897,-6.5897,-6.5897,-6.5897,-6.5897,-6.5897,-6.5897,-6.5897,-6.5897,-6.5897,-6.5897,-6.5897,-6.5897,-6.5897,-6.5897,-6.5897,-6.5897,-6.5456,-6.5156,-6.5156,-6.47,-6.4331,-6.4067,-6.4311,-6.4501,-6.4574,-6.4976,-6.5407,-6.5897,-6.5897,-6.5897,-6.5897,-6.5897,-6.5897,-6.5897,-6.5897,-6.5897,-6.582,-6.4955,-6.4474,-6.4147,-6.2666,-6.1985,-6.1716,-6.105,-6.08,-6.08,0.0,0.0,0.0,0.0,0.0,0.0,0.0,0.0,0.0,0.0,0.0,0.0,0.0,0.0,0.0,0.0,0.0,0.0,-7.2007,-7.2007,-7.2007,-7.2007,-7.2007,-7.2007,-7.2007,-7.2007,-7.2007,-7.2007,-7.2007,-7.1148,-6.9489,-6.9372,-6.8415,-6.6795,-6.6795,-6.6795,-6.6795,-6.6795,-6.6795,-6.6795,-6.6795,0.0,0.0,0.0,0.0,0.0,0.0,0.0,0.0,0.0,0.0,0.0,0.0,0.0,-6.5663,-6.6483,-6.6756,-6.6795,-6.6795,-6.6566,-6.6322,-6.6295,-6.6184,-6.6044,-6.594,-6.5897,-6.5897,-6.5897,-6.5897,-6.5897,-6.5897,-6.5897,-6.5897,-6.5897,-6.5897,-6.5897,-6.5897,-6.5897,-6.5897,-6.5897,-6.5897,-6.5897,-6.5897,-6.5897,-6.5897,-6.5897,-6.5188,-6.4751,-6.4751,-6.407,-6.365,-6.3647,-6.3669,-6.3854,-6.423,-6.4575,-6.5121,-6.5897,-6.5897,-6.5897,-6.5897,-6.5897,-6.5897,-6.5897,-6.5897,-6.5897,-6.582,-6.4955,-6.4128,-6.332,-6.2435,-6.162,-6.0877,-6.0819,-6.08,-6.08,0.0,0.0,0.0,0.0,0.0,0.0,0.0,0.0,0.0,0.0,0.0,0.0,0.0,0.0,0.0,0.0,0.0,-7.2007,-7.2007,-7.2007,-7.2007,-7.2007,-7.2007,-7.2007,-7.2007,-7.2007,-7.2007,-7.2007,-7.2007,-7.1109,-6.9391,-6.9391,-6.8474,-6.6795,-6.6795,-6.6795,-6.6795,-6.6795,-6.6795,-6.6795,-6.6795,-6.6795,0.0,0.0,0.0,0.0,0.0,0.0,0.0,0.0,-6.6268,-6.5741,-6.6541,-6.6249,-6.5761,-6.6561,-6.6795,-6.6795,-6.6795,-6.67,-6.66,-6.6507,-6.6356,-6.6176,-6.5958,-6.5897,-6.5897,-6.5897,-6.5897,-6.5897,-6.5897,-6.5897,-6.5897,-6.5897,-6.5897,-6.5897,-6.5897,-6.5897,-6.5897,-6.5897,-6.5897,-6.5897,-6.5897,-6.5897,-6.5897,-6.5897,-6.5153,-6.4699,-6.4699,-6.3988,-6.3602,-6.3602,-6.3602,-6.3786,-6.4209,-6.4538,-6.4973,-6.5532,-6.5781,-6.5897,-6.5897,-6.5897,-6.5897,-6.5897,-6.5897,-6.559,-6.5013,-6.4147,-6.3301,-6.2474,-6.1608,-6.1089,-6.08,-6.08,-6.08,-6.08,0.0,0.0,0.0,0.0,0.0,0.0,0.0,0.0,0.0,0.0,0.0,0.0,0.0,0.0,0.0,0.0,-7.2007,-7.2007,-7.2007,-7.2007,-7.2007,-7.2007,-7.2007,-7.2007,-7.2007,-7.2007,-7.2007,-7.2007,-7.2007,-7.1109,-6.9391,-6.9391,-6.8474,-6.6795,-6.6795,-6.6795,-6.6795,-6.6795,-6.6795,-6.6795,-6.6795,-6.6795,0.0,0.0,0.0,0.0,0.0,0.0,0.0,0.0,-6.6424,-6.6073,-6.6619,-6.6424,-6.6092,-6.6639,-6.6795,-6.6795,-6.6795,-6.6762,-6.6713,-6.661,-6.6425,-6.6184,-6.6005,-6.5921,-6.5897,-6.5897,-6.5897,-6.5897,-6.5897,-6.5897,-6.5897,-6.5897,-6.5897,-6.5897,-6.5897,-6.5897,-6.5897,-6.5897,-6.5897,-6.5897,-6.5897,-6.5897,-6.5897,-6.5897,-6.5153,-6.4699,-6.4699,-6.3988,-6.3602,-6.3602,-6.3602,-6.3739,-6.4023,-6.435,-6.4735,-6.5124,-6.5532,-6.5781,-6.5897,-6.5897,-6.5897,-6.5897,-6.5897,-6.5416,-6.4532,-6.3666,-6.2666,-6.1639,-6.1031,-6.08,-6.08,-6.08,-6.08,-6.08,0.0,0.0,0.0,0.0,0.0,0.0,0.0,0.0,-7.0679,-7.0699,-7.1441,0.0,0.0,0.0,0.0,0.0,-7.2007,-7.2007,-7.2007,-7.2007,-7.2007,-7.2007,-7.2007,-7.2007,-7.2007,-7.2007,-7.2007,-7.2007,-7.2007,-7.1109,-6.9391,-6.9391,-6.8474,-6.6795,-6.6795,-6.6795,-6.6795,-6.6795,-6.6795,-6.6795,-6.6795,-6.6795,-6.6795,0.0,0.0,0.0,0.0,0.0,0.0,0.0,-6.6795,-6.6795,-6.6795,-6.6795,-6.6795,-6.6795,-6.6795,-6.6795,-6.6795,-6.6705,-6.6595,-6.6595,-6.6353,-6.6089,-6.6089,-6.5994,-6.591,-6.591,-6.5897,-6.5897,-6.5897,-6.5897,-6.5897,-6.5897,-6.5897,-6.5897,-6.5897,-6.5878,-6.5878,-6.5878,-6.5878,-6.5878,-6.5878,-6.5878,-6.5878,-6.5878,-6.5153,-6.468,-6.4699,-6.3988,-6.3602,-6.3602,-6.3602,-6.3602,-6.3602,-6.4002,-6.4369,-6.4697,-6.5105,-6.5499,-6.5897,-6.5897,-6.5897,-6.5897,-6.5878,-6.5397,-6.4532,-6.3647,-6.23,-6.08,-6.08,-6.08,-6.08,-6.08,-6.08,-6.08,0.0,0.0,0.0,0.0,0.0,0.0,0.0,0.0,-6.9313,-7.0543,-7.0933,0.0,0.0,0.0,0.0,0.0,0.0,-7.2007,-7.2007,-7.2007,-7.2007,-7.2007,-7.2007,-7.2007,-7.2007,-7.2007,-7.2007,-7.2007,-7.2007,-7.1109,-6.9391,-6.9391,-6.8474,-6.6795,-6.6795,-6.6753,-6.6657,-6.6657,-6.6657,-6.6657,-6.6657,-6.6716,-6.6795,0.0,0.0,0.0,0.0,0.0,0.0,0.0,0.0,0.0,-6.6795,-6.6795,-6.6795,-6.6795,-6.6795,-6.6795,-6.6795,-6.6765,-6.6749,-6.6749,-6.6482,-6.6234,-6.6234,-6.6148,-6.6041,-6.6041,-6.5974,-6.5897,-6.5897,-6.5897,-6.5897,-6.5897,-6.5897,-6.5897,-6.5897,-6.5378,-6.4993,-6.4993,-6.4436,-6.407,-6.407,-6.407,-6.4339,-6.4936,-6.4279,-6.4111,-6.4661,-6.3988,-6.3602,-6.3602,-6.3602,-6.3602,-6.3602,-6.4002,-6.4369,-6.4697,-6.5105,-6.5499,-6.5897,-6.5897,-6.5897,-6.5859,-6.5243,-6.4493,-6.357,-6.2127,-6.1243,-6.08,-6.08,-6.08,-6.08,-6.08,-6.08,-6.08,0.0,0.0,0.0,0.0,0.0,0.0,0.0,0.0,-6.8999,-7.0403,-7.0642,-7.1031,0.0,0.0,0.0,0.0,-7.2007,-7.2007,-7.2007,-7.2007,-7.2007,-7.2007,-7.2007,-7.2007,-7.2007,-7.2007,-7.2007,-7.2007,-7.1655,-7.0777,-6.9391,-6.904,-6.8111,-6.6716,-6.6716,-6.6629,-6.6483,-6.6483,-6.6483,-6.6489,-6.6574,-6.6648,-6.672,0.0,0.0,0.0,0.0,0.0,0.0,0.0,0.0,0.0,-6.6795,-6.6795,-6.6795,-6.6795,-6.6795,-6.6795,-6.6795,-6.6795,-6.679,-6.6727,-6.6499,-6.6291,-6.6226,-6.6119,-6.6008,-6.6008,-6.595,-6.5897,-6.5897,-6.5897,-6.5897,-6.5897,-6.5897,-6.5897,-6.5897,-6.5147,-6.4609,-6.4609,-6.3839,-6.3288,-6.3288,-6.3288,-6.3531,-6.4051,-6.3726,-6.3696,-6.4206,-6.3838,-6.3602,-6.3602,-6.3602,-6.3602,-6.3602,-6.3851,-6.4131,-6.452,-6.4873,-6.5284,-6.5682,-6.5827,-6.5705,-6.532,-6.4109,-6.3301,-6.2724,-6.1358,-6.08,-6.08,-6.08,-6.08,-6.08,-6.08,-6.08,-6.08,0.0,0.0,-6.6423,-6.6423,0.0,0.0,0.0,0.0,-6.9398,-7.0275,-7.0543,-7.1003,0.0,0.0,0.0,0.0,-7.2007,-7.2007,-7.2007,-7.2007,-7.2007,-7.2007,-7.2007,-7.2007,-7.2007,-7.2007,-7.2007,-7.2007,-7.1128,-7.025,-6.9372,-6.8507,-6.7551,-6.659,-6.6579,-6.6471,-6.6291,-6.6291,-6.6291,-6.6299,-6.6477,-6.6569,-6.659,-6.6723,0.0,0.0,0.0,0.0,0.0,0.0,0.0,0.0,-6.6795,-6.6795,-6.6795,-6.6795,-6.6795,-6.6795,-6.6795,-6.6795,-6.6765,-6.6648,-6.6452,-6.6259,-6.6109,-6.599,-6.591,-6.5916,-6.5923,-6.5897,-6.5897,-6.5897,-6.5897,-6.5897,-6.5897,-6.5859,-6.5782,-6.5032,-6.4455,-6.4378,-6.3608,-6.307,-6.307,-6.307,-6.3096,-6.3129,-6.3219,-6.3319,-6.3435,-6.346,-6.3527,-6.3602,-6.3602,-6.3602,-6.3602,-6.3602,-6.3786,-6.419,-6.4538,-6.4907,-6.5299,-6.5709,-6.5378,-6.4397,-6.2781,-6.2062,-6.1928,-6.1127,-6.08,-6.08,-6.08,-6.08,-6.08,-6.08,-6.08,-6.08,0.0,0.0,-6.7317,-6.7317,0.0,0.0,0.0,0.0,0.0,-7.0122,-7.0368,0.0,0.0,0.0,0.0,0.0,0.0,-7.2007,-7.2007,-7.2007,-7.2007,-7.2007,-7.2007,-7.2007,-7.2007,-7.2007,-7.2007,-7.2007,-7.1128,-7.025,-6.9372,-6.8398,-6.7458,-6.659,-6.6432,-6.6275,-6.6138,-6.6138,-6.6138,-6.6158,-6.6185,-6.627,-6.6379,-6.6565,-6.6648,0.0,0.0,0.0,0.0,0.0,0.0,0.0,-6.6795,-6.6795,-6.6795,-6.6795,-6.6795,-6.6795,-6.6795,-6.6795,-6.6792,-6.6762,-6.6535,-6.6234,-6.6013,-6.5928,-6.5921,-6.6041,-6.5967,-6.5897,-6.5897,-6.5897,-6.5897,-6.5897,-6.5897,-6.5647,-6.4974,-6.4128,-6.3358,-6.2704,-6.1858,-6.1339,-6.1339,-6.1339,-6.1485,-6.1852,-6.1666,-6.1984,-6.2975,-6.279,-6.2952,-6.3583,-6.3602,-6.3602,-6.3602,-6.3602,-6.3786,-6.419,-6.4538,-6.4907,-6.5299,-6.5709,-6.5051,-6.3531,-6.2531,-6.1716,-6.1069,-6.0877,-6.08,-6.08,-6.08,-6.08,-6.08,-6.08,-6.08,-6.08,0.0,0.0,0.0,0.0,0.0,0.0,0.0,0.0,0.0,0.0,0.0,0.0,0.0,0.0,0.0,0.0,-7.193,-7.2007,-7.2007,-7.2007,-7.1812,-7.1402,-7.0972,-7.0757,-7.0757,-7.0757,-7.0757,-7.0757,-6.9879,-6.9396,-6.9264,-6.7911,-6.6943,-6.6361,-6.6245,-6.6138,-6.6005,-6.6005,-6.6005,-6.6016,-6.6067,-6.6129,-6.6228,-6.6392,-6.6465,-6.6483,-6.6638,0.0,0.0,0.0,0.0,0.0,0.0,0.0,-6.6795,-6.6795,-6.6795,-6.6795,-6.6795,-6.6795,-6.6762,-6.6609,-6.6322,-6.6056,-6.5921,-6.5897,-6.5916,-6.599,-6.5958,-6.5897,-6.5897,-6.5897,-6.5897,-6.5897,-6.5897,-6.559,-6.4724,-6.3858,-6.3012,-6.2197,-6.132,-6.08,-6.08,-6.08,-6.0826,-6.0914,-6.0969,-6.1383,-6.2295,-6.2372,-6.2784,-6.3583,-6.3602,-6.3602,-6.3602,-6.3602,-6.3714,-6.3918,-6.4291,-6.4546,-6.4688,-6.4653,-6.3955,-6.2685,-6.1839,-6.1235,-6.08,-6.08,-6.08,-6.08,-6.08,-6.08,-6.08,-6.08,-6.08,-6.08,0.0,0.0,0.0,0.0,0.0,0.0,0.0,0.0,0.0,0.0,0.0,0.0,0.0,0.0,0.0,0.0,0.0,0.0,-7.1953,-7.1845,-7.1441,-7.0738,-6.9879,-6.9391,-6.9391,-6.9391,-6.9391,-6.9391,-6.8502,-6.8363,-6.8892,-6.7289,-6.639,-6.6108,-6.6086,-6.6005,-6.5897,-6.5897,-6.5897,-6.5903,-6.6008,-6.6065,-6.6077,-6.6219,-6.6267,-6.6291,-6.6477,-6.6544,-6.656,-6.6716,0.0,0.0,0.0,0.0,-6.6795,-6.6795,-6.6795,-6.6795,-6.6795,-6.679,-6.6689,-6.6386,-6.6109,-6.594,-6.591,-6.5897,-6.5897,-6.5897,-6.5897,-6.5897,-6.5897,-6.5897,-6.5897,-6.5897,-6.5897,-6.5532,-6.4532,-6.3762,-6.2954,-6.1985,-6.1243,-6.08,-6.08,-6.08,-6.0641,-6.0251,-6.0561,-6.1045,-6.1576,-6.1975,-6.2636,-6.3583,-6.3602,-6.3602,-6.3602,-6.3602,-6.3602,-6.3602,-6.3917,-6.3969,-6.379,-6.331,-6.2724,-6.2062,-6.1166,-6.08,-6.08,-6.08,-6.08,-6.08,-6.08,-6.08,-6.08,-6.0788,-6.0788,-6.0777,0.0,0.0,0.0,0.0,0.0,0.0,0.0,0.0,0.0,0.0,-7.1016,-7.1102,0.0,0.0,-7.1533,-7.1533,-7.1653,-7.174,-7.174,0.0,0.0,-7.0718,-6.9879,-6.9391,-6.9391,-6.9391,-6.9391,-6.9391,-6.8414,-6.7887,-6.7797,-6.6791,-6.6243,-6.6098,-6.5978,-6.5916,-6.5897,-6.5897,-6.5897,-6.591,-6.5916,-6.594,-6.5946,-6.6086,-6.6129,-6.6158,-6.6283,-6.6344,-6.6366,-6.656,-6.6634,0.0,0.0,0.0,-6.6795,-6.6795,-6.6795,-6.6795,-6.6795,-6.6713,-6.6565,-6.6358,-6.6194,-6.6033,-6.5928,-6.5897,-6.5897,-6.5897,-6.5897,-6.5897,-6.5897,-6.5897,-6.5897,-6.5897,-6.5897,-6.532,-6.3705,-6.3365,-6.2724,-6.1146,-6.0858,-6.08,-6.08,-6.08,-6.0546,-5.9903,-5.9918,-6.0335,-6.1223,-6.132,-6.206,-6.3565,-6.3602,-6.3602,-6.3602,-6.3602,-6.3602,-6.3602,-6.3615,-6.3375,-6.2949,-6.2465,-6.2197,-6.2062,-6.1166,-6.08,-6.08,-6.08,-6.08,-6.08,-6.08,-6.08,-6.08,-6.0722,-6.071,-6.0697,0.0,0.0,0.0,0.0,0.0,0.0,0.0,0.0,0.0,0.0,0.0,-7.1023,-7.1023,-7.1206,-7.132,-7.132,-7.1497,-7.1621,-7.1694,-7.107,-7.0699,-7.0699,-6.9391,-6.8669,-6.8669,-6.8181,-6.7947,-6.7947,-6.7426,-6.706,-6.6858,-6.6411,-6.6109,-6.599,-6.5928,-6.5897,-6.5897,-6.5897,-6.5897,-6.5897,-6.5897,-6.5897,-6.591,-6.5974,-6.599,-6.6005,-6.6129,-6.6184,-6.6211,-6.6378,-6.6521,-6.66,-6.6666,0.0,0.0,0.0,-6.6795,-6.679,-6.6709,-6.6565,-6.6392,-6.6228,-6.6088,-6.5967,-6.5903,-6.5897,-6.5897,-6.5897,-6.5897,-6.5897,-6.5897,-6.5897,-6.5897,-6.5897,-6.5897,-6.5282,-6.3551,-6.3288,-6.2685,-6.0993,-6.08,-6.08,-6.08,-6.08,-6.052,-5.9839,-5.9791,-5.9997,-6.0449,-6.0945,-6.1744,-6.2896,-6.3379,-6.3602,-6.3602,-6.3602,-6.3379,-6.2933,-6.2824,-6.2418,-6.178,-6.1499,-6.1358,-6.1351,-6.0973,-6.08,-6.08,-6.08,-6.08,-6.08,-6.08,-6.0788,-6.0734,-6.0697,-6.0692,-6.0623,0.0,0.0,0.0,0.0,0.0,0.0,0.0,0.0,0.0,0.0,0.0,-7.0898,-7.0898,0.0,0.0,0.0,-7.132,-7.1505,-7.1689,-7.107,-7.0699,-7.0699,-6.9235,-6.8337,-6.8103,-6.7459,-6.701,-6.6795,-6.6619,-6.6458,-6.6307,-6.6129,-6.6001,-6.5897,-6.5897,-6.5897,-6.5897,-6.5897,-6.5897,-6.5897,-6.5897,-6.5897,-6.5897,-6.5897,-6.5897,-6.5903,-6.6016,-6.6044,-6.6076,-6.6202,-6.6349,-6.6484,-6.6521,-6.659,0.0,0.0,0.0,-6.6982,-6.688,-6.6743,-6.6597,-6.6467,-6.6193,-6.5946,-6.5923,-6.5897,-6.5897,-6.5897,-6.5897,-6.5897,-6.5897,-6.5897,-6.5897,-6.5897,-6.5897,-6.5282,-6.3551,-6.3288,-6.2685,-6.0993,-6.08,-6.08,-6.08,-6.08,-6.052,-5.9839,-5.9791,-5.9827,-5.991,-6.0741,-6.1577,-6.2376,-6.3193,-6.3602,-6.3602,-6.3416,-6.3007,-6.2394,-6.1977,-6.1458,-6.0868,-6.0731,-6.0666,-6.0678,-6.0757,-6.08,-6.08,-6.08,-6.08,-6.08,-6.08,-6.0765,-6.0697,-6.0673,-6.0642,-6.0565,0.0,0.0,0.0,0.0,0.0,0.0,0.0,0.0,0.0,0.0,0.0,-7.0898,-7.0898,-7.0912,-7.0925,-7.0925,-7.1089,-7.1357,-7.1683,-7.107,-7.0699,-7.0699,-6.9821,0.0,-6.8122,-6.8064,-6.7634,-6.6795,-6.6462,-6.6322,-6.6287,-6.603,-6.591,-6.5897,-6.5897,-6.5897,-6.5897,-6.5897,-6.5897,-6.5897,-6.5897,-6.5897,-6.5897,-6.5897,-6.5897,-6.5897,-6.5923,-6.5903,-6.5921,-6.6065,-6.6109,-6.6158,-6.6275,-6.6329,-6.6337,0.0,0.0,0.0,-6.7546,-6.7538,-6.7509,-6.7377,-6.6717,-6.6054,-6.594,-6.5897,-6.5897,-6.5897,-6.5897,-6.5897,-6.5897,-6.5897,-6.5897,-6.5897,-6.5897,-6.5282,-6.3551,-6.3288,-6.2685,-6.0993,-6.08,-6.08,-6.08,-6.08,-6.052,-5.9839,-5.9791,-5.9827,-5.991,-6.0741,-6.1577,-6.2376,-6.3193,-6.3602,-6.3602,-6.284,-6.245,-6.2394,-6.1179,-6.0567,-6.0511,-6.0392,-6.0321,-6.0335,-6.0654,-6.08,-6.08,-6.08,-6.08,-6.08,-6.08,-6.0765,-6.0685,-6.0629,-6.0565,-6.0499,0.0,0.0,0.0,0.0,0.0,0.0,0.0,0.0,0.0,0.0,0.0,0.0,0.0,-7.0898,-7.0898,-7.0898,-7.1077,-7.125,-7.1375,-7.1274,-7.1254,-7.1345,-7.0507,-6.9966,-6.9759,-6.8669,-6.7907,-6.7508,-6.6705,-6.6259,-6.6176,-6.599,-6.5897,-6.5897,-6.5897,-6.5897,-6.5897,-6.5897,-6.5897,-6.5897,-6.5897,-6.5897,-6.5897,-6.5897,-6.5897,-6.5897,-6.5897,-6.5897,-6.591,-6.595,-6.603,-6.6099,-6.6157,-6.6605,-6.7239,-6.7802,-6.8183,-6.8411,-6.8277,-6.8239,-6.8074,-6.7375,-6.6969,-6.6598,-6.6038,-6.5897,-6.5897,-6.5897,-6.5897,-6.5897,-6.5897,-6.5897,-6.5897,-6.5897,-6.5897,-6.5493,-6.4301,-6.3647,-6.2897,-6.1762,-6.1127,-6.08,-6.08,-6.08,-6.0616,-6.0165,-5.9918,-5.9705,-5.9456,-6.0555,-6.1336,-6.1633,-6.2914,-6.336,-6.284,-6.2543,-6.1874,-6.0797,-6.0597,-6.021,-5.9684,-6.0114,-6.0293,-6.0307,-6.0654,-6.08,-6.08,-6.08,-6.0757,-6.0741,-6.0741,-6.066,-6.0578,-6.0552,-6.0499,-6.0431,0.0,0.0,0.0,-7.0898,0.0,-7.0898,-7.0898,-7.0898,-7.0898,-7.0898,0.0,0.0,0.0,0.0,-7.0898,-7.0898,-7.1077,-7.1195,-7.1195,-7.1396,-7.1536,-7.1634,-7.1112,-7.0756,-7.0602,-6.9455,-6.855,-6.7906,-6.7075,-6.6475,-6.6098,-6.5962,-6.5897,-6.5897,-6.5897,-6.5897,-6.5897,-6.5897,-6.5897,-6.5897,-6.5897,-6.5897,-6.5897,-6.5897,-6.5897,-6.5897,-6.5897,-6.5897,-6.5897,-6.5897,-6.5962,-6.603,-6.603,-6.6678,-6.7561,-6.8142,-6.8714,-6.9149,-6.8999,-6.879,-6.8422,-6.7712,-6.7153,-6.6606,-6.6038,-6.5897,-6.5897,-6.5897,-6.5897,-6.5897,-6.5897,-6.5897,-6.5897,-6.5897,-6.5897,-6.559,-6.4724,-6.3858,-6.3012,-6.2197,-6.132,-6.08,-6.08,-6.08,-6.0654,-6.0321,-5.9981,-5.9622,-5.9215,-6.019,-6.0908,-6.1187,-6.2506,-6.2822,-6.2023,-6.1726,-6.1001,-5.9905,-5.9897,-5.9587,-5.9045,-5.9804,-6.0131,-6.0165,-6.0616,-6.08,-6.08,-6.0777,-6.0734,-6.0697,-6.068,-6.0604,-6.0499,-6.0499,-6.0458,-6.0403,-7.0898,-7.0898,-7.0898,-7.0898,-7.0898,-7.0898,-7.0898,-7.0898,-7.0898,-7.0898,0.0,0.0,0.0,0.0,0.0,-7.0898,-7.1084,-7.1184,-7.1184,-7.1367,-7.1492,-7.1492,-7.1621,-7.128,-7.0442,-7.0383,-6.9565,-6.7915,-6.7556,-6.6929,-6.6088,-6.5962,-6.5897,-6.5897,-6.5897,-6.5897,-6.5897,-6.5897,-6.5897,-6.5897,-6.5897,-6.5897,-6.5897,-6.5897,-6.5897,-6.5897,-6.5897,-6.5897,-6.5897,-6.5897,-6.5897,-6.5897,-6.5917,-6.6474,-6.7109,-6.7128,-6.834,-6.9667,0.0,0.0,0.0,-6.8405,-6.7236,-6.6104,-6.594,-6.5897,-6.5897,-6.5897,-6.5897,-6.5897,-6.5897,-6.5897,-6.5897,-6.5897,-6.5897,-6.559,-6.4762,-6.3897,-6.3051,-6.2235,-6.1358,-6.0819,-6.08,-6.08,-6.0666,-6.0335,-5.9996,-5.9641,-5.9252,-5.965,-6.0314,-6.1168,-6.1967,-6.1986,-6.1168,-6.0333,-5.9884,-5.9847,-5.9069,-5.8716,-5.8719,-5.9451,-5.9774,-5.9823,-6.0488,-6.0769,-6.0788,-6.0741,-6.0697,-6.0685,-6.0629,-6.0565,-6.0499,-6.0499,-6.0458,-6.0403,-7.0898,-7.0898,-7.0898,-7.0898,-7.0898,-7.0898,-7.0898,-7.0898,-7.0898,0.0,0.0,0.0,-7.0898,-7.0898,-7.0898,-7.0898,-7.0946,-7.0979,-7.0979,-7.1055,-7.1136,-7.1279,-7.1329,-7.1286,-7.1194,-6.9957,-6.9049,-6.8469,-6.7116,-6.6295,-6.595,-6.5916,-6.5897,-6.5897,-6.5897,-6.5897,-6.5897,-6.5897,-6.5897,-6.5897,-6.5897,-6.5897,-6.5897,-6.5897,-6.5897,-6.5897,-6.5897,-6.5897,-6.5897,-6.5897,-6.5897,-6.5994,-6.6571,-6.6917,-6.7225,-6.7859,-6.8379,-6.8763,-6.8763,0.0,0.0,0.0,0.0,0.0,-6.6038,-6.5897,-6.5897,-6.5897,-6.5897,-6.5897,-6.5897,-6.5897,-6.5897,-6.5897,-6.5897,-6.582,-6.557,-6.4782,-6.3916,-6.307,-6.2243,-6.1493,-6.0858,-6.08,-6.0757,-6.0666,-6.0135,-5.9758,-5.9622,-5.9791,-6.0314,-6.1168,-6.1428,-6.1131,-6.0277,-6.0014,-5.9627,-5.9032,-5.8828,-5.8716,-5.8698,-5.9102,-5.9451,-5.9744,-6.0082,-6.0376,-6.0667,-6.0741,-6.0729,-6.0629,-6.0604,-6.0525,-6.0431,-6.0431,-6.0417,-6.0403,-7.0898,-7.0898,-7.0898,-7.0898,-7.0898,-7.0898,-7.0898,-7.0898,-7.0898,0.0,0.0,0.0,-7.0898,-7.0898,-7.0898,-7.0898,-7.0898,-7.0898,-7.0898,-7.0898,-7.0959,-7.1072,-7.1158,-7.1259,-7.1367,-7.0029,-6.9101,-6.871,-6.723,-6.6314,-6.5897,-6.5897,-6.5897,-6.5897,-6.5897,-6.5897,-6.5897,-6.5897,-6.5897,-6.5897,-6.5897,-6.5897,-6.5897,-6.5897,-6.5897,-6.5897,-6.5897,-6.5897,-6.5897,-6.5897,-6.5897,-6.5974,-6.6436,-6.6821,-6.7186,-6.7705,-6.8129,-6.8385,-6.8385,-6.8129,-6.7744,-6.7225,0.0,0.0,-6.6013,-6.5897,-6.5897,-6.5897,-6.5897,-6.5897,-6.5897,-6.5897,-6.5897,-6.5897,-6.5897,-6.5897,-6.5897,-6.5147,-6.4282,-6.3404,-6.2589,-6.1774,-6.0877,-6.08,-6.08,-6.08,-6.0179,-5.9658,-5.9363,-5.969,-5.9998,-6.0147,-6.0481,-6.0258,-5.9401,-5.9404,-5.9162,-5.8716,-5.8716,-5.8716,-5.8698,-5.8985,-5.9326,-5.9694,-5.9912,-6.0232,-6.0604,-6.0692,-6.0655,-6.0552,-6.0525,-6.0472,-6.0403,-6.0403,-6.0403,-6.0403,0.0,-7.0898,-7.0898,-7.0898,-7.0898,-7.0898,-7.0898,-7.0898,-7.0898,0.0,-7.0898,-7.0898,-7.0898,-7.0898,-7.0898,-7.0898,-7.0898,-7.0898,-7.0898,-7.0898,-7.0898,-7.0898,-7.1072,-7.1123,-7.1046,-7.0176,-6.9344,-6.8513,-6.7485,-6.659,-6.5897,-6.5897,-6.5897,-6.5897,-6.5897,-6.5897,-6.5897,-6.5897,-6.5897,-6.5897,-6.5897,-6.5897,-6.5897,-6.5897,-6.5897,-6.5897,-6.5897,-6.5897,-6.5897,-6.5897,-6.5897,-6.5897,-6.5897,-6.6378,-6.6974,-6.6974,-6.7513,-6.8129,-6.8129,-6.7552,-6.6974,-6.6974,-6.6417,0.0,-6.5897,-6.5897,-6.5897,-6.5897,-6.5897,-6.5897,-6.5897,-6.5897,-6.5897,-6.5897,-6.5897,-6.5897,-6.5897,-6.5224,-6.4416,-6.3551,-6.2801,-6.2043,-6.1166,-6.1069,-6.1031,-6.0954,-6.0217,-5.9486,-5.8782,-5.9406,-5.9438,-5.8735,-5.9404,-5.9422,-5.8716,-5.8696,-5.8696,-5.8716,-5.8677,-5.8696,-5.8716,-5.8906,-5.9253,-5.9626,-5.9833,-6.0146,-6.052,-6.0565,-6.0552,-6.0499,-6.0431,-6.0403,-6.0403,-6.0403,-6.0403,-6.0403,-7.0898,-7.0898,-7.0898,-7.0898,-7.0898,-7.0898,-7.0898,-7.0898,-7.0898,-7.0898,-7.0898,-7.0898,-7.0898,-7.0898,-7.0898,-7.0898,-7.0898,-7.0898,-7.0898,-7.0898,-7.0898,-7.0898,-7.0933,-7.0651,-6.9997,-6.913,-6.8263,-6.7409,-6.6538,-6.6051,-6.5897,-6.5897,-6.5897,-6.5897,-6.5897,-6.5897,-6.5897,-6.5897,-6.5897,-6.5897,-6.5897,-6.5897,-6.5897,-6.5897,-6.5897,-6.5897,-6.5897,-6.5897,-6.5897,-6.5897,-6.5897,-6.5897,-6.5897,-6.6013,-6.6128,-6.6128,-6.6244,-6.6397,-6.6397,-6.6263,-6.6128,-6.6128,-6.6013,0.0,-6.5897,-6.5897,-6.5897,-6.5897,-6.5897,-6.5897,-6.5897,-6.5897,-6.5897,-6.5897,-6.5897,-6.5897,-6.5897,-6.5743,-6.532,-6.4455,-6.4205,-6.3762,-6.2897,-6.282,-6.2551,-6.1908,-6.0575,-5.9607,-5.914,-5.8994,-5.8865,-5.8716,-5.8865,-5.8865,-5.8716,-5.8574,-5.8574,-5.8716,-5.8574,-5.8593,-5.8696,-5.859,-5.8762,-5.914,-5.9289,-5.9587,-5.9984,-6.0313,-6.0458,-6.0499,-6.0485,-6.0444,-6.0403,-6.0403,-6.0403,-6.0403,-7.0898,-7.0898,-7.0898,-7.0898,-7.0898,-7.0898,-7.0898,-7.0898,-7.0898,-7.0898,-7.0898,-7.0898,-7.0898,-7.0898,-7.0898,-7.0898,-7.0898,-7.0898,-7.0898,-7.0898,-7.0898,-7.0898,-7.0514,-7.011,-6.9706,-6.8417,-6.7532,-6.709,-6.6282,-6.5897,-6.5897,-6.5897,-6.5897,-6.5897,-6.5897,-6.5897,-6.5897,-6.5897,-6.5897,-6.5897,-6.5897,-6.5897,-6.5897,-6.5897,-6.5897,-6.5897,-6.5897,-6.5897,-6.5897,-6.5897,-6.5897,-6.5897,-6.5897,-6.5897,-6.5897,-6.5897,-6.5897,-6.5897,-6.5897,-6.5897,-6.5897,-6.5897,-6.5897,0.0,0.0,-6.5897,-6.5897,-6.5897,-6.5897,-6.5897,-6.5897,-6.5897,-6.5897,-6.5897,-6.5897,-6.5897,-6.5897,-6.5897,-6.557,-6.4705,-6.4609,-6.4262,-6.3378,-6.3288,-6.2874,-6.1876,-6.0563,-5.9622,-5.9215,-5.8885,-5.8716,-5.8716,-5.8716,-5.8716,-5.8716,-5.8553,-5.8532,-5.8614,-5.8486,-5.8483,-5.8548,-5.8393,-5.8511,-5.8906,-5.889,-5.9122,-5.952,-5.9725,-5.9823,-5.9887,-6.0294,-6.0431,-6.0403,-6.0403,-6.0403,-6.0375,-7.0898,-7.0898,-7.0898,-7.0898,-7.0898,-7.0898,-7.0898,-7.0898,-7.0898,-7.0898,-7.0898,-7.0898,-7.0898,-7.0898,-7.0898,-7.0898,-7.0898,-7.0898,-7.0898,-7.0898,-7.0821,-7.0687,-7.0052,-6.9533,-6.9206,-6.7821,-6.7013,-6.6859,-6.6224,-6.5897,-6.5897,-6.5897,-6.5897,-6.5897,-6.5897,-6.5897,-6.5897,-6.5897,-6.5897,-6.5897,-6.5897,-6.5897,-6.5897,-6.5897,-6.5897,-6.5897,-6.5897,-6.5897,-6.5897,-6.5897,-6.5897,-6.5897,-6.5897,-6.5897,-6.5897,-6.5897,-6.5897,-6.5897,-6.5897,-6.5897,-6.5897,-6.5897,-6.5897,-6.5897,0.0,0.0,0.0,-6.5897,-6.5897,-6.5897,-6.5897,-6.5897,-6.5897,-6.5897,-6.5897,-6.5897,-6.5897,-6.5897,-6.5628,-6.4936,-6.4859,-6.457,-6.3878,-6.3512,-6.2906,-6.1915,-6.0578,-5.9658,-5.9324,-5.8906,-5.8716,-5.8716,-5.8716,-5.8696,-5.8656,-5.8551,-5.8486,-5.8486,-5.8396,-5.8371,-5.8393,-5.8264,-5.8381,-5.8684,-5.8626,-5.8772,-5.9084,-5.9178,-5.9121,-5.9063,-5.9865,-6.0178,-6.0178,-6.0178,-6.0178,-6.0129,-7.0898,-7.0898,-7.0898,-7.0898,-7.0898,-7.0898,-7.0898,-7.0898,-7.0898,-7.0898,-7.0898,-7.0898,-7.0898,-7.0898,-7.0898,-7.0898,-7.0898,-7.0898,-7.0898,-7.0898,-7.0571,-6.9879,-6.9744,-6.8975,-6.7417,-6.7186,-6.6744,-6.6032,-6.5936,-6.5897,-6.5897,-6.5897,-6.5897,-6.5897,-6.5897,-6.5897,-6.5897,-6.5897,-6.5897,-6.5897,-6.5897,-6.5897,-6.5897,-6.5897,-6.5897,-6.5897,-6.5897,-6.5897,-6.5897,-6.5897,-6.5897,-6.5897,-6.5897,-6.5897,-6.5897,-6.5897,-6.5897,-6.5897,-6.5897,-6.5897,-6.5897,-6.5897,-6.5897,-6.5897,-6.5897,0.0,-6.5897,-6.5897,0.0,-6.5897,-6.5897,0.0,0.0,-6.5897,-6.5897,-6.5897,-6.5897,-6.5897,-6.5859,-6.5763,-6.5743,-6.5705,-6.5609,-6.4205,-6.3238,-6.3098,-6.1042,-5.9774,-5.9741,-5.9082,-5.8716,-5.8716,-5.8716,-5.8635,-5.8532,-5.844,-5.8415,-5.8415,-5.8286,-5.8264,-5.8393,-5.8264,-5.8201,-5.829,-5.8498,-5.8628,-5.871,-5.9046,-5.8783,-5.8219,-5.9024,-5.9343,-5.9343,-5.9343,-5.9343,-5.9343,-7.0898,-7.0898,-7.0898,-7.0898,-7.0898,-7.0898,-7.0898,-7.0898,-7.0898,-7.0898,-7.0898,-7.0898,-7.0898,-7.0898,-7.0898,-7.0898,-7.0898,-7.0898,-7.0898,-7.0456,-7.0052,-6.9706,-6.8725,-6.784,-6.7109,-6.6628,-6.6244,-6.5897,-6.5897,-6.5897,-6.5897,-6.5897,-6.5897,-6.5897,-6.5897,-6.5897,-6.5897,-6.5897,-6.5897,-6.5897,-6.5859,-6.5833,-6.5846,-6.5885,-6.5897,-6.5897,-6.5897,-6.5897,-6.5897,-6.5897,-6.5897,-6.5897,-6.5897,-6.5897,-6.5897,-6.5897,-6.5897,-6.5897,-6.5897,-6.5897,-6.5897,-6.5897,-6.5897,-6.5897,-6.5897,-6.5897,-6.5897,-6.5897,0.0,0.0,0.0,0.0,0.0,0.0,-6.5897,-6.5897,-6.5897,-6.5897,-6.5897,-6.5897,-6.5897,-6.5897,-6.5897,-6.432,-6.3288,-6.3288,-6.1128,-5.9791,-5.9791,-5.9102,-5.8716,-5.8716,-5.8635,-5.8553,-5.8511,-5.8375,-5.8264,-5.8264,-5.8152,-5.8111,-5.8174,-5.8106,-5.8065,-5.8088,-5.8209,-5.7998,-5.7556,-5.773,-5.7314,-5.6629,-5.6982,-5.7673,-5.8501,-5.8501,-5.8783,-5.9178,-7.0871,-7.0885,-7.0898,-7.0898,-7.0898,-7.0898,-7.0898,-7.0898,-7.0898,-7.0898,-7.0898,-7.0898,-7.0898,-7.0898,-7.0898,-7.0898,-7.0898,-7.0802,-7.0591,-7.0014,-6.9494,-6.9013,-6.7782,-6.6994,-6.6782,-6.6205,-6.5897,-6.5897,-6.5897,-6.5897,-6.5897,-6.5897,-6.5897,-6.5897,-6.5897,-6.5897,-6.5897,-6.5885,-6.5872,-6.5853,-6.5544,-6.5268,-6.5089,-6.5378,-6.55,-6.5462,-6.5237,-6.516,-6.516,-6.5186,-6.5186,-6.5186,-6.5186,-6.5359,-6.5532,-6.5532,-6.5705,-6.5897,-6.5897,-6.5897,-6.5897,-6.5897,-6.5897,-6.5897,-6.5897,-6.5897,-6.5897,-6.5897,-6.5897,0.0,0.0,0.0,-6.5897,-6.5897,0.0,-6.5897,-6.5897,-6.5897,-6.5897,-6.5897,-6.5897,-6.5897,-6.5897,-6.432,-6.3288,-6.3288,-6.1128,-5.9791,-5.9791,-5.9102,-5.8677,-5.8656,-5.8553,-5.8468,-5.8403,-5.8268,-5.8174,-5.8133,-5.8042,-5.7997,-5.7997,-5.7997,-5.7997,-5.7997,-5.7776,-5.7336,-5.6785,-5.6565,-5.5996,-5.5262,-5.5262,-5.5983,-5.7061,-5.7509,-5.8181,-5.8831,-7.0801,-7.0857,-7.0898,-7.0898,-7.0898,-7.0898,-7.0898,-7.0898,-7.0898,-7.0898,-7.0898,-7.0898,-7.0898,-7.0898,-7.0898,-7.0898,-7.0898,-7.0571,-6.9783,-6.9706,-6.8956,-6.7263,-6.7128,-6.6744,-6.5955,-6.5897,-6.5897,-6.5897,-6.5897,-6.5897,-6.5897,-6.5897,-6.5897,-6.5897,-6.5897,-6.5897,-6.5897,-6.582,-6.5793,-6.5717,-6.4824,-6.3934,-6.3282,-6.4126,-6.4452,-6.4337,-6.3572,-6.3278,-6.329,-6.3353,-6.3378,-6.3378,-6.3378,-6.3955,-6.4647,-6.4647,-6.5243,-6.5897,-6.5897,-6.5897,-6.5897,-6.5897,-6.5897,-6.5897,-6.5897,-6.5897,-6.5897,-6.5897,-6.5897,-6.5897,-6.5897,-6.5897,-6.5897,-6.5897,-6.5897,0.0,0.0,-6.5897,-6.5897,-6.5897,-6.5897,-6.5897,-6.5897,-6.432,-6.3288,-6.3288,-6.1128,-5.9791,-5.9791,-5.9102,-5.8635,-5.8511,-5.8511,-5.8422,-5.8219,-5.8197,-5.8133,-5.7997,-5.7997,-5.7997,-5.7997,-5.7997,-5.7997,-5.796,-5.7189,-5.6822,-5.6748,-5.5959,-5.5152,-5.4436,-5.4436,-5.4476,-5.4699,-5.6261,-5.7344,-5.8042,-7.0733,-7.0762,-7.0806,-7.0885,-7.0898,-7.0898,-7.0898,-7.0898,-7.0898,-7.0898,-7.0898,-7.0898,-7.0898,-7.0898,-7.0687,-7.0148,-7.011,-6.9744,-6.8898,-6.8302,-6.7725,-6.7128,-6.659,-6.6186,-6.5897,-6.5897,-6.5897,-6.5897,-6.5897,-6.5897,-6.5897,-6.5897,-6.5897,-6.5897,-6.5846,-6.5833,-6.582,-6.5715,-6.5348,-6.4792,-6.3841,-6.3269,-6.2997,-6.3395,-6.3551,-6.3493,-6.3232,-6.3117,-6.3149,-6.3162,-6.3175,-6.3175,-6.3175,-6.3367,-6.3617,-6.3617,-6.3835,-6.4091,-6.4052,-6.4078,-6.4104,-6.4104,-6.4104,-6.4116,-6.4173,-6.4185,-6.4185,-6.4185,-6.4185,-6.4185,-6.4185,-6.4647,-6.5032,-6.5032,-6.5513,-6.5897,0.0,-6.5897,-6.5897,-6.5897,-6.5897,-6.5667,-6.5109,-6.3993,-6.3089,-6.2551,-6.1027,-6.0026,-5.9807,-5.9326,-5.8868,-5.8511,-5.8443,-5.8353,-5.8197,-5.8111,-5.8042,-5.7997,-5.7997,-5.7997,-5.7997,-5.7997,-5.7703,-5.7189,-5.6932,-5.6198,-5.5188,-5.4913,-5.4326,-5.361,-5.361,-5.394,-5.4528,-5.5611,-5.6528,-5.7281,-7.0662,-7.0673,-7.0733,-7.0801,-7.0815,-7.0829,-7.0857,-7.0843,-7.0829,-7.0857,-7.0843,-7.0815,-7.0815,-7.0546,-7.0162,-6.9643,-6.9316,-6.8811,-6.7954,-6.7351,-6.6922,-6.6686,-6.6141,-6.5872,-6.5897,-6.5897,-6.5897,-6.5897,-6.5897,-6.5897,-6.5897,-6.5897,-6.5885,-6.5859,-6.582,-6.578,-6.5701,-6.5306,-6.4838,-6.4263,-6.3006,-6.2304,-6.2027,-6.2106,-6.232,-6.253,-6.227,-6.2188,-6.2188,-6.2195,-6.2195,-6.2195,-6.2195,-6.2419,-6.2669,-6.2669,-6.2906,-6.3162,-6.3104,-6.3136,-6.3156,-6.3156,-6.3156,-6.3188,-6.3251,-6.3264,-6.3264,-6.3264,-6.3276,-6.3288,-6.3264,-6.3738,-6.4147,-6.4147,-6.4878,-6.5551,0.0,-6.5897,-6.5897,-6.5897,-6.5897,-6.5551,-6.4686,-6.382,-6.2974,-6.2159,-6.0986,-6.0146,-5.9807,-5.9415,-5.8987,-5.8486,-5.8418,-5.8327,-5.8129,-5.8042,-5.7997,-5.7997,-5.7997,-5.7997,-5.7997,-5.7703,-5.7299,-5.6785,-5.6198,-5.5372,-5.4381,-5.4087,-5.3683,-5.3185,-5.3185,-5.3537,-5.4106,-5.5188,-5.629,-5.7299,-7.0557,-7.0632,-7.0688,-7.0688,-7.0688,-7.0718,-7.0791,-7.0748,-7.0718,-7.0791,-7.0709,-7.0646,-7.0646,-6.9864,-6.9327,-6.9289,-6.858,-6.7798,-6.6984,-6.6877,-6.6559,-6.5904,-6.582,-6.582,-6.5885,-6.5897,-6.5897,-6.5897,-6.5897,-6.5897,-6.5897,-6.5897,-6.5859,-6.5793,-6.578,-6.5682,-6.5479,-6.4661,-6.4236,-6.4006,-6.2252,-6.1077,-6.0403,-6.0403,-6.0867,-6.1454,-6.0759,-6.0499,-6.0499,-6.0565,-6.0591,-6.0591,-6.0591,-6.1166,-6.1831,-6.1831,-6.2368,-6.2962,-6.2962,-6.2962,-6.2975,-6.2975,-6.2975,-6.2989,-6.3073,-6.3066,-6.3066,-6.3066,-6.3104,-6.3148,-6.3098,-6.3155,-6.3231,-6.3231,-6.3974,-6.482,-6.5647,-6.5763,-6.5763,-6.5763,-6.5763,-6.5455,-6.4628,-6.3762,-6.2916,-6.2101,-6.098,-6.0179,-5.9807,-5.945,-5.8968,-5.8415,-5.8393,-5.8264,-5.7997,-5.7997,-5.7997,-5.7997,-5.7997,-5.7978,-5.7905,-5.7152,-5.6767,-5.6602,-5.506,-5.4381,-5.4289,-5.3537,-5.3185,-5.3185,-5.3185,-5.324,-5.35,-5.5042,-5.662,-5.7997,-6.9947,-7.0266,-7.0483,-7.0483,-7.0593,-7.0703,-7.0718,-7.0703,-7.0703,-7.0718,-7.0147,-6.973,-6.973,-6.9001,-6.8254,-6.7602,-6.7353,-6.6868,-6.6019,-6.5934,-6.5871,-6.5682,-6.5655,-6.5655,-6.5682,-6.5774,-6.582,-6.582,-6.5872,-6.5897,-6.5897,-6.5846,-6.5807,-6.5793,-6.5646,-6.5231,-6.4609,-6.4341,-6.3475,-6.2194,-6.1148,-6.058,-6.0403,-6.0403,-6.0537,-6.069,-6.0493,-6.0431,-6.0431,-6.0444,-6.0444,-6.0444,-6.0444,-6.0611,-6.0783,-6.0783,-6.0964,-6.1157,-6.1103,-6.113,-6.1171,-6.1171,-6.1171,-6.1184,-6.1249,-6.1262,-6.1262,-6.1262,-6.1275,-6.1301,-6.1338,-6.1888,-6.2355,-6.2397,-6.3108,-6.3724,-6.3935,-6.3974,-6.3974,-6.3974,-6.3974,-6.3878,-6.3666,-6.2897,-6.205,-6.1204,-6.0837,-6.0422,-5.9823,-5.9708,-5.9271,-5.8437,-5.8393,-5.8264,-5.7997,-5.7997,-5.7997,-5.7997,-5.7997,-5.7685,-5.7097,-5.6895,-5.6161,-5.4987,-5.4583,-5.4069,-5.35,-5.3277,-5.3185,-5.3185,-5.3185,-5.394,-5.5023,-5.5445,-5.662,-5.7997,-6.9445,-6.9682,-6.9776,-6.9595,-6.9658,-6.9944,-7.0555,-7.0613,-7.0444,-7.013,-6.9655,-6.9165,-6.8782,-6.8016,-6.7346,-6.6868,-6.6466,-6.6059,-6.559,-6.5523,-6.5537,-6.5594,-6.5566,-6.5566,-6.5594,-6.5655,-6.5701,-6.5701,-6.5742,-6.5768,-6.5768,-6.5728,-6.5707,-6.566,-6.5556,-6.5039,-6.4192,-6.3399,-6.228,-6.1039,-6.058,-6.0403,0.0,-6.0403,-6.0299,-6.0129,-6.0129,-6.0251,-6.0403,-6.0403,-6.0403,-6.0375,-6.0193,-6.0129,-6.0114,-5.9922,-6.0034,-6.0188,-6.0144,-6.0173,-6.0232,-6.0398,-6.0323,-6.0246,-6.0493,-6.0552,-6.0552,-6.0552,-6.0578,-6.0604,-6.0617,-6.1051,-6.1574,-6.2031,-6.2474,-6.2897,-6.325,-6.3288,-6.3288,-6.3288,-6.2993,-6.2781,-6.2781,-6.2358,-6.1735,-6.0858,-6.08,-6.052,-5.9842,-5.9791,-5.9362,-5.8437,-5.8418,-5.829,-5.7997,-5.8065,-5.8065,-5.7997,-5.7997,-5.7574,-5.6804,-5.6436,-5.5592,-5.4381,-5.4032,-5.3628,-5.3185,-5.3185,-5.3185,-5.3185,-5.3185,-5.3977,-5.5115,-5.5464,-5.662,-5.7997,-6.8872,-6.8897,-6.8824,-6.847,-6.8509,-6.8999,-7.0222,-7.0274,-6.9911,-6.9266,-6.9014,-6.8531,-6.7673,-6.6904,-6.6459,-6.6459,-6.5803,-6.5425,-6.5479,-6.544,-6.5454,-6.5566,-6.5509,-6.5509,-6.5566,-6.558,-6.558,-6.558,-6.5594,-6.5594,-6.5594,-6.5594,-6.5552,-6.5494,-6.5379,-6.4781,-6.3747,-6.2128,-6.1039,-6.0403,-6.0403,-6.0375,-6.0313,-6.0313,-6.0064,-5.9725,-5.9725,-5.9956,-6.0237,-6.0237,-6.0237,-6.0173,-5.9842,-5.9725,-5.9639,-5.9288,-5.945,-5.9725,-5.9725,-5.9725,-5.9809,-6.0163,-5.9988,-5.9823,-6.0232,-6.0337,-6.0351,-6.0398,-6.0453,-6.0493,-6.0499,-6.0617,-6.0959,-6.18,-6.1928,-6.2166,-6.2878,-6.2974,-6.2974,-6.2974,-6.2358,0.0,-6.1928,-6.1928,-6.162,-6.0858,-6.08,-6.052,-5.9842,-5.9791,-5.9362,-5.8437,-5.8443,-5.8316,-5.7997,-5.8129,-5.8129,-5.7997,-5.7886,-5.7428,-5.662,-5.5812,-5.4987,-5.4197,-5.35,-5.3185,-5.3185,-5.3185,-5.3185,-5.3185,-5.3185,-5.3702,-5.4491,-5.5299,-5.6547,-5.785,-6.7593,-6.7834,-6.81,-6.8034,-6.856,-6.907,-6.9325,-6.9076,-6.8789,-6.8672,-6.7732,-6.6744,-6.5933,-6.5423,-6.5126,-6.5126,-6.5296,-6.5394,-6.5409,-6.5409,-6.5409,-6.544,-6.5425,-6.5425,-6.544,-6.5479,-6.5523,-6.5523,-6.5566,-6.5594,-6.5594,-6.5537,-6.5509,-6.5475,-6.4747,-6.3537,-6.1994,-6.1019,-6.0537,-6.0403,-6.0403,-6.0207,-5.9906,-5.9906,-5.9658,-5.9307,-5.9307,-5.9361,-5.9415,-5.9415,-5.9415,-5.9397,-5.9343,-5.9307,-5.9288,-5.9234,-5.9252,-5.9307,-5.9307,-5.9307,-5.9306,-5.9397,-5.9361,-5.9343,-5.9415,-5.9432,-5.952,-5.9839,-5.9937,-6.0045,-6.0425,-6.0617,-6.0767,-6.0981,-6.1031,-6.1069,-6.1223,-6.1243,-6.1243,-6.1243,-6.1108,-6.1031,-6.1031,-6.1031,-6.0954,-6.08,-6.08,-6.052,-5.9842,-5.9791,-5.9362,-5.8437,-5.8415,-5.8286,-5.7997,-5.802,-5.802,-5.7997,-5.7336,-5.6583,-5.5776,-5.4968,-5.4179,-5.3387,-5.3259,-5.3185,-5.3185,-5.3185,-5.3185,-5.3185,-5.3185,-5.3702,-5.4491,-5.5299,-5.6198,-5.7116,-6.7502,-6.7642,-6.7718,-6.7527,-6.746,-6.7513,-6.7753,-6.7079,-6.6768,-6.7425,-6.6624,-6.5655,-6.481,-6.4537,-6.4445,-6.4445,-6.4612,-6.4845,-6.5068,-6.5085,-6.5185,-6.5394,-6.5394,-6.5394,-6.5394,-6.544,-6.5454,-6.5454,-6.5484,-6.5499,-6.5499,-6.545,-6.5454,-6.5397,-6.4091,-6.2815,-6.1554,-6.0733,-6.0403,-6.0389,-6.0159,-5.9972,-5.9774,-5.9571,-5.9233,-5.8871,-5.8871,-5.875,-5.8646,-5.9065,-5.9215,-5.9159,-5.895,-5.8871,-5.885,-5.8646,-5.873,-5.8871,-5.8871,-5.8871,-5.893,-5.914,-5.9046,-5.893,-5.914,-5.9215,-5.9252,-5.945,-5.9485,-5.9622,-6.0091,-6.042,-6.0629,-6.0692,-6.0704,-6.0717,-6.0734,-6.0753,-6.0753,-6.0753,-6.0753,-6.0753,-6.0753,-6.0753,-6.0746,-6.08,-6.08,-6.0475,-5.9739,-5.9706,-5.927,-5.8331,-5.8371,-5.8264,-5.7997,-5.8065,-5.7863,-5.7373,-5.6987,-5.6161,-5.495,-5.4583,-5.3959,-5.3185,-5.3185,-5.3185,-5.3185,-5.3185,-5.3185,-5.3185,-5.3185,-5.3445,-5.394,-5.5133,-5.5849,-5.6345,-6.7393,-6.7302,-6.7085,-6.6772,-6.6327,-6.6081,-6.6306,-6.5328,-6.4958,-6.6066,-6.5577,-6.4802,-6.392,-6.3911,-6.3973,-6.3973,-6.4055,-6.4254,-6.4631,-6.4649,-6.4827,-6.5252,-6.5267,-6.5298,-6.5394,-6.5394,-6.5394,-6.5394,-6.5394,-6.5394,-6.5394,-6.5394,-6.5203,-6.4802,-6.3199,-6.2025,-6.1167,-6.0459,-6.0144,-6.0114,-5.9791,-5.9622,-5.952,-5.9196,-5.8831,-5.8479,-5.8479,-5.8279,-5.8092,-5.873,-5.893,-5.889,-5.8566,-5.8479,-5.8394,-5.8092,-5.8213,-5.8479,-5.8479,-5.8479,-5.8563,-5.887,-5.871,-5.8563,-5.887,-5.893,-5.8968,-5.9046,-5.914,-5.9324,-5.9704,-6.0026,-6.0284,-6.046,-6.0401,-6.0428,-6.0648,-6.0616,-6.0604,-6.066,-6.0697,-6.0685,-6.0559,-6.0641,-6.0697,-6.0622,-6.0634,-6.0343,-5.9652,-5.9516,-5.9084,-5.8242,-5.8286,-5.8242,-5.7997,-5.7941,-5.7537,-5.6804,-5.6455,-5.5629,-5.4399,-5.4216,-5.3812,-5.3185,-5.3185,-5.3185,-5.3185,-5.3185,-5.3185,-5.3185,-5.3185,-5.3185,-5.339,-5.5005,-5.5614,-5.5812,-6.6476,-6.6035,-6.5503,-6.5481,-6.6022,-6.6213,-6.5522,-6.4687,-6.4328,-6.4818,-6.4486,-6.3892,-6.3027,-6.3285,-6.3557,-6.3557,-6.389,-6.4135,-6.4156,-6.4175,-6.437,-6.4846,-6.4863,-6.5035,-6.5394,-6.5394,-6.5394,-6.5394,-6.5394,-6.5394,-6.5394,-6.5394,-6.4592,-6.3087,-6.1768,-6.073,-5.9937,-5.9505,-5.9325,-5.9325,-5.927,-5.9027,-5.871,-5.8669,-5.8412,-5.8047,-5.8047,-5.8042,-5.802,-5.8092,-5.8115,-5.8115,-5.807,-5.8047,-5.8047,-5.802,-5.8042,-5.8047,-5.8047,-5.8047,-5.807,-5.8115,-5.8092,-5.807,-5.8115,-5.8115,-5.8231,-5.8566,-5.8949,-5.9233,-5.934,-5.9393,-5.9547,-6.0004,-5.9744,-5.9779,-6.05,-6.0349,-6.0269,-6.0572,-6.0729,-6.0597,-6.0108,-6.0514,-6.0597,-6.0108,-6.0118,-6.0015,-5.9618,-5.9196,-5.8728,-5.8219,-5.8219,-5.8152,-5.7997,-5.7281,-5.6877,-5.6785,-5.5317,-5.4546,-5.4381,-5.3647,-5.328,-5.3185,-5.3185,-5.3185,-5.3185,-5.3185,-5.3185,-5.3185,-5.3185,-5.3185,-5.339,-5.5005,-5.5614,-5.5812,-6.5723,-6.5521,-6.5319,-6.5319,-6.5173,-6.4952,-6.4622,-6.387,-6.3376,-6.3541,-6.3407,-6.3191,-6.286,-6.2959,-6.3086,-6.3086,-6.3215,-6.3449,-6.3718,-6.3739,-6.3932,-6.4369,-6.4388,-6.4464,-6.4612,-6.4612,-6.4612,-6.4612,-6.4896,-6.5035,-6.5035,-6.5035,-6.4006,-6.2134,-6.1142,-6.0241,-5.9432,-5.927,-5.9215,-5.9197,-5.8949,-5.8732,-5.8566,-5.8326,-5.8142,-5.7997,-5.7997,-5.7997,-5.7997,-5.7997,-5.7997,-5.7997,-5.7997,-5.7997,-5.7997,-5.7997,-5.7997,-5.7997,-5.7997,-5.7997,-5.7997,-5.7997,-5.7997,-5.7997,-5.7997,-5.7997,-5.8065,-5.8209,-5.8563,-5.8852,-5.8872,-5.9084,-5.9305,-5.9499,-5.9376,-5.9411,-5.9766,-5.9715,-5.9663,-5.9798,-5.9877,-5.9827,-5.9597,-5.976,-5.9842,-5.9644,-5.9935,-5.9905,-5.9427,-5.9008,-5.8566,-5.8088,-5.8065,-5.7822,-5.7281,-5.6969,-5.6326,-5.5354,-5.4711,-5.4161,-5.3683,-5.3353,-5.3185,-5.3185,-5.3185,-5.3185,-5.3185,-5.3185,-5.3185,-5.3185,-5.3185,-5.3185,-5.3332,-5.4454,-5.5188,-5.578,-6.5264,-6.5118,-6.4952,-6.4952,-6.4475,-6.3998,-6.3759,-6.3209,-6.278,-6.278,-6.278,-6.278,-6.278,-6.278,-6.278,-6.278,-6.278,-6.2935,-6.328,-6.3303,-6.3472,-6.3911,-6.3911,-6.3973,-6.4115,-6.4096,-6.4096,-6.4096,-6.4426,-6.4594,-6.4575,-6.4103,-6.3106,-6.1656,-6.0471,-5.9608,-5.9026,-5.891,-5.885,-5.8831,-5.8542,-5.8415,-5.8391,-5.8115,-5.7997,-5.7997,-5.7997,-5.7997,-5.7997,-5.7997,-5.7997,-5.7997,-5.7997,-5.7997,-5.7997,-5.7997,-5.7997,-5.7997,-5.7997,-5.7997,-5.7997,-5.7997,-5.7997,-5.7997,-5.7997,-5.7997,-5.7997,-5.7997,-5.8231,-5.8415,-5.8415,-5.8648,-5.889,-5.8988,-5.8911,-5.895,-5.9232,-5.9196,-5.9158,-5.925,-5.9304,-5.9268,-5.9122,-5.9232,-5.9267,-5.9176,-5.9494,-5.9528,-5.914,-5.8715,-5.8351,-5.802,-5.7776,-5.7373,-5.6822,-5.6326,-5.5519,-5.4399,-5.4161,-5.3757,-5.3185,-5.3185,-5.3185,-5.3185,-5.3185,-5.3185,-5.3185,-5.3185,-5.3185,-5.3185,-5.3185,-5.3185,-5.3316,-5.4106,-5.4748,-5.5354,-6.5154,-6.4659,-6.4108,-6.4108,-6.409,-6.3796,-6.297,-6.2798,-6.278,-6.278,-6.278,-6.278,-6.278,-6.278,-6.278,-6.278,-6.278,-6.2805,-6.2805,-6.2805,-6.3032,-6.349,-6.3513,-6.3696,-6.4076,-6.4096,-6.4096,-6.4096,-6.4115,-6.4115,-6.4059,-6.2482,-6.1712,-6.1618,-5.9536,-5.8626,-5.8566,-5.8186,-5.802,-5.802,-5.802,-5.802,-5.7997,-5.7997,-5.7997,-5.7997,-5.7997,-5.7997,-5.7997,-5.7997,-5.7997,-5.7997,-5.7997,-5.7997,-5.7997,-5.7997,-5.7997,-5.7997,-5.7997,-5.7997,-5.7997,-5.7997,-5.7997,-5.7997,-5.7997,-5.7997,-5.7997,-5.7997,-5.7997,-5.802,-5.802,-5.802,-5.8142,-5.8524,-5.8279,-5.8301,-5.9103,-5.8912,-5.8833,-5.9159,-5.9304,-5.9195,-5.865,-5.9103,-5.9176,-5.8648,-5.8673,-5.8715,-5.8715,-5.826,-5.7997,-5.7997,-5.7226,-5.6822,-5.6804,-5.5225,-5.4418,-5.4399,-5.3592,-5.3203,-5.3185,-5.3185,-5.3185,-5.3185,-5.3185,-5.3185,-5.3185,-5.3185,-5.3185,-5.3185,-5.3185,-5.3185,-5.3316,-5.4106,-5.4418,-5.4528,-6.3532,-6.3392,-6.3209,-6.3209,-6.3209,-6.3135,-6.286,-6.278,-6.278,-6.278,-6.278,-6.278,-6.278,-6.278,-6.278,-6.278,-6.278,-6.278,-6.278,-6.278,-6.288,-6.3032,-6.3014,-6.3086,-6.3215,-6.3215,-6.3215,-6.3215,-6.352,-6.3395,-6.2857,-6.1794,-6.0843,-5.9941,-5.8714,-5.8186,-5.8186,-5.8047,-5.7997,-5.7997,-5.7997,-5.7997,-5.7997,-5.7997,-5.7997,-5.7997,-5.7997,-5.7997,-5.7997,-5.7997,-5.7997,-5.7997,-5.7997,-5.7997,-5.7997,-5.7997,-5.7997,-5.7997,-5.7997,-5.7997,-5.7997,-5.7997,-5.7997,-5.7997,-5.7997,-5.7997,-5.7997,-5.7997,-5.7997,-5.7997,-5.7997,-5.7997,-5.8024,-5.8164,-5.8092,-5.8092,-5.8344,-5.8282,-5.826,-5.8369,-5.8415,-5.8394,-5.8209,-5.8351,-5.8354,-5.819,-5.8213,-5.8329,-5.8609,-5.8235,-5.7758,-5.7207,-5.6932,-5.6271,-5.517,-5.4656,-5.4124,-5.3592,-5.3314,-5.3185,-5.3185,-5.3185,-5.3185,-5.3185,-5.3185,-5.3185,-5.3185,-5.3185,-5.3185,-5.3185,-5.3185,-5.3185,-5.3222,-5.35,-5.394,-5.4436,-6.278,-6.278,-6.278,-6.278,-6.278,-6.278,-6.278,-6.278,-6.278,-6.278,-6.278,-6.278,-6.278,-6.278,-6.278,-6.278,-6.278,-6.278,-6.278,-6.278,-6.278,-6.278,-6.278,-6.278,-6.278,-6.278,-6.278,-6.278,-6.2796,-6.2512,-6.1994,-6.0885,-5.9969,-5.9148,-5.8364,-5.7997,-5.7997,-5.7997,-5.7997,-5.7997,-5.7997,-5.7997,-5.7997,-5.7997,-5.7997,-5.7997,-5.7997,-5.7997,-5.7997,-5.7997,-5.7997,-5.7997,-5.7997,-5.7997,-5.7997,-5.7997,-5.7997,-5.7997,-5.7997,-5.7997,-5.7997,-5.7997,-5.7997,-5.7997,-5.7997,-5.7997,-5.7997,-5.7997,-5.7997,-5.7997,-5.7997,-5.7997,-5.7997,-5.7997,-5.7997,-5.7997,-5.7997,-5.7997,-5.7997,-5.7997,-5.7997,-5.7997,-5.7997,-5.7997,-5.7868,-5.7574,-5.7556,-5.7526,-5.7481,-5.7534,-5.7317,-5.6822,-5.6216,-5.5427,-5.4418,-5.4106,-5.3702,-5.3185,-5.3185,-5.3185,-5.3185,-5.3185,-5.3185,-5.3185,-5.3185,-5.3185,-5.3185,-5.3185,-5.3185,-5.3185,-5.3185,-5.3185,-5.3185,-5.3185,-5.3537,-5.3959,-6.278,-6.278,-6.278,-6.278,-6.278,-6.278,-6.278,-6.278,-6.278,-6.278,-6.278,-6.278,-6.278,-6.278,-6.278,-6.278,-6.278,-6.278,-6.278,-6.278,-6.278,-6.278,-6.278,-6.278,-6.278,-6.278,-6.2762,-6.2707,-6.1906,-6.1484,-6.1392,-5.9905,-5.9166,-5.9074,-5.8327,-5.7997,-5.7997,-5.7997,-5.7997,-5.7997,-5.7997,-5.7997,-5.7997,-5.7997,-5.7997,-5.7997,-5.7997,-5.7997,-5.7997,-5.7997,-5.7997,-5.7997,-5.7997,-5.7997,-5.7997,-5.7997,-5.7997,-5.7997,-5.7997,-5.7997,-5.7997,-5.7997,-5.7997,-5.7997,-5.7997,-5.7997,-5.7997,-5.7997,-5.7997,-5.7997,-5.7997,-5.7997,-5.7997,-5.7997,-5.7997,-5.7997,-5.7997,-5.7997,-5.7997,-5.7997,-5.7997,-5.7978,-5.7923,-5.7923,-5.7574,-5.6785,-5.673,-5.64,-5.5629,-5.6253,-5.6638,-5.6638,-5.5188,-5.4363,-5.4326,-5.3573,-5.3185,-5.3185,-5.3185,-5.3185,-5.3185,-5.3185,-5.3185,-5.3185,-5.3185,-5.3185,-5.3185,-5.3185,-5.3185,-5.3185,-5.3185,-5.3185,-5.3185,-5.3185,-5.3185,-5.3185,-6.278,-6.278,-6.278,-6.278,-6.278,-6.278,-6.278,-6.278,-6.278,-6.278,-6.278,-6.278,-6.278,-6.278,-6.278,-6.278,-6.278,-6.278,-6.278,-6.278,-6.278,-6.278,-6.278,-6.278,-6.278,-6.278,-6.2511,-6.1887,-6.108,-6.0382,-5.9753,-5.9368,-5.8877,-5.8272,-5.8088,-5.7997,-5.7997,-5.7997,-5.7997,-5.7997,-5.7997,-5.7997,-5.7997,-5.7997,-5.7997,-5.7997,-5.7997,-5.7997,-5.7997,-5.7997,-5.7997,-5.7997,-5.7997,-5.7997,-5.7997,-5.7997,-5.7997,-5.7997,-5.7997,-5.7997,-5.7997,-5.7997,-5.7997,-5.7997,-5.7997,-5.7997,-5.7997,-5.7997,-5.7997,-5.7997,-5.7997,-5.7997,-5.7997,-5.7997,-5.7997,-5.7997,-5.7997,-5.7997,-5.7997,-5.7997,-5.7997,-5.7758,-5.7152,-5.7079,-5.6748,-5.5941,-5.5868,-5.5794,-5.5614,-5.5188,-5.4968,-5.4968,-5.4601,-5.4106,-5.35,-5.3316,-5.3185,-5.3185,-5.3185,-5.3185,-5.3185,-5.3185,-5.3185,-5.3185,-5.3185,-5.3185,-5.3185,-5.3185,-5.3185,-5.3185,-5.3185,-5.3185,-5.3185,-5.3185,-5.3185,-5.3185,-6.278,-6.278,-6.278,-6.278,-6.278,-6.278,-6.278,-6.278,-6.278,-6.278,-6.278,-6.278,-6.278,-6.278,-6.278,-6.278,-6.278,-6.278,-6.278,-6.278,-6.278,-6.278,-6.278,-6.278,-6.278,-6.2456,-6.1869,-6.1043,-6.0254,-5.9648,-5.9184,-5.8822,-5.8419,-5.7997,-5.7997,-5.7997,-5.7997,-5.7997,-5.7997,-5.7997,-5.7997,-5.7997,-5.7997,-5.7997,-5.7997,-5.7997,-5.7997,-5.7997,-5.7997,-5.7997,-5.7997,-5.7997,-5.7997,-5.7997,-5.7997,-5.7997,-5.7997,-5.7997,-5.7997,-5.7997,-5.7997,-5.7997,-5.7997,-5.7997,-5.7997,-5.7997,-5.7997,-5.7997,-5.7997,-5.7997,-5.7997,-5.7997,-5.7997,-5.7997,-5.7997,-5.7997,-5.7997,-5.7997,-5.7997,-5.7997,-5.7685,-5.7281,-5.684,-5.6473,-5.5923,-5.5097,-5.5042,-5.4876,-5.4528,-5.4087,-5.4014,-5.4399,-5.4051,-5.3647,-5.3185,-5.3185,-5.3185,-5.3185,-5.3185,-5.3185,-5.3185,-5.3185,-5.3185,-5.3185,-5.3185,-5.3185,-5.3185,-5.3185,-5.3185,-5.3185,-5.3185,-5.3185,-5.3185,-5.3185,-5.3185,-5.3185,-6.278,-6.278,-6.278,-6.278,-6.278,-6.278,-6.278,-6.278,-6.278,-6.278,-6.278,-6.278,-6.278,-6.278,-6.278,-6.278,-6.278,-6.278,-6.278,-6.278,-6.278,-6.278,-6.278,-6.278,-6.278,-6.1887,-6.1025,-6.0236,-5.9428,-5.9001,-5.8982,-5.8327,-5.7997,-5.7997,-5.7997,-5.7997,-5.7997,-5.7997,-5.7997,-5.7997,-5.7997,-5.7997,-5.7997,-5.7997,-5.7997,-5.7997,-5.7997,-5.7997,-5.7997,-5.7997,-5.7997,-5.7997,-5.7997,-5.7997,-5.7997,-5.7997,-5.7997,-5.7997,-5.7997,-5.7997,-5.7997,-5.7997,-5.7997,-5.7997,-5.7997,-5.7997,-5.7997,-5.7997,-5.7997,-5.7997,-5.7997,-5.7997,-5.7997,-5.7997,-5.7997,-5.7997,-5.7997,-5.7997,-5.7941,-5.7831,-5.7226,-5.6712,-5.6473,-5.5812,-5.5078,-5.4289,-5.4216,-5.3922,-5.3243,-5.3185,-5.3518,-5.4197,-5.3573,-5.3185,-5.3185,-5.3185,-5.3185,-5.3185,-5.3185,-5.3185,-5.3185,-5.3185,-5.3185,-5.3185,-5.3185,-5.3185,-5.3185,-5.3185,-5.3185,-5.3185,-5.3185,-5.3185,-5.3185,-5.3185,-5.3185,-5.3185,-6.278,-6.278,-6.278,-6.278,-6.278,-6.278,-6.278,-6.278,-6.278,-6.278,-6.278,-6.278,-6.278,-6.278,-6.278,-6.278,-6.278,-6.278,-6.278,-6.278,-6.278,-6.278,-6.278,-6.278,-6.278,-6.1355,-6.0199,-5.9386,-5.8584,-5.8198,-5.818,-5.8052,-5.7997,-5.7997,-5.7997,-5.7997,-5.7997,-5.7997,-5.7997,-5.7997,-5.7997,-5.7997,-5.7997,-5.7997,-5.7997,-5.7997,-5.7997,-5.7997,-5.7997,-5.7997,-5.7997,-5.7997,-5.7997,-5.7997,-5.7997,-5.7997,-5.7997,-5.7997,-5.7997,-5.7997,-5.7997,-5.7997,-5.7997,-5.7997,-5.7997,-5.7997,-5.7997,-5.7997,-5.7997,-5.7997,-5.7997,-5.7997,-5.7997,-5.7997,-5.7997,-5.7997,-5.7997,-5.7997,-5.7758,-5.7079,-5.6895,-5.6271,-5.4895,-5.4656,-5.4252,-5.3463,-5.339,-5.3335,-5.3203,-5.3185,-5.3259,-5.339,-5.328,-5.3185,-5.3185,-5.3185,-5.3185,-5.3185,-5.3185,-5.3185,-5.3185,-5.3185,-5.3185,-5.3185,-5.3185,-5.3185,-5.3185,-5.3185,-5.3185,-5.3185,-5.3185,-5.3185,-5.3185,-5.3185,-5.3185,-5.3185,-6.278,-6.278,-6.278,-6.278,-6.278,-6.278,-6.278,-6.278,-6.278,-6.278,-6.278,-6.278,-6.278,-6.278,-6.278,-6.278,-6.278,-6.278,-6.278,-6.278,-6.278,-6.278,-6.278,-6.2377,-6.1539,-6.0786,-5.9795,-5.8547,-5.818,-5.7997,-5.7997,-5.7997,-5.7997,-5.7997,-5.7997,-5.7997,-5.7997,-5.7997,-5.7997,-5.7997,-5.7997,-5.7997,-5.7997,-5.7997,-5.7997,-5.7997,-5.7997,-5.7997,-5.7997,-5.7997,-5.7997,-5.7997,-5.7997,-5.7997,-5.7997,-5.7997,-5.7997,-5.7997,-5.7997,-5.7997,-5.7997,-5.7997,-5.7997,-5.7997,-5.7997,-5.7997,-5.7997,-5.7997,-5.7997,-5.7997,-5.7997,-5.7997,-5.7997,-5.7997,-5.7997,-5.7997,-5.7997,-5.7997,-5.7703,-5.6914,-5.6418,-5.5684,-5.4509,-5.4014,-5.361,-5.3222,-5.3185,-5.3185,-5.3185,-5.3185,-5.3185,-5.3185,-5.3185,-5.3185,-5.3185,-5.3185,-5.3185,-5.3185,-5.3185,-5.3185,-5.3185,-5.3185,-5.3185,-5.3185,-5.3185,-5.3185,-5.3185,-5.3185,-5.3185,-5.3185,-5.3185,-5.3185,-5.3185,-5.3185,-5.3185,-5.3185,-6.278,-6.278,-6.278,-6.278,-6.278,-6.278,-6.278,-6.278,-6.278,-6.278,-6.278,-6.278,-6.278,-6.278,-6.278,-6.278,-6.278,-6.278,-6.278,-6.278,-6.278,-6.278,-6.278,-6.2053,-6.0438,-6.0401,-5.9612,-5.7997,-5.7997,-5.7997,-5.7997,-5.7997,-5.7997,-5.7997,-5.7997,-5.7997,-5.7997,-5.7997,-5.7997,-5.7997,-5.7997,-5.7997,-5.7997,-5.7997,-5.7997,-5.7997,-5.7997,-5.7997,-5.7997,-5.7997,-5.7997,-5.7997,-5.7997,-5.7997,-5.7997,-5.7997,-5.7997,-5.7997,-5.7997,-5.7997,-5.7997,-5.7997,-5.7997,-5.7997,-5.7997,-5.7997,-5.7997,-5.7997,-5.7997,-5.7997,-5.7997,-5.7997,-5.7997,-5.7997,-5.7997,-5.7997,-5.7997,-5.7997,-5.7629,-5.6638,-5.5978,-5.5207,-5.4216,-5.3573,-5.3185,-5.3185,-5.3185,-5.3185,-5.3185,-5.3185,-5.3185,-5.3185,-5.3185,-5.3185,-5.3185,-5.3185,-5.3185,-5.3185,-5.3185,-5.3185,-5.3185,-5.3185,-5.3185,-5.3185,-5.3185,-5.3185,-5.3185,-5.3185,-5.3185,-5.3185,-5.3185,-5.3185,-5.3185,-5.3185,-5.3185,-5.3185,-6.278,-6.278,-6.278,-6.278,-6.278,-6.278,-6.278,-6.278,-6.278,-6.278,-6.278,-6.278,-6.278,-6.278,-6.278,-6.278,-6.278,-6.278,-6.278,-6.278,-6.278,-6.278,-6.278,-6.2053,-6.0438,-6.0401,-5.9612,-5.7997,-5.7997,-5.7997,-5.7997,-5.7997,-5.7997,-5.7997,-5.7997,-5.7997,-5.7997,-5.7997,-5.7997,-5.7997,-5.7997,-5.7997,-5.7997,-5.7997,-5.7997,-5.7997,-5.7997,-5.7997,-5.7997,-5.7997,-5.7997,-5.7997,-5.7997,-5.7997,-5.7997,-5.7997,-5.7997,-5.7997,-5.7997,-5.7997,-5.7997,-5.7997,-5.7997,-5.7997,-5.7997,-5.7997,-5.7997,-5.7997,-5.7997,-5.7997,-5.7997,-5.7997,-5.7997,-5.7997,-5.7997,-5.7997,-5.7997,-5.7997,-5.7409,-5.5868,-5.5629,-5.4987,-5.3445,-5.3222,-5.3185,-5.3185,-5.3185,-5.3185,-5.3185,-5.3185,-5.3185,-5.3185,-5.3185,-5.3185,-5.3185,-5.3185,-5.3185,-5.3185,-5.3185,-5.3185,-5.3185,-5.3185,-5.3185,-5.3185,-5.3185,-5.3185,-5.3185,-5.3185,-5.3185,-5.3185,-5.3185,-5.3185,-5.3185,-5.3185,-5.3185,-5.3185,-6.278,-6.278,-6.278,-6.278,-6.278,-6.278,-6.278,-6.278,-6.278,-6.278,-6.278,-6.278,-6.278,-6.278,-6.278,-6.278,-6.278,-6.278,-6.278,-6.278,-6.278,-6.278,-6.278,-6.2291,-6.1172,-6.0658,-5.9869,-5.8749,-5.8235,-5.7997,-5.7997,-5.7997,-5.7997,-5.7997,-5.7997,-5.7997,-5.7997,-5.7997,-5.7997,-5.7997,-5.7997,-5.7997,-5.7997,-5.7997,-5.7997,-5.7997,-5.7997,-5.7997,-5.7997,-5.7997,-5.7997,-5.7997,-5.7997,-5.7997,-5.7997,-5.7997,-5.7997,-5.7997,-5.7997,-5.7997,-5.7997,-5.7997,-5.7997,-5.7997,-5.7997,-5.7997,-5.7997,-5.7997,-5.7997,-5.7997,-5.7997,-5.7997,-5.7997,-5.7997,-5.7997,-5.7997,-5.7997,-5.7997,-5.7391,-5.5798,-5.5614,-5.4968,-5.3371,-5.3185,-5.3185,-5.3185,-5.3185,-5.3185,-5.3185,-5.3185,-5.3185,-5.3185,-5.3185,-5.3185,-5.3185,-5.3185,-5.3185,-5.3185,-5.3185,-5.3185,-5.3185,-5.3185,-5.3185,-5.3185,-5.3185,-5.3185,-5.3185,-5.3185,-5.3185,-5.3185,-5.3185,-5.3185,-5.3185,-5.3185,-5.3185,-5.3185,-6.278,-6.278,-6.278,-6.278,-6.278,-6.278,-6.278,-6.278,-6.278,-6.278,-6.278,-6.278,-6.278,-6.278,-6.278,-6.278,-6.278,-6.278,-6.278,-6.278,-6.278,-6.278,-6.278,-6.242,-6.1612,-6.0805,-6.0015,-5.9184,-5.84,-5.7997,-5.7997,-5.7997,-5.7997,-5.7997,-5.7997,-5.7997,-5.7997,-5.7997,-5.7997,-5.7997,-5.7997,-5.7997,-5.7997,-5.7997,-5.7997,-5.7997,-5.7997,-5.7997,-5.7997,-5.7997,-5.7997,-5.7997,-5.7997,-5.7997,-5.7997,-5.7997,-5.7997,-5.7997,-5.7997,-5.7997,-5.7997,-5.7997,-5.7997,-5.7997,-5.7997,-5.7997,-5.7997,-5.7997,-5.7997,-5.7997,-5.7997,-5.7997,-5.7997,-5.7997,-5.7997,-5.7997,-5.7997,-5.7997,-5.7391,-5.5798,-5.5614,-5.4968,-5.3371,-5.3185,-5.3185,-5.3185,-5.3185,-5.3185,-5.3185,-5.3185,-5.3185,-5.3185,-5.3185,-5.3185,-5.3185,-5.3185,-5.3185,-5.3185,-5.3185,-5.3185,-5.3185,-5.3185,-5.3185,-5.3185,-5.3185,-5.3185,-5.3185,-5.3185,-5.3185,-5.3185,-5.3185,-5.3185,-5.3185,-5.3185,-5.3185,-5.3185,-6.278,-6.278,-6.278,-6.278,-6.278,-6.278,-6.278,-6.278,-6.278,-6.278,-6.278,-6.278,-6.278,-6.278,-6.278,-6.278,-6.278,-6.278,-6.278,-6.278,-6.278,-6.278,-6.278,-6.2438,-6.163,-6.0823,-6.0034,-5.9203,-5.84,-5.7997,-5.7997,-5.7997,-5.7997,-5.7997,-5.7997,-5.7997,-5.7997,-5.7997,-5.7997,-5.7997,-5.7997,-5.7997,-5.7997,-5.7997,-5.7997,-5.7997,-5.7997,-5.7997,-5.7997,-5.7997,-5.7997,-5.7997,-5.7997,-5.7997,-5.7997,-5.7997,-5.7997,-5.7997,-5.7997,-5.7997,-5.7997,-5.7997,-5.7997,-5.7997,-5.7997,-5.7997,-5.7997,-5.7997,-5.7997,-5.7997,-5.7997,-5.7997,-5.7997,-5.7997,-5.7997,-5.7997,-5.7997,-5.7997,-5.7409,-5.5794,-5.5614,-5.4968,-5.3371,-5.3185,-5.3185,-5.3185,-5.3185,-5.3185,-5.3185,-5.3185,-5.3185,-5.3185,-5.3185,-5.3185,-5.3185,-5.3185,-5.3185,-5.3185,-5.3185,-5.3185,-5.3185,-5.3185,-5.3185,-5.3185,-5.3185,-5.3185,-5.3185,-5.3185,-5.3185,-5.3185,-5.3185,-5.3185,-5.3185,-5.3185,-5.3185,-5.3185,-6.278,-6.278,-6.278,-6.278,-6.278,-6.278,-6.278,-6.278,-6.278,-6.278,-6.278,-6.278,-6.278,-6.278,-6.278,-6.278,-6.278,-6.278,-6.278,-6.278,-6.278,-6.278,-6.278,-6.2695,-6.2456,-6.1649,-6.086,-6.0052,-5.9245,-5.8547,-5.7997,-5.7997,-5.7997,-5.7997,-5.7997,-5.7997,-5.7997,-5.7997,-5.7997,-5.7997,-5.7997,-5.7997,-5.7997,-5.7997,-5.7997,-5.7997,-5.7997,-5.7997,-5.7997,-5.7997,-5.7997,-5.7997,-5.7997,-5.7997,-5.7997,-5.7997,-5.7997,-5.7997,-5.7997,-5.7997,-5.7997,-5.7997,-5.7997,-5.7997,-5.7997,-5.7997,-5.7997,-5.7997,-5.7997,-5.7997,-5.7997,-5.7997,-5.7997,-5.7997,-5.7997,-5.7997,-5.7997,-5.7997,-5.7611,-5.6565,-5.5941,-5.5188,-5.4142,-5.3537,-5.3185,-5.3185,-5.3185,-5.3185,-5.3185,-5.3185,-5.3185,-5.3185,-5.3185,-5.3185,-5.3185,-5.3185,-5.3185,-5.3185,-5.3185,-5.3185,-5.3185,-5.3185,-5.3185,-5.3185,-5.3185,-5.3185,-5.3185,-5.3185,-5.3185,-5.3185,-5.3185,-5.3185,-5.3185,-5.3185,-5.3185,-5.3185,-6.278,-6.278,-6.278,-6.278,-6.278,-6.278,-6.278,-6.278,-6.278,-6.278,-6.278,-6.278,-6.278,-6.278,-6.278,-6.278,-6.278,-6.278,-6.278,-6.278,-6.278,-6.278,-6.278,-6.278,-6.278,-6.2016,-6.1355,-6.0878,-5.9758,-5.8946,-5.8474,-5.8143,-5.7997,-5.7997,-5.7997,-5.7997,-5.7997,-5.7997,-5.7997,-5.7997,-5.7997,-5.7997,-5.7997,-5.7997,-5.7997,-5.7997,-5.7997,-5.7997,-5.7997,-5.7997,-5.7997,-5.7997,-5.7997,-5.7997,-5.7997,-5.7997,-5.7997,-5.7997,-5.7997,-5.7997,-5.7997,-5.7997,-5.7997,-5.7997,-5.7997,-5.7997,-5.7997,-5.7997,-5.7997,-5.7997,-5.7997,-5.7997,-5.7997,-5.7997,-5.7997,-5.7997,-5.7997,-5.7997,-5.7703,-5.6914,-5.6088,-5.5262,-5.4473,-5.3683,-5.3185,-5.3185,-5.3185,-5.3185,-5.3185,-5.3185,-5.3185,-5.3185,-5.3185,-5.3185,-5.3185,-5.3185,-5.3185,-5.3185,-5.3185,-5.3185,-5.3185,-5.3185,-5.3185,-5.3185,-5.3185,-5.3185,-5.3185,-5.3185,-5.3185,-5.3185,-5.3185,-5.3185,-5.3185,-5.3185,-5.3185,-5.3185,-6.278,-6.278,-6.278,-6.278,-6.278,-6.278,-6.278,-6.278,-6.278,-6.278,-6.278,-6.278,-6.278,-6.278,-6.278,-6.278,-6.278,-6.278,-6.278,-6.278,-6.278,-6.278,-6.278,-6.278,-6.278,-6.2089,-6.1667,-6.1594,-6.0144,-5.9368,-5.9276,-5.8565,-5.8217,-5.8217,-5.8143,-5.8107,-5.8107,-5.8033,-5.7997,-5.7997,-5.7997,-5.7997,-5.7997,-5.7997,-5.7997,-5.7997,-5.7997,-5.7997,-5.7997,-5.7997,-5.7997,-5.7997,-5.7997,-5.7997,-5.7997,-5.7997,-5.7997,-5.7997,-5.7997,-5.7997,-5.7997,-5.7997,-5.7997,-5.7997,-5.7997,-5.7997,-5.7997,-5.7997,-5.7997,-5.7997,-5.7997,-5.7997,-5.7997,-5.7997,-5.7997,-5.7997,-5.7997,-5.7997,-5.7721,-5.6987,-5.6198,-5.539,-5.4583,-5.372,-5.3185,-5.3185,-5.3185,-5.3185,-5.3185,-5.3185,-5.3185,-5.3185,-5.3185,-5.3185,-5.3185,-5.3185,-5.3185,-5.3185,-5.3185,-5.3185,-5.3185,-5.3185,-5.3185,-5.3185,-5.3185,-5.3185,-5.3185,-5.3185,-5.3185,-5.3185,-5.3185,-5.3185,-5.3185,-5.3185,-5.3185,-5.3185,-6.278,-6.278,-6.278,-6.278,-6.278,-6.278,-6.278,-6.278,-6.278,-6.278,-6.278,-6.278,-6.278,-6.278,-6.278,-6.278,-6.278,-6.278,-6.278,-6.278,-6.278,-6.278,-6.278,-6.278,-6.278,-6.264,-6.2236,-6.1594,-6.1245,-6.0768,-6.0144,-5.996,-5.9887,-5.985,-5.9226,-5.8927,-5.8914,-5.8272,-5.7997,-5.7997,-5.7997,-5.7997,-5.7997,-5.7997,-5.7997,-5.7997,-5.7997,-5.7997,-5.7997,-5.7997,-5.7997,-5.7997,-5.7997,-5.7997,-5.7997,-5.7997,-5.7997,-5.7997,-5.7997,-5.7997,-5.7997,-5.7997,-5.7997,-5.7997,-5.7997,-5.7997,-5.7997,-5.7997,-5.7997,-5.7997,-5.7997,-5.7997,-5.7997,-5.7997,-5.7997,-5.7997,-5.7997,-5.7997,-5.7941,-5.7758,-5.7024,-5.6216,-5.5409,-5.4051,-5.3185,-5.3185,-5.3185,-5.3185,-5.3185,-5.3185,-5.3185,-5.3185,-5.3185,-5.3185,-5.3185,-5.3185,-5.3185,-5.3185,-5.3185,-5.3185,-5.3185,-5.3185,-5.3185,-5.3185,-5.3185,-5.3185,-5.3185,-5.3185,-5.3185,-5.3185,-5.3185,-5.3185,-5.3185,-5.3185,-5.3185,-5.3185,-6.278,-6.278,-6.278,-6.278,-6.278,-6.278,-6.278,-6.278,-6.278,-6.278,-6.278,-6.278,-6.278,-6.278,-6.278,-6.278,-6.278,-6.278,-6.278,-6.278,-6.278,-6.278,-6.278,-6.278,-6.278,-6.278,-6.2603,-6.2181,-6.1796,-6.1374,-6.097,-6.0584,-6.0401,-6.0382,-5.996,-5.9777,-5.9722,-5.8914,-5.8584,-5.8547,-5.8143,-5.7997,-5.7997,-5.7997,-5.7997,-5.7997,-5.7997,-5.7997,-5.7997,-5.7997,-5.7997,-5.7997,-5.7997,-5.7997,-5.7997,-5.7997,-5.7997,-5.7997,-5.7997,-5.7997,-5.7997,-5.7997,-5.7997,-5.7997,-5.7997,-5.7997,-5.7997,-5.7997,-5.7997,-5.7997,-5.7997,-5.7997,-5.7997,-5.7997,-5.7997,-5.7997,-5.7997,-5.7997,-5.7997,-5.7997,-5.7299,-5.6326,-5.5133,-5.3922,-5.3185,-5.3185,-5.3185,-5.3185,-5.3185,-5.3185,-5.3185,-5.3185,-5.3185,-5.3185,-5.3185,-5.3185,-5.3185,-5.3185,-5.3185,-5.3185,-5.3185,-5.3185,-5.3185,-5.3185,-5.3185,-5.3185,-5.3185,-5.3185,-5.3185,-5.3185,-5.3185,-5.3185,-5.3185,-5.3185,-5.3185,-5.3185,-6.278,-6.278,-6.278,-6.278,-6.278,-6.278,-6.278,-6.278,-6.278,-6.278,-6.278,-6.278,-6.278,-6.278,-6.278,-6.278,-6.278,-6.278,-6.278,-6.278,-6.278,-6.278,-6.278,-6.278,-6.278,-6.278,-6.278,-6.278,-6.2126,-6.1814,-6.1796,-6.1117,-6.0823,-6.0805,-6.0676,-6.0621,-6.0548,-5.9758,-5.9313,-5.9129,-5.8474,-5.8125,-5.7997,-5.7997,-5.7997,-5.7997,-5.7997,-5.7997,-5.7997,-5.7997,-5.7997,-5.7997,-5.7997,-5.7997,-5.7997,-5.7997,-5.7997,-5.7997,-5.7997,-5.7997,-5.7997,-5.7997,-5.7997,-5.7997,-5.7997,-5.7997,-5.7997,-5.7997,-5.7997,-5.7997,-5.7997,-5.7997,-5.7997,-5.7997,-5.7997,-5.7997,-5.7997,-5.7997,-5.7997,-5.7997,-5.7171,-5.6069,-5.473,-5.3757,-5.3185,-5.3185,-5.3185,-5.3185,-5.3185,-5.3185,-5.3185,-5.3185,-5.3185,-5.3185,-5.3185,-5.3185,-5.3185,-5.3185,-5.3185,-5.3185,-5.3185,-5.3185,-5.3185,-5.3185,-5.3185,-5.3185,-5.3185,-5.3185,-5.3185,-5.3185,-5.3185,-5.3185,-5.3185,-5.3185,-5.3185,-5.3185,-6.278,-6.278,-6.278,-6.278,-6.278,-6.278,-6.278,-6.278,-6.278,-6.278,-6.278,-6.278,-6.278,-6.278,-6.278,-6.278,-6.278,-6.278,-6.278,-6.278,-6.278,-6.278,-6.278,-6.278,-6.278,-6.278,-6.278,-6.278,-6.2695,-6.2658,-6.2658,-6.2523,-6.2468,-6.2432,-6.1759,-6.1429,-6.1374,-6.0584,-5.985,-5.9184,-5.9074,-5.8621,-5.7997,-5.7997,-5.7997,-5.7997,-5.7997,-5.7997,-5.7997,-5.7997,-5.7997,-5.7997,-5.7997,-5.7997,-5.7997,-5.7997,-5.7997,-5.7997,-5.7997,-5.7997,-5.7997,-5.7997,-5.7997,-5.7997,-5.7997,-5.7997,-5.7997,-5.7997,-5.7997,-5.7997,-5.7997,-5.7997,-5.7997,-5.7997,-5.7997,-5.7997,-5.7997,-5.7997,-5.7997,-5.7997,-5.6675,-5.5666,-5.5467,-5.4087,-5.3185,-5.3185,-5.3185,-5.3185,-5.3185,-5.3185,-5.3185,-5.3185,-5.3185,-5.3185,-5.3185,-5.3185,-5.3185,-5.3185,-5.3185,-5.3185,-5.3185,-5.3185,-5.3185,-5.3185,-5.3185,-5.3185,-5.3185,-5.3185,-5.3185,-5.3185,-5.3185,-5.3185,-5.3185,-5.3185,-5.3185,-5.3185,-6.278,-6.278,-6.278,-6.278,-6.278,-6.278,-6.278,-6.278,-6.278,-6.278,-6.278,-6.278,-6.278,-6.278,-6.278,-6.278,-6.278,-6.278,-6.278,-6.278,-6.278,-6.278,-6.278,-6.278,-6.278,-6.278,-6.278,-6.278,-6.278,-6.278,-6.278,-6.278,-6.278,-6.2762,-6.2438,-6.2273,-6.2218,-6.141,-6.0878,-6.0456,-5.9551,-5.8982,-5.8621,-5.8162,-5.7997,-5.7997,-5.7997,-5.7997,-5.7997,-5.7997,-5.7997,-5.7997,-5.7997,-5.7997,-5.7997,-5.7997,-5.7997,-5.7997,-5.7997,-5.7997,-5.7997,-5.7997,-5.7997,-5.7997,-5.7997,-5.7997,-5.7997,-5.7997,-5.7997,-5.7997,-5.7997,-5.7997,-5.7997,-5.7997,-5.7997,-5.7997,-5.7997,-5.7997,-5.7997,-5.7997,-5.6969,-5.6088,-5.5629,-5.4546,-5.3683,-5.3222,-5.3185,-5.3185,-5.3185,-5.3185,-5.3185,-5.3185,-5.3185,-5.3185,-5.3185,-5.3185,-5.3185,-5.3185,-5.3185,-5.3185,-5.3185,-5.3185,-5.3185,-5.3185,-5.3185,-5.3185,-5.3185,-5.3185,-5.3185,-5.3185,-5.3185,-5.3185,-5.3185,-5.3185,-5.3185,-5.3185]},{"header":{"parameterUnit":"m.s-1","parameterCategory":1,"la1":30.6,"la2":28.766,"lo1":-90.7593,"lo2":-88.6598,"dy":0.0162,"dx":0.0183,"nx":116,"ny":114,"refTime":"2024-05-03T06:00:00:Z","depth":0,"parameterNumber":3,"parameterNumberName":"V-component_of_WINDS"},"data":[0.0,0.0,0.0,0.0,0.0,0.0,0.0,0.0,0.0,0.0,0.0,0.0,0.0,0.0,0.0,0.0,0.0,0.0,0.0,0.0,0.0,0.0,0.0,0.0,0.0,0.0,0.0,0.0,0.0,0.0,0.0,0.0,0.0,0.0,0.0,0.0,0.0,0.0,0.0,0.0,0.0,0.0,0.0,0.0,0.0,0.0,0.0,0.0,0.0,0.0,0.0,0.0,0.0,0.0,0.0,0.0,0.0,0.0,0.0,0.0,0.0,0.0,0.0,0.0,0.0,0.0,0.0,0.0,0.0,0.0,0.0,0.0,0.0,0.0,0.0,0.0,0.0,0.0,0.0,0.0,0.0,0.0,0.0,0.0,0.0,0.0,0.0,0.0,0.0,0.0,0.0,0.0,0.0,0.0,0.0,0.0,0.0,0.0,0.0,0.0,0.0,0.0,0.0,0.0,0.0,0.0,0.0,0.0,0.0,0.0,0.0,0.0,0.0,0.0,0.0,0.0,0.0,0.0,0.0,0.0,0.0,0.0,0.0,0.0,0.0,0.0,0.0,0.0,0.0,0.0,0.0,0.0,0.0,0.0,0.0,0.0,0.0,0.0,0.0,0.0,0.0,0.0,0.0,0.0,0.0,0.0,0.0,0.0,0.0,0.0,0.0,0.0,0.0,0.0,0.0,0.0,0.0,0.0,0.0,0.0,0.0,0.0,0.0,0.0,0.0,0.0,0.0,0.0,0.0,0.0,0.0,0.0,0.0,0.0,0.0,0.0,0.0,0.0,0.0,0.0,0.0,0.0,0.0,0.0,0.0,0.0,0.0,0.0,0.0,0.0,0.0,0.0,0.0,0.0,0.0,0.0,0.0,0.0,0.0,0.0,0.0,0.0,0.0,0.0,0.0,0.0,0.0,0.0,0.0,0.0,0.0,0.0,0.0,0.0,0.0,0.0,0.0,0.0,0.0,0.0,0.0,0.0,0.0,0.0,0.0,0.0,0.0,0.0,0.0,0.0,0.0,0.0,0.0,0.0,0.0,0.0,0.0,0.0,0.0,0.0,0.0,0.0,0.0,0.0,0.0,0.0,0.0,0.0,0.0,0.0,0.0,0.0,0.0,0.0,0.0,0.0,0.0,0.0,0.0,0.0,0.0,0.0,0.0,0.0,0.0,0.0,0.0,0.0,0.0,0.0,0.0,0.0,0.0,0.0,0.0,0.0,0.0,0.0,0.0,0.0,0.0,0.0,0.0,0.0,0.0,0.0,0.0,0.0,0.0,0.0,0.0,0.0,0.0,0.0,0.0,0.0,0.0,0.0,0.0,0.0,0.0,0.0,0.0,0.0,0.0,0.0,0.0,0.0,0.0,0.0,0.0,0.0,0.0,0.0,0.0,0.0,0.0,0.0,0.0,0.0,0.0,0.0,0.0,0.0,0.0,0.0,0.0,0.0,0.0,0.0,0.0,0.0,0.0,0.0,0.0,0.0,0.0,0.0,0.0,0.0,0.0,0.0,0.0,0.0,0.0,0.0,0.0,0.0,0.0,0.0,0.0,0.0,0.0,0.0,0.0,0.0,0.0,0.0,0.0,0.0,0.0,0.0,0.0,0.0,0.0,0.0,0.0,0.0,0.0,0.0,0.0,0.0,0.0,0.0,0.0,0.0,0.0,0.0,0.0,0.0,0.0,0.0,0.0,0.0,0.0,0.0,0.0,0.0,0.0,0.0,0.0,0.0,0.0,0.0,0.0,0.0,0.0,0.0,0.0,0.0,0.0,0.0,0.0,0.0,0.0,0.0,0.0,0.0,0.0,0.0,0.0,0.0,0.0,0.0,0.0,0.0,0.0,0.0,0.0,0.0,0.0,0.0,0.0,0.0,0.0,0.0,0.0,0.0,0.0,0.0,0.0,0.0,0.0,0.0,0.0,0.0,0.0,0.0,0.0,0.0,0.0,0.0,0.0,0.0,0.0,0.0,0.0,0.0,0.0,0.0,0.0,0.0,0.0,0.0,0.0,0.0,0.0,0.0,0.0,0.0,0.0,0.0,0.0,0.0,0.0,0.0,0.0,0.0,0.0,0.0,0.0,0.0,0.0,0.0,0.0,0.0,0.0,0.0,0.0,0.0,0.0,0.0,0.0,0.0,0.0,0.0,0.0,0.0,0.0,0.0,0.0,0.0,0.0,0.0,0.0,0.0,0.0,0.0,0.0,0.0,0.0,0.0,0.0,0.0,0.0,0.0,0.0,0.0,0.0,0.0,0.0,0.0,0.0,0.0,0.0,0.0,0.0,0.0,0.0,0.0,0.0,0.0,0.0,0.0,0.0,0.0,0.0,0.0,0.0,0.0,0.0,0.0,0.0,0.0,0.0,0.0,0.0,0.0,0.0,0.0,0.0,0.0,0.0,0.0,0.0,0.0,0.0,0.0,0.0,0.0,0.0,0.0,0.0,0.0,0.0,0.0,0.0,0.0,0.0,0.0,0.0,0.0,0.0,0.0,0.0,0.0,0.0,0.0,0.0,0.0,0.0,0.0,0.0,0.0,0.0,0.0,0.0,0.0,0.0,0.0,0.0,0.0,0.0,0.0,0.0,0.0,0.0,0.0,0.0,0.0,0.0,0.0,0.0,0.0,0.0,0.0,0.0,0.0,0.0,0.0,0.0,0.0,0.0,0.0,0.0,0.0,0.0,0.0,0.0,0.0,0.0,0.0,0.0,0.0,0.0,0.0,0.0,0.0,0.0,0.0,0.0,0.0,0.0,0.0,0.0,0.0,0.0,0.0,0.0,0.0,0.0,0.0,0.0,0.0,0.0,0.0,0.0,0.0,0.0,0.0,0.0,0.0,0.0,0.0,0.0,0.0,0.0,0.0,0.0,0.0,0.0,0.0,0.0,0.0,0.0,0.0,0.0,0.0,0.0,0.0,0.0,0.0,0.0,0.0,0.0,0.0,0.0,0.0,0.0,0.0,0.0,0.0,0.0,0.0,0.0,0.0,0.0,0.0,0.0,0.0,0.0,0.0,0.0,0.0,0.0,0.0,0.0,0.0,0.0,0.0,0.0,0.0,0.0,0.0,0.0,0.0,0.0,0.0,0.0,0.0,0.0,0.0,0.0,0.0,0.0,0.0,0.0,0.0,0.0,0.0,0.0,0.0,0.0,0.0,0.0,0.0,0.0,0.0,0.0,0.0,0.0,0.0,0.0,0.0,0.0,0.0,0.0,0.0,0.0,0.0,0.0,0.0,0.0,0.0,0.0,0.0,0.0,0.0,0.0,0.0,0.0,0.0,0.0,0.0,0.0,0.0,0.0,0.0,0.0,0.0,0.0,0.0,0.0,0.0,0.0,0.0,0.0,0.0,0.0,0.0,0.0,0.0,0.0,0.0,0.0,0.0,0.0,0.0,0.0,0.0,0.0,0.0,0.0,0.0,0.0,0.0,0.0,0.0,0.0,0.0,0.0,0.0,0.0,0.0,0.0,0.0,0.0,0.0,0.0,0.0,0.0,0.0,0.0,0.0,0.0,0.0,0.0,0.0,0.0,0.0,0.0,0.0,0.0,0.0,0.0,0.0,0.0,0.0,0.0,0.0,0.0,0.0,0.0,0.0,0.0,0.0,0.0,0.0,0.0,0.0,0.0,0.0,0.0,0.0,0.0,0.0,0.0,0.0,0.0,0.0,0.0,0.0,0.0,0.0,0.0,0.0,0.0,0.0,0.0,0.0,0.0,0.0,0.0,0.0,0.0,0.0,0.0,0.0,0.0,0.0,0.0,0.0,0.0,0.0,0.0,0.0,0.0,0.0,0.0,0.0,0.0,0.0,0.0,0.0,0.0,0.0,0.0,0.0,0.0,0.0,0.0,0.0,0.0,0.0,0.0,0.0,0.0,0.0,0.0,0.0,0.0,0.0,0.0,0.0,0.0,0.0,0.0,0.0,0.0,0.0,0.0,0.0,0.0,0.0,0.0,0.0,0.0,0.0,0.0,0.0,0.0,0.0,0.0,0.0,0.0,0.0,0.0,0.0,0.0,0.0,0.0,0.0,0.0,0.0,0.0,0.0,0.0,0.0,0.0,0.0,0.0,0.0,0.0,0.0,0.0,0.0,0.0,0.0,0.0,0.0,0.0,0.0,0.0,0.0,0.0,0.0,0.0,0.0,0.0,0.0,0.0,0.0,0.0,0.0,0.0,0.0,0.0,0.0,0.0,0.0,0.0,0.0,0.0,0.0,0.0,0.0,0.0,0.0,0.0,0.0,0.0,0.0,0.0,0.0,0.0,0.0,0.0,0.0,0.0,0.0,0.0,0.0,0.0,0.0,0.0,0.0,0.0,0.0,0.0,0.0,0.0,0.0,0.0,0.0,0.0,0.0,0.0,0.0,0.0,0.0,0.0,0.0,0.0,0.0,0.0,0.0,0.0,0.0,0.0,0.0,0.0,0.0,0.0,0.0,0.0,0.0,0.0,0.0,0.0,0.0,0.0,0.0,0.0,0.0,0.0,0.0,0.0,0.0,0.0,0.0,0.0,0.0,0.0,0.0,0.0,0.0,0.0,0.0,0.0,0.0,0.0,0.0,0.0,0.0,0.0,0.0,0.0,0.0,0.0,0.0,0.0,0.0,0.0,0.0,0.0,0.0,0.0,0.0,0.0,0.0,0.0,0.0,0.0,0.0,0.0,0.0,0.0,0.0,0.0,0.0,0.0,0.0,0.0,0.0,0.0,0.0,0.0,0.0,0.0,0.0,0.0,0.0,0.0,0.0,0.0,0.0,0.0,0.0,0.0,0.0,0.0,0.0,0.0,0.0,0.0,0.0,0.0,0.0,0.0,0.0,0.0,0.0,0.0,0.0,0.0,0.0,0.0,0.0,0.0,0.0,0.0,0.0,0.0,0.0,0.0,0.0,0.0,0.0,0.0,0.0,0.0,0.0,0.0,0.0,0.0,0.0,0.0,0.0,0.0,0.0,0.0,0.0,0.0,0.0,0.0,0.0,0.0,0.0,0.0,0.0,0.0,0.0,0.0,0.0,0.0,0.0,0.0,0.0,0.0,0.0,0.0,0.0,0.0,0.0,0.0,0.0,0.0,0.0,0.0,0.0,0.0,0.0,0.0,0.0,0.0,0.0,0.0,0.0,0.0,0.0,0.0,0.0,0.0,0.0,0.0,0.0,0.0,0.0,0.0,0.0,0.0,0.0,0.0,0.0,0.0,0.0,0.0,0.0,0.0,0.0,0.0,0.0,0.0,0.0,0.0,0.0,0.0,0.0,0.0,0.0,0.0,0.0,0.0,0.0,0.0,0.0,0.0,0.0,0.0,0.0,0.0,0.0,0.0,0.0,0.0,0.0,0.0,0.0,0.0,0.0,0.0,0.0,0.0,0.0,0.0,0.0,0.0,0.0,0.0,0.0,0.0,0.0,0.0,0.0,0.0,0.0,0.0,0.0,0.0,0.0,0.0,0.0,0.0,0.0,0.0,0.0,0.0,0.0,0.0,0.0,0.0,0.0,0.0,0.0,0.0,0.0,0.0,0.0,0.0,0.0,0.0,0.0,0.0,0.0,0.0,0.0,0.0,0.0,0.0,0.0,0.0,0.0,0.0,0.0,0.0,0.0,0.0,0.0,0.0,0.0,0.0,0.0,0.0,0.0,0.0,0.0,0.0,0.0,0.0,0.0,0.0,0.0,0.0,0.0,0.0,0.0,0.0,0.0,0.0,0.0,0.0,0.0,0.0,0.0,0.0,0.0,0.0,0.0,0.0,0.0,0.0,0.0,0.0,0.0,0.0,0.0,0.0,0.0,0.0,0.0,0.0,0.0,0.0,0.0,0.0,0.0,0.0,0.0,0.0,0.0,0.0,0.0,0.0,0.0,0.0,0.0,0.0,0.0,0.0,0.0,0.0,0.0,0.0,0.0,0.0,0.0,0.0,0.0,0.0,0.0,0.0,0.0,0.0,0.0,0.0,0.0,0.0,0.0,0.0,0.0,0.0,0.0,0.0,0.0,0.0,0.0,0.0,0.0,0.0,0.0,0.0,0.0,0.0,0.0,0.0,0.0,0.0,0.0,0.0,0.0,0.0,0.0,0.0,0.0,0.0,0.0,0.0,0.0,0.0,0.0,0.0,0.0,0.0,0.0,0.0,0.0,0.0,0.0,0.0,0.0,0.0,0.0,0.0,0.0,0.0,0.0,0.0,0.0,0.0,0.0,0.0,0.0,0.0,0.0,0.0,0.0362,0.0649,0.0788,0.1352,0.1772,0.1914,0.0,0.0,0.0,0.0,0.0,0.2223,0.2209,0.2202,0.2202,0.2202,0.1995,0.1651,0.1445,0.097,0.0281,0.0,0.0,0.0,0.0,0.0,0.0,0.0,0.0,0.0,0.0,0.0,0.0,0.0,0.0,0.0,0.0,0.0,0.0,0.0,0.0,0.0,0.0,0.0,0.0,0.0,0.0,0.0,0.0,0.0,0.0,0.0,0.0,0.0,0.0,0.0,0.0,0.0,0.0,0.0,0.0,0.0,0.0,0.0,0.0,0.0,0.0,0.0,0.0,0.0,0.0,0.0,0.0,0.0,0.0,0.0,0.0,0.0,0.0,0.0,0.0,0.0,0.0,0.0,0.0,0.0,0.0,0.0,0.0,0.0,0.0,0.0,0.0,0.0,0.0,0.0,0.0,0.0,0.0,0.0,0.0,0.0,0.0,0.0,0.0,0.0,0.0,0.0,0.0,0.0,0.0,0.0,0.0,0.0,0.0,0.0,0.0357,0.071,0.1053,0.154,0.1888,0.2167,0.2232,0.0,0.0,0.2206,0.2192,0.2192,0.2168,0.2222,0.2222,0.2222,0.202,0.1616,0.1683,0.1363,0.0696,0.0908,0.0,0.0,0.0,0.0,0.0,0.0,0.0,0.0,0.0,0.0,0.0,0.0,0.0,0.0,0.0,0.0,0.0,0.0,0.0,0.0,0.0,0.0,0.0,0.0,0.0,0.0,0.0,0.0,0.0,0.0,0.0,0.0,0.0,0.0,0.0,0.0,0.0,0.0,0.0,0.0,0.0,0.0,0.0,0.0,0.0,0.0,0.0,0.0,0.0,0.0,0.0,0.0,0.0,0.0,0.0,0.0,0.0,0.0,0.0,0.0,0.0,0.0,0.0,0.0459,0.0305,0.0,0.0,0.0,0.0,0.0,0.0,0.0,0.0,0.0,0.0,0.0,0.0,0.0,0.0,0.0,0.0,0.0,0.0,0.0,0.0,0.0,0.0,0.0,0.0,0.0,0.0,0.0,0.0,0.0,0.0633,0.1054,0.1122,0.1735,0.2137,0.2206,0.2181,0.2166,0.2166,0.223,0.2228,0.2228,0.2224,0.2222,0.2222,0.2222,0.202,0.1616,0.1953,0.1889,0.1422,0.0822,0.0413,0.0069,0.0,0.0,0.0,0.0,0.0,0.0,0.0,0.0,0.0,0.0,0.0,0.0,0.0,0.0,0.0,0.0,0.0,0.0,0.0,0.0,0.0,0.0,0.0,0.0,0.0,0.0,0.0,0.0,0.0,0.0,0.0,0.0,0.0,0.0,0.0,0.0,0.0,0.0,0.0,0.0,0.0,1.2347,1.196,0.0,0.0,0.0,0.0,0.0,0.0,0.0,0.0,0.0,0.0,0.0,0.0,0.0,0.853,0.6889,0.6878,0.5233,0.2189,0.2186,0.1405,0.0,0.0,0.0,0.0,0.0,0.0,0.0,0.0,0.0,0.0,0.0,0.0,0.0,0.0,0.0,0.0,0.0,0.0,0.0,0.0,0.0,0.0,0.0,0.0,0.0,0.0,0.0,0.0,0.0,0.0485,0.076,0.0755,0.1295,0.163,0.1835,0.1891,0.1953,0.2222,0.2222,0.2222,0.2222,0.2222,0.2222,0.2222,0.2222,0.2087,0.1953,0.1885,0.175,0.1549,0.1084,0.0883,0.0883,0.1163,0.0,0.0,0.0,0.0,0.0,0.0,0.0,0.0,0.0,0.0,0.0,0.0,0.0,0.0,0.0,0.0,0.0,0.0,0.0,0.0,0.0,0.0,0.0,0.0,0.0,0.0,0.0,0.0,0.0,0.0,0.0,0.0,0.0,0.0,0.0,0.0,0.0,0.0,0.0,1.2501,1.2424,1.2269,1.2269,1.2114,0.0,0.0,0.0,0.0,0.0,0.0,0.0,0.0,0.0,0.9826,0.9824,0.9053,0.7362,0.7362,0.5676,0.2381,0.2381,0.1537,0.0,0.0,0.0,0.0,0.0,0.0,0.0,0.0,0.0,0.0,0.0,0.0,0.0,0.0,0.0,0.0,0.0,0.0,0.0,0.0,0.0,0.0,0.0,0.0,0.0,0.0,0.0,0.0,0.0,0.0274,0.0478,0.0472,0.0942,0.1346,0.1616,0.1683,0.1885,0.2155,0.2222,0.2222,0.2222,0.2222,0.2222,0.2222,0.2222,0.2222,0.2222,0.1885,0.175,0.175,0.1481,0.1414,0.1481,0.1818,0.1818,0.1616,0.0,0.0,0.0,0.0,0.0,0.0,0.0,0.0,0.0,0.0,0.0,0.0,0.0,0.0,0.0,0.0,0.0,0.0,0.0,0.0,0.0,0.0,0.0,0.0,0.0,0.0,0.0,0.0,0.0,0.0,0.0,0.0,0.0,0.0,0.0,0.0,0.0,1.2501,1.2488,1.2454,1.2447,1.2353,0.0,0.0,0.0,0.0,0.0,0.0,0.9799,0.9794,0.9756,0.9671,0.9669,0.9135,0.7847,0.7847,0.6414,0.3551,0.3098,0.2117,0.0605,0.0151,0.0,0.0,0.0,0.0,0.0,0.0,0.0,0.0,0.0,0.0,0.0,0.0,0.0,0.0,0.0,0.0,0.0,0.0,0.0,0.0,0.0,0.0,0.0,0.0,0.0,0.0,0.0,0.0273,0.0478,0.0472,0.1144,0.1548,0.1616,0.1953,0.2155,0.2222,0.2222,0.2222,0.2222,0.2222,0.2222,0.2222,0.2222,0.2222,0.2222,0.2155,0.2155,0.2155,0.2155,0.175,0.1144,0.1144,0.1346,0.1616,0.1616,0.0,0.0,0.0,0.0,0.0,0.0,0.0,0.0,0.0,0.0,0.0,0.0,0.0,0.0,0.0,0.0,0.0,0.0,0.0,0.0,0.0,0.0,0.0,0.0,0.0,0.0,0.0,0.0,0.0,0.0,0.0,0.0,0.0,0.0,0.0,0.0,0.0,0.0,1.2318,1.2301,0.0,0.0,0.0,0.0,1.0886,1.0433,1.0058,0.9755,0.9677,0.9674,0.9669,0.9669,0.9669,0.9594,0.9594,0.8682,0.6941,0.5434,0.3777,0.2117,0.0681,0.0,0.0,0.0,0.0,0.0,0.0,0.0,0.0,0.0,0.0,0.0,0.0,0.0,0.0,0.0,0.0,0.0,0.0,0.0,0.0,0.0,0.0,0.0,0.0,0.0,0.0,0.0,0.0137,0.0274,0.0478,0.0744,0.1077,0.1548,0.175,0.1953,0.2222,0.2222,0.2222,0.2222,0.2222,0.2222,0.2222,0.2222,0.2222,0.2222,0.2222,0.2222,0.2222,0.2222,0.2087,0.1818,0.1818,0.1885,0.1953,0.1953,0.2087,0.0,0.0,0.0,0.0,0.0,0.0,0.0,0.0,0.0,0.0,0.0,0.0,0.0,0.0,0.0,0.0,0.0,0.0,0.0,0.0,0.0,0.0,0.0,0.0,0.0,0.0,0.0,0.0,0.0,0.0,0.0,0.0,0.0,0.0,0.0,0.0,0.0,1.2294,1.2203,0.0,1.2067,1.1463,1.1014,1.094,1.0269,0.9783,0.9555,0.9552,0.9516,0.9435,0.9435,0.9435,0.9435,0.9435,0.8621,0.7072,0.6485,0.538,0.3763,0.2214,0.1477,0.1403,0.0444,0.0,0.0,0.0,0.0,0.0,0.0,0.0,0.0,0.0,0.0,0.0073,0.0,0.0,0.0,0.0,0.0,0.0,0.0,0.0,0.0,0.0,0.0,0.0,0.0,0.0,0.007,0.0346,0.0547,0.0881,0.1424,0.1687,0.1953,0.2155,0.2222,0.2222,0.2222,0.2222,0.2222,0.2222,0.2222,0.2222,0.2222,0.2087,0.202,0.202,0.1885,0.1818,0.1818,0.1818,0.1953,0.2222,0.2222,0.2222,0.2222,0.0,0.0,0.0,0.0,0.0,0.0,0.0,0.0,0.0,0.0,0.0,0.0,0.0,0.0,0.0,0.0,0.0,0.0,0.0,0.0,0.0,0.0,0.0,0.0,0.0,0.0,0.0,0.0,0.0,0.0,0.0,0.0,0.0,0.0,1.2305,1.2193,1.2142,1.2043,1.1965,1.1918,1.1321,1.0878,1.0801,1.0139,0.9659,0.943,0.9424,0.9389,0.9307,0.9304,0.9304,0.9304,0.9304,0.8794,0.7776,0.727,0.6471,0.5383,0.3275,0.2329,0.2184,0.0656,0.0,0.0,0.0,0.0073,0.0219,0.0073,0.0,0.0,0.0146,0.0219,0.0292,0.0,0.0,0.0,0.0,0.0,0.0,0.0,0.0,0.0,0.0,0.0,0.0,0.0,0.0,0.0,0.0,0.0693,0.11,0.11,0.1765,0.2223,0.2222,0.2222,0.2222,0.2222,0.2222,0.2222,0.2155,0.2155,0.2155,0.2155,0.175,0.1616,0.1548,0.1212,0.1077,0.1077,0.1077,0.1481,0.2156,0.2155,0.2155,0.2156,0.0,0.0,0.0,0.0,0.0,0.0,0.0,0.0,0.0,0.0,0.0,0.0,0.0,0.0,0.0,0.0,0.0,0.0,0.0,0.0,0.0,0.0,0.0,0.0,0.0,0.0,0.0,0.0,0.0,0.0,0.0,0.0,0.0,1.2284,1.2152,1.1999,1.1847,1.1826,1.1772,1.1633,1.126,1.0825,1.0527,1.0098,0.974,0.931,0.9313,0.9315,0.9315,0.9315,0.9315,0.9315,0.9315,0.9315,0.9315,0.7786,0.7055,0.6982,0.3855,0.2475,0.2329,0.0729,0.0073,0.0073,0.0,0.0219,0.0584,0.0146,0.0,0.0073,0.0511,0.0657,0.0657,-0.0073,0.0,0.0,0.0,0.0,0.0,0.0,0.0,0.0,0.0,0.0,0.0,0.0,0.0,0.0071,0.0356,0.0844,0.1181,0.1444,0.1918,0.2178,0.2223,0.2222,0.2222,0.2222,0.2222,0.2087,0.175,0.175,0.1616,0.1414,0.1279,0.1212,0.1212,0.1144,0.1077,0.1077,0.1077,0.1219,0.1434,0.142,0.1558,0.1846,0.0,0.0,0.0,0.0,0.0,0.0,0.0,0.0,0.0,0.0,0.0,0.0,0.0,0.0,0.0,0.0,0.0,0.0,0.0,0.0,0.0,0.0,0.0,0.0,0.0,0.0,0.0,0.0,0.0,0.0,0.0,1.2104,1.1996,1.2108,1.1993,1.1877,1.1837,1.1742,1.166,1.1623,1.1038,1.0603,1.0527,0.9966,0.9581,0.9435,0.9519,0.9571,0.9571,0.9571,0.9571,0.9571,0.9571,0.9571,0.9568,0.9034,0.8846,0.877,0.6643,0.5742,0.5525,0.2838,0.1675,0.1602,0.0802,0.0511,0.0584,0.0511,0.0584,0.0876,0.1022,0.124,0.1458,0.0,0.0,0.0,0.0,0.0,0.0,0.0,0.0,0.0,0.0,0.0,0.0,0.0,0.0,0.0072,0.0289,0.078,0.1189,0.1387,0.1724,0.1854,0.1713,0.1918,0.1918,0.1713,0.1918,0.1781,0.137,0.137,0.1302,0.1096,0.0959,0.0822,0.0822,0.0685,0.0616,0.0616,0.0616,0.0619,0.0623,0.0824,0.1239,0.1733,0.1872,0.2021,0.2179,0.228,0.2291,0.2581,0.4132,0.0,0.0,0.0,0.0,0.0,0.0,0.0,0.0,0.0,0.0,0.0,0.0,0.0,0.0,0.0,0.0,0.0,0.0,0.0,0.0,0.0,0.0,0.0,0.0,1.1948,1.184,1.1874,1.1799,1.1742,1.1742,1.167,1.1643,1.1701,1.1194,1.0784,1.0697,1.0187,0.9785,0.9563,0.9631,0.9669,0.9669,0.9669,0.9669,0.9669,0.9669,0.9669,0.9669,0.9598,0.9536,0.941,0.7794,0.709,0.6833,0.3855,0.2548,0.2475,0.1313,0.0949,0.1094,0.0,0.0,0.0,0.0,0.1677,0.2041,0.0,0.0,0.0,0.0,0.0,0.0,0.0,0.0,0.0,0.0,0.0,0.0,0.0,0.0,0.0,0.0,0.0714,0.1127,0.1195,0.1389,0.1385,0.1122,0.1473,0.1473,0.1122,0.1473,0.1403,0.1052,0.1052,0.0982,0.0982,0.0631,0.0421,0.042,0.014,0.0,0.0,0.0,0.0,0.007,0.0492,0.1055,0.1688,0.2039,0.2182,0.2188,0.2286,0.2296,0.2515,0.4134,0.0,0.0,0.0,0.0,0.0,0.0,0.0,0.0,0.0,0.0,0.0,0.0,0.0,0.0,0.0,0.0,0.0,0.0,0.0,0.0,0.0,0.0,0.0,0.0,1.1816,1.1765,1.1636,1.1633,1.1636,1.1619,1.1633,1.1694,1.182,1.148,1.1251,1.1008,1.058,1.0139,0.9838,0.9777,0.0,0.0,0.0,0.9709,0.9709,0.9709,0.9709,0.9709,0.9696,0.9631,0.9451,0.8162,0.7439,0.7212,0.4585,0.342,0.313,0.1968,0.1677,0.1822,0.1459,0.1313,0.1386,0.1747,0.2037,0.2328,0.0,0.0,0.0,0.0,0.0,0.0,0.0,0.0,0.0,0.0,0.0,0.0,0.0,0.0,0.0,0.0,0.0726,0.1298,0.157,0.1338,0.1189,0.1122,0.1193,0.1193,0.1122,0.1193,0.1052,0.0631,0.0631,0.0491,0.021,0.014,0.007,0.0069,0.0,0.0,0.0,0.0,0.0,0.007,0.0781,0.1141,0.1355,0.1711,0.2081,0.2317,0.2322,0.2324,0.2543,0.4146,0.5742,0.7259,0.8781,1.038,0.0,0.0,0.0,0.0,0.0,0.0,0.0,0.0,0.0,0.0,0.0,0.0,0.0,0.0,0.0,0.0,0.0,0.0,0.0,1.184,1.1735,1.165,1.1623,1.1718,1.1748,1.1633,1.1721,1.1799,1.1826,1.1575,1.1434,1.1388,1.0812,1.0413,1.0337,1.0053,0.9954,0.9954,0.9954,0.9954,0.9954,0.9954,0.9954,0.9951,0.9851,0.0,0.9764,0.9571,0.9544,0.944,0.7804,0.6393,0.5164,0.4003,0.2986,0.2187,0.2114,0.2115,0.2112,0.2163,0.2227,0.2295,0.0,0.0,0.0,0.0,0.0,0.0,0.0,0.0,0.0,0.0,0.0,0.0,0.0,0.0,0.0073,0.0292,0.0798,0.1225,0.136,0.0996,0.0711,0.0572,0.0716,0.0787,0.0573,0.0716,0.0644,0.0215,0.0215,0.0143,0.0,0.0,0.0,0.0,0.0,0.0,0.0,0.0,0.0,0.0071,0.0856,0.1222,0.1229,0.1806,0.2175,0.2333,0.2333,0.2333,0.2405,0.3205,0.509,0.7115,0.7912,0.9726,1.1619,0.0,0.0,0.0,0.0,0.0,0.0,0.0,0.0,0.0,0.0,0.0,0.0,0.0,0.0,1.204,1.1962,0.0,1.1809,1.1735,1.1725,1.1725,1.1725,1.1853,1.1891,1.1742,1.1857,1.1976,1.2054,1.1981,1.1828,1.1745,1.1354,1.1004,1.0543,1.0374,1.0175,1.0019,1.0175,1.0175,1.0019,1.0175,1.0175,1.0019,1.0111,1.0201,1.0137,1.0404,1.0429,1.036,0.898,0.7553,0.596,0.4003,0.2841,0.2333,0.2333,0.2324,0.231,0.2296,0.2281,0.2266,0.0,0.0,0.0,0.0,0.0,0.0,0.0,0.0,0.0,0.0,0.0,0.0,0.0,0.0073,0.0292,0.0657,0.0795,0.0934,0.1006,0.0647,0.0289,0.0,0.0292,0.0365,0.0,0.0292,0.0292,0.0,0.0,0.0,0.0,0.0,0.0,0.0,0.0,0.0,0.0,0.0,0.0,0.0071,0.0858,0.1226,0.1313,0.2042,0.2333,0.2333,0.2333,0.2333,0.2333,0.2333,0.4364,0.6968,0.6968,0.9144,1.1619,1.1619,1.1619,0.0,0.0,0.0,0.0,0.0,0.0,0.0,0.0,1.2094,1.2159,1.2006,1.1976,1.1938,1.1813,1.1789,1.1762,1.1674,1.1755,1.184,1.187,1.201,1.206,1.1935,1.203,1.2155,1.2277,1.2315,1.2226,1.2027,1.196,1.1572,1.0874,1.0793,1.0563,1.0253,1.0563,1.0563,1.0253,1.0486,1.0486,1.0253,1.0486,1.0586,1.0632,1.0863,1.0953,1.0764,0.9429,0.7917,0.632,0.3786,0.2551,0.2333,0.2333,0.2315,0.2291,0.2291,0.2272,0.2174,0.0,0.0,0.0,0.0,0.0,0.0,0.0,0.0,0.0,0.0,0.0,0.0,0.0,0.0292,0.073,0.1095,0.051,0.0291,0.0655,0.0291,0.0073,0.0,0.0073,0.0073,0.0,0.0073,0.0073,0.0,0.0,0.0,0.0,0.0,0.0,0.0,0.0,0.0,0.0,0.0,0.0,0.007,0.0855,0.1226,0.1313,0.2042,0.2333,0.2333,0.2333,0.2333,0.2333,0.2333,0.4364,0.6968,0.6968,0.9144,1.1619,1.1619,1.1619,1.1623,1.164,1.1735,1.1833,1.1853,1.1972,1.2013,0.0,1.1779,1.184,1.1697,1.167,1.1664,1.1647,1.1643,1.1681,1.1789,1.182,1.1877,1.2016,1.2169,1.2257,1.224,1.2254,1.2271,1.2288,1.2406,1.2484,1.2424,1.2114,1.1882,1.1727,1.1417,1.1184,1.1184,1.1184,1.1184,1.1184,1.0796,1.0796,1.1184,1.0796,1.0788,1.1231,1.128,1.1304,1.1272,0.9831,0.8348,0.6825,0.5091,0.3568,0.2333,0.2333,0.2315,0.2291,0.2291,0.2272,0.2171,0.0,0.0,0.0,0.0,0.0,0.0,0.0,0.0,0.0,0.0,0.0,0.0,0.0,0.0365,0.0657,0.0803,0.0511,0.0438,0.0584,0.0219,0.0,0.0,0.0,0.0,0.0,0.0,0.0,0.0,0.0,0.0,0.0,0.0,0.0,0.0,0.0,0.0,0.0,0.0,0.0,0.0071,0.0857,0.1226,0.1313,0.2042,0.2333,0.2333,0.2333,0.2333,0.0,0.2333,0.4364,0.6968,0.6968,0.9144,1.1619,1.1619,1.1619,1.1619,1.1619,1.1664,1.1708,1.1708,1.182,1.1874,1.1667,1.1728,1.1789,1.165,1.1619,1.1619,1.1619,1.1687,1.1762,1.1823,1.1982,1.2121,1.2186,1.2322,1.2413,1.2413,1.2413,1.2413,1.2413,1.2467,1.2501,1.2501,1.2347,1.2114,1.1882,1.1727,1.1572,1.134,1.1495,1.1572,1.1262,1.134,1.134,1.1262,1.134,1.1495,1.164,1.1743,1.1669,1.1428,0.9919,0.8928,0.8131,0.567,0.4295,0.3713,0.3713,0.3123,0.2313,0.2296,0.2272,0.2171,0.0,0.0,0.0,0.0,0.0,0.0,0.0,0.0,0.0,0.0,0.0,0.0073,0.0146,0.0292,0.0511,0.0584,0.0511,0.0438,0.0438,0.0146,0.0,0.0,0.0,0.0,0.0,0.0,0.0,0.0,0.0,0.0,0.0,0.0,0.0,0.0,0.0,0.0,0.0,0.0,0.0,0.0072,0.0787,0.1082,0.124,0.1896,0.2255,0.2322,0.233,0.2333,0.2333,0.2333,0.4364,0.6968,0.6968,0.9144,1.1619,1.1619,1.1619,1.1619,1.1619,1.1619,1.1619,1.1619,1.1697,1.1745,1.1643,1.1697,1.1742,1.164,1.1619,1.1633,1.167,1.1762,1.186,1.1945,1.2145,1.2305,1.2342,1.2437,1.2501,1.2501,1.2501,1.2501,1.2501,1.2501,1.2501,1.2501,1.2501,1.2347,1.2114,1.2037,1.196,1.165,1.1882,1.196,1.165,1.1805,1.1805,1.165,1.1805,1.194,1.2049,1.1985,1.186,1.1548,1.0452,0.9726,0.9144,0.6902,0.5742,0.5309,0.5309,0.4655,0.3562,0.3604,0.3279,0.2886,0.0,0.0,0.0,0.0,0.0,0.0,0.0,0.0,0.0,0.0,0.0,0.0146,0.0511,0.0219,0.0146,0.0584,0.0219,0.0,0.0,0.0,0.0,0.0,0.0,0.0,0.0,0.0,0.0,0.0,0.0,0.0,0.0,0.0,0.0,0.0,0.0,0.0,0.0,0.0,0.0,0.0072,0.0429,0.0866,0.124,0.1677,0.2026,0.2296,0.2323,0.2333,0.2333,0.2333,0.4364,0.6968,0.6968,0.9144,1.1619,1.1619,1.1619,1.1619,1.1619,1.1619,1.1619,1.1619,1.1623,1.1626,1.1619,1.1623,1.1623,1.1619,1.1619,1.166,1.1799,1.1826,1.1928,1.223,1.2284,1.2338,1.2474,1.2498,1.2501,1.2501,1.2501,1.2501,1.2501,1.2501,1.2501,1.2501,1.2501,1.2501,1.2501,1.2501,1.2501,1.2424,1.2501,1.2501,1.2424,1.2114,1.2114,1.2424,1.2114,1.2045,1.2288,1.1979,1.1759,1.1619,1.1548,1.0671,0.9291,0.9216,0.8273,0.6898,0.6898,0.6896,0.6823,0.6821,0.5834,0.4493,0.0,0.0,0.0,0.0,0.0,0.0,0.0,0.0,0.0,0.0,0.0,0.0,0.0,0.0,0.0,0.0,0.0073,0.0,0.0,0.0,0.0,0.0,0.0,0.0,0.0,0.0,0.0,0.0,0.0,0.0,0.0,0.0,0.0,0.0,0.0,0.0,0.0,0.0,0.0,0.0,0.0435,0.0872,0.1239,0.159,0.194,0.229,0.0,0.2288,0.2308,0.2326,0.4364,0.6968,0.6968,0.9144,1.1619,1.1619,1.1619,1.1619,1.1619,1.1619,1.1619,1.1619,1.1619,1.1619,1.1619,1.1619,1.1619,1.1619,1.1619,1.1664,1.1803,1.1915,1.205,1.2257,1.2369,1.2447,1.2494,1.2501,1.2501,1.2501,1.2501,1.2501,1.2501,1.2501,1.2501,1.2501,1.2501,1.2501,1.2501,1.2501,1.2501,1.2501,1.2501,1.2501,1.2501,1.2347,1.2347,1.2501,1.2253,1.2208,1.2132,1.1925,1.1752,1.1619,1.1619,1.1329,1.0743,0.9726,0.9,0.8492,0.8492,0.7912,0.7115,0.8129,0.8179,0.7567,0.0,0.0,0.0,0.0,0.0,0.0,0.0,0.0,0.0,0.0,0.0,0.0,0.0,0.0,0.0,0.0,0.0,0.0,0.0,0.0,0.0,0.0,0.0,0.0,0.0,0.0,0.0,0.0,0.0,0.0,0.0,0.0,0.0,0.0,0.0,0.0,0.0,0.0,0.0073,0.0219,0.0436,0.087,0.1375,0.1643,0.1913,0.0,0.2249,0.2258,0.2279,0.2308,0.406,0.6246,0.6825,0.9144,1.1619,1.1619,1.1619,1.1619,1.1619,1.1619,1.1619,1.1619,1.1619,1.1619,1.1619,1.1619,1.1619,1.1619,1.1619,1.1681,1.1877,1.1993,1.2128,1.2332,1.244,1.2501,1.2501,1.2501,1.2501,1.2501,1.2501,1.2501,1.2501,1.2501,1.2501,1.2501,1.2501,1.2501,1.2501,1.2501,1.2501,1.2501,1.2501,1.2501,1.2501,1.2501,1.2501,1.2501,1.2301,1.2155,1.2054,1.185,1.1704,1.1619,1.1619,1.1619,1.1548,1.0524,1.0089,1.0089,1.0089,0.9507,0.8781,0.9726,1.0089,0.9859,0.0,0.0,0.0,0.0,0.0,0.0,0.0,0.0,0.0,0.0,0.0,0.0,0.0,0.0,0.0,0.0,0.0,0.0,0.0,0.0,0.0,0.0,0.0,0.0,0.0,0.0,0.0,0.0,0.0,0.0073,0.0073,0.0073,0.0073,0.0073,0.0073,0.0073,0.0073,0.0073,0.0292,0.0656,0.0576,0.1002,0.1715,0.1692,0.1878,0.2204,0.2231,0.2172,0.2178,0.228,0.3389,0.5018,0.6608,0.9144,1.1476,1.1548,1.1619,1.1619,1.1619,1.1619,1.1619,1.1619,1.1619,1.1619,1.1619,1.1619,1.1619,1.1619,1.1619,1.1708,1.1996,1.2057,1.2155,1.2444,1.2498,1.2501,1.2501,1.2501,1.2501,1.2501,1.2501,1.2501,1.2501,1.2501,1.2501,1.2501,1.2501,1.2501,1.2501,1.2501,1.2501,1.2501,1.2501,1.2501,1.2501,1.2501,1.2501,1.2498,1.2203,1.2135,1.2125,1.1755,1.1619,1.1619,1.1619,1.1619,1.1619,1.1619,1.1619,1.1619,1.1619,1.1619,1.1619,1.1619,1.1619,1.14,0.0,0.0,0.0,0.0,0.0,0.0,0.0,0.0,0.0,0.0,0.0,0.0,0.0,0.0,0.0,0.0,0.0,0.0,0.0,0.0,0.0,0.0,0.0,0.0,0.0,0.0,0.0146,0.0438,0.0438,0.0584,0.0876,0.0876,0.0876,0.0876,0.0876,0.0876,0.0876,0.0876,0.0949,0.1022,0.1018,0.13,0.1715,0.1692,0.1878,0.2198,0.2183,0.2192,0.2219,0.2273,0.3389,0.5165,0.7842,0.9288,1.0089,1.1253,1.1619,1.1619,1.1619,1.1619,1.1619,1.1619,1.1619,1.1619,1.1619,1.1619,1.1619,1.1619,1.1619,1.1674,1.1857,1.1982,1.2125,1.2315,1.2433,1.2501,1.2501,1.2501,1.2501,1.2501,1.2501,1.2501,1.2501,1.2501,1.2501,1.2501,1.2501,1.2501,1.2501,1.2501,1.2501,1.2501,1.2501,1.2501,1.2501,1.2501,1.2501,1.2498,1.2203,1.2135,1.2125,1.1755,1.1619,1.1619,1.1619,1.1619,1.1619,1.1619,1.1619,1.1619,1.1619,1.1619,1.1619,1.1619,1.1619,1.1544,0.0,0.0,0.0,0.0,0.0,0.0,0.0,0.0,0.0,0.0,0.0,0.0,0.0,0.0,0.0,0.0,0.0,0.0,0.0,0.0,0.0,0.0,0.0,0.0,0.0,0.0147,0.0367,0.0584,0.0803,0.0949,0.1168,0.1168,0.1168,0.1168,0.1168,0.1168,0.1168,0.1168,0.1313,0.0,0.0,0.1657,0.193,0.1904,0.2018,0.2198,0.2181,0.2194,0.2227,0.2275,0.3389,0.5091,0.7551,0.8781,0.9579,1.1181,1.1619,1.1619,1.1619,1.1619,1.1619,1.1619,1.1619,1.1619,1.1619,1.1619,1.1619,1.1619,1.1619,1.1664,1.1803,1.1901,1.2033,1.2254,1.2355,1.243,1.2491,1.2501,1.2501,1.2501,1.2501,1.2501,1.2501,1.2501,1.2501,1.2501,1.2501,1.2501,1.2501,1.2501,1.2501,1.2501,1.2501,1.2501,1.2501,1.2501,1.2501,1.2498,1.2203,1.2135,1.2125,1.1755,1.1619,1.1619,1.1619,1.1619,1.1619,1.1619,1.1619,1.1619,1.1619,1.1619,1.1619,1.1619,1.1619,1.1619,0.0,0.0,0.0,0.0,0.0,0.0,0.0,0.0,0.0,0.0,0.0,0.0,0.0,0.0,0.0,0.0,0.0,0.0,0.0,0.0,0.0,0.0,0.0,0.0,0.0075,0.0447,0.0666,0.0732,0.1095,0.1313,0.1313,0.1313,0.1313,0.1313,0.1313,0.1313,0.1313,0.1313,0.1532,0.1893,0.1802,0.2007,0.2288,0.0,0.2232,0.2206,0.2202,0.2217,0.2244,0.2275,0.324,0.4657,0.6174,0.7767,0.9291,1.0818,1.1472,1.1619,1.1619,1.1619,1.1619,1.1619,1.1619,1.1619,1.1619,1.1619,1.1619,1.1619,1.1619,1.1657,1.1779,1.182,1.1918,1.2186,1.2264,1.2332,1.2457,1.2488,1.2501,1.2501,1.2501,1.2501,1.2501,1.2501,1.2501,1.2501,1.2501,1.2501,1.2501,1.2501,1.2501,1.2501,1.2501,1.2501,1.2501,1.2501,1.2491,1.2471,1.2193,1.2125,1.202,1.1745,1.1619,1.1619,1.1619,1.1619,1.1619,1.1619,1.1619,1.1619,1.1619,1.1619,1.1619,1.1619,1.1619,1.1619,0.0,0.0,0.0,0.0,0.0,0.0,0.0,0.0,0.0,0.0,0.0,0.0,0.0,0.0,0.0,0.0,0.0,0.0,0.0,0.0,0.0,0.0,0.0,0.0153,0.0453,0.0598,0.0891,0.1556,0.1685,0.1822,0.2115,0.2115,0.2115,0.2115,0.2115,0.2115,0.2115,0.2115,0.2114,0.2187,0.2182,0.2239,0.229,0.2285,0.0,0.0,0.2209,0.2204,0.2213,0.2243,0.2431,0.2987,0.4584,0.6176,0.7693,0.9216,1.0599,1.1619,1.1619,1.1619,1.1619,1.1619,1.1619,1.1619,1.1619,1.1619,1.1619,1.1619,1.1619,1.1626,1.165,1.1752,1.1847,1.1901,1.2125,1.2298,1.2325,1.2427,1.2501,1.2501,1.2501,1.2501,1.2501,1.2501,1.2501,1.2501,1.2501,1.2501,1.2501,1.2501,1.2501,1.2501,1.2501,1.2501,1.2501,1.2501,1.2444,1.2325,1.2145,1.1993,1.1864,1.1697,1.1619,1.1619,1.1619,1.1619,1.1619,1.1619,1.1619,1.1619,1.1619,1.1619,1.1619,1.1619,1.1619,1.1619,0.0,0.0,0.0,0.0,0.0,0.0,0.0,0.0,0.0,0.0,0.0,0.0,0.0,0.0,0.0,0.0,0.0,0.0,0.0,0.0,0.0,0.0,0.0,0.0,0.0994,0.1141,0.1431,0.1783,0.0,0.2201,0.2333,0.2333,0.2333,0.2333,0.2333,0.2333,0.2333,0.2333,0.2333,0.2333,0.2333,0.2324,0.2313,0.0,0.0,0.0,0.2211,0.22,0.2202,0.2217,0.2262,0.2602,0.4213,0.5236,0.6248,0.8636,0.9798,1.0599,1.14,1.1619,1.1619,1.1619,1.1619,1.1619,1.1619,1.1619,1.1619,1.1619,1.1619,1.1619,1.1619,1.1677,1.1745,1.182,1.2023,1.2199,1.2281,1.2413,1.2501,1.2501,1.2501,1.2501,1.2501,1.2501,1.2501,1.2501,1.2501,1.2501,1.2501,1.2501,1.2501,1.2501,1.2501,1.2501,1.2501,1.2501,1.243,1.2288,1.2135,1.1979,1.1826,1.1684,1.1619,1.1619,1.1619,1.1619,1.1619,1.1619,1.1619,1.1619,1.1619,1.1619,1.1619,1.1619,1.1619,1.1619,0.0,0.0,0.0,0.0,0.0,0.0,0.0,0.0,0.0,0.0,0.0,0.0,0.0157,0.0079,0.0,0.0,0.0,0.0,0.0,0.0,0.0,0.0,0.0,0.0,0.1394,0.0,0.0,0.1948,0.2235,0.0,0.0,0.0,0.0,0.0,0.2333,0.2333,0.2333,0.2333,0.2333,0.0,0.0,0.2333,0.2333,0.0,0.0,0.0,0.0,0.2206,0.22,0.22,0.2232,0.2489,0.3741,0.4421,0.5165,0.7625,0.8783,0.9582,1.0743,1.1329,1.1619,1.1619,1.1619,1.1619,1.1619,1.1619,1.1619,1.1619,1.1619,1.1619,1.1619,1.1619,1.1657,1.1769,1.1911,1.2067,1.222,1.2366,1.2467,1.2498,1.2501,1.2501,1.2501,1.2501,1.2501,1.2501,1.2501,1.2501,1.2501,1.2501,1.2501,1.2501,1.2501,1.2501,1.2501,1.2501,1.2413,1.224,1.2121,1.1965,1.1782,1.167,1.1619,1.1619,1.1619,1.1619,1.1619,1.1619,1.1619,1.1619,1.1619,1.1619,1.1619,1.1619,1.1619,1.1619,0.0,0.0,0.0,0.0,0.0,0.0,0.0,0.0,0.0,0.0,0.0,0.0157,0.0471,0.0236,0.0,0.0,0.0,0.0,0.0,0.0,0.0,0.0,0.0,0.0,0.0,0.0,0.0,0.2461,0.2405,0.0,0.0,0.0,0.0,0.0,0.0,0.2333,0.2333,0.2333,0.0,0.0,0.0,0.0,0.0,0.0,0.0,0.0,0.0,0.2223,0.22,0.22,0.2204,0.2214,0.2383,0.3503,0.4729,0.502,0.7119,0.9363,0.9507,1.0524,1.1619,1.1619,1.1619,1.1619,1.1619,1.1619,1.1619,1.1619,1.1619,1.1619,1.1619,1.1619,1.1623,1.1636,1.1759,1.1904,1.206,1.2213,1.2355,1.2484,1.2501,1.2501,1.2501,1.2501,1.2501,1.2501,1.2501,1.2501,1.2501,1.2501,1.2501,1.2501,1.2501,1.2501,1.2501,1.2501,1.2362,1.2084,1.2145,1.1915,1.164,1.1626,1.1619,1.1619,1.1619,1.1619,1.1619,1.1619,1.1619,1.1619,1.1619,1.1619,1.1619,1.1619,1.1619,1.1619,0.0,0.0,0.0,0.0,0.0,0.0,0.0,0.0,0.0,0.0,0.0,0.0157,0.055,0.0471,0.0471,0.0786,0.0786,0.0,0.0,0.0,0.0,0.0,0.0,0.0,0.0,0.0,0.2332,0.2469,0.2427,0.0,0.0,0.0,0.0,0.0,0.0,0.2333,0.2333,0.2333,0.0,0.0,0.0,0.0,0.0,0.0,0.0,0.0,0.0,0.0,0.22,0.22,0.22,0.2202,0.2215,0.2667,0.335,0.4378,0.6178,0.8055,0.9053,1.0452,1.1619,1.1619,1.1619,1.1619,1.1619,1.1619,1.1619,1.1619,1.1619,1.1619,1.1619,1.1619,1.1619,1.1619,1.1738,1.1884,1.204,1.2193,1.2342,1.2484,1.2501,1.2501,1.2501,1.2501,1.2501,1.2501,1.2501,1.2501,1.2501,1.2501,1.2501,1.2501,1.2501,1.2501,1.2501,1.2501,1.2355,1.2135,1.2135,1.1904,1.1619,1.1619,1.1619,1.1619,1.1619,1.1619,1.1619,1.1619,1.1619,1.1619,1.1619,1.1619,1.1619,1.1619,1.1619,1.1606,0.0,0.0,0.0,0.0,0.0,0.0,0.0,0.0079,0.0157,0.0157,0.0314,0.055,0.0943,0.1021,0.1178,0.1649,0.1414,0.0,0.0,0.0,0.0,0.0,0.0,0.0,0.0,0.0,0.2504,0.2482,0.2443,0.2413,0.0,0.0,0.2333,0.2333,0.0,0.0,0.0,0.0,0.0,0.0,0.0,0.0,0.0,0.0,0.0,0.0,0.0,0.0,0.0,0.0,0.0,0.2187,0.2187,0.2202,0.2434,0.3533,0.4979,0.6571,0.8138,0.9701,1.1038,1.1472,1.1619,1.1619,1.1619,1.1619,1.1619,1.1619,1.1619,1.1619,1.1619,1.1619,1.1619,1.1619,1.1704,1.182,1.1972,1.2125,1.2277,1.2423,1.2478,1.2501,1.2501,1.2501,1.2501,1.2501,1.2501,1.2501,1.2501,1.2501,1.2501,1.2501,1.2501,1.2501,1.2501,1.2461,1.2311,1.2135,1.2016,1.186,1.1619,1.1619,1.1619,1.1619,1.1619,1.1619,1.1619,1.1619,1.1619,1.1619,1.1619,1.1619,1.1619,1.1619,1.1619,1.1599,0.0,0.0,0.0,0.0,0.0,0.0,0.0,0.0314,0.0628,0.0628,0.1021,0.1414,0.1807,0.1886,0.2043,0.2436,0.1728,0.0,0.0,0.0,0.0,0.0,0.0,0.0,0.2515,0.2515,0.2515,0.2514,0.2453,0.2423,0.2422,0.2361,0.2333,0.2333,0.0,0.0,0.0,0.0,0.0,0.0,0.0,0.0,0.0,0.0,0.0,0.0,0.0,0.0,0.0,0.0,0.0,0.0,0.0,0.2223,0.2235,0.2228,0.3395,0.4993,0.6488,0.8126,0.9654,1.1253,1.1619,1.1619,1.1619,1.1619,1.1619,1.1619,1.1619,1.1619,1.1619,1.1619,1.1619,1.1619,1.1619,1.167,1.1813,1.1965,1.2121,1.2274,1.2416,1.2501,1.2501,1.2501,1.2501,1.2501,1.2501,1.2501,1.2501,1.2501,1.2501,1.2501,1.2501,1.2501,1.2501,1.2362,1.2213,1.2135,1.1908,1.1759,1.1619,1.1619,1.1619,1.1619,1.1619,1.1619,1.1619,1.1619,1.1619,1.1619,1.1619,1.1619,1.1619,1.1619,1.1619,1.1599,0.0,0.0,0.0,0.0,0.0,0.0,0.0864,0.1021,0.11,0.11,0.1178,0.1414,0.1886,0.1886,0.2043,0.2436,0.2278,0.0,0.0,0.0,0.0,0.0,0.0,0.2515,0.2515,0.2515,0.2515,0.2515,0.2474,0.2444,0.2423,0.2382,0.2352,0.2333,0.2333,0.2333,0.0,0.0,0.0,0.0,0.0,0.0,0.2333,0.0,0.0,0.0,0.0,0.0,0.0,0.0,0.0,0.0,0.0,0.0,0.0,0.2202,0.3349,0.4936,0.6471,0.8055,0.9654,1.1181,1.1619,1.1619,1.1619,1.1619,1.1619,1.1619,1.1619,1.1619,1.1619,1.1619,1.1619,1.1619,1.1619,1.167,1.1813,1.1965,1.2118,1.2274,1.2416,1.2501,1.2501,1.2501,1.2501,1.2501,1.2501,1.2501,1.2501,1.2501,1.2501,1.2501,1.2501,1.2501,1.2501,1.2362,1.2213,1.2135,1.1904,1.1755,1.1619,1.1619,1.1619,1.1619,1.1619,1.1619,1.1619,1.1619,1.1619,1.1619,1.1619,1.1619,1.1619,1.1619,1.1552,1.1443,0.0,0.0,0.0,0.0,0.0,0.0,0.1257,0.1414,0.1492,0.1492,0.1649,0.1886,0.2121,0.2121,0.22,0.2515,0.2515,0.0,0.0,0.0,0.0,0.0,0.2515,0.2515,0.2515,0.2515,0.2515,0.2515,0.2484,0.2453,0.2423,0.2393,0.2362,0.2333,0.2333,0.2333,0.0,0.0,0.0,0.0,0.0,0.0,0.2333,0.0,0.0,0.0,0.0,0.0,0.0,0.0,0.0,0.0,0.0,0.0,0.0,0.0,0.2913,0.4141,0.6323,0.7623,0.8928,1.1038,1.1619,1.1619,1.1619,1.1619,1.1619,1.1619,1.1619,1.1619,1.1619,1.1619,1.1619,1.1619,1.1619,1.165,1.1738,1.1881,1.2054,1.2267,1.2416,1.2501,1.2501,1.2501,1.2501,1.2501,1.2501,1.2501,1.2501,1.2501,1.2501,1.2501,1.2501,1.2474,1.2423,1.2277,1.2125,1.1972,1.1823,1.1704,1.1619,1.1619,1.1619,1.1619,1.1619,1.1619,0.0,1.1619,1.1619,1.1619,1.1619,1.1586,1.1535,1.1535,1.1436,1.1284,0.0,0.0,0.0,0.0,0.0,0.0,0.0,0.1728,0.1964,0.1964,0.2278,0.2515,0.2515,0.2515,0.2515,0.2515,0.2515,0.0,0.0,0.0,0.0,0.2515,0.2515,0.2515,0.2515,0.2515,0.2515,0.2515,0.2486,0.2455,0.2423,0.2395,0.2364,0.2333,0.2333,0.2333,0.0,0.0,0.0,0.0,0.2333,0.2333,0.0,0.0,0.0,0.0,0.0,0.0,0.0,0.0,0.0,0.0,0.0,0.0,0.0,0.0,0.0,0.0,0.0,0.698,0.7767,1.0818,1.1619,1.1619,1.1619,1.1619,0.0,1.1619,1.1619,1.1619,1.1619,1.1619,1.1619,1.1619,1.1619,1.1619,1.1619,1.1742,1.1942,1.224,1.24,1.2484,1.2484,1.2494,1.2501,1.2501,1.2501,1.2498,1.2488,1.2484,1.2481,1.2471,1.2471,1.2413,1.2291,1.2128,1.1972,1.183,1.1687,1.1619,1.1619,1.1619,1.1619,1.1619,1.1619,1.1619,1.1619,1.1619,1.1619,1.1616,1.1606,1.1514,1.1389,1.1379,1.1277,1.1128,0.0,0.0,0.0,0.0,0.0,0.0,0.0,0.0,0.0,0.0,0.2436,0.2515,0.2515,0.2515,0.2515,0.0,0.0,0.0,0.0,0.0,0.0,0.2515,0.2515,0.2515,0.2515,0.2515,0.2515,0.2515,0.2507,0.2476,0.2423,0.2416,0.2384,0.2333,0.2333,0.2333,0.0,0.0,0.0,0.0,0.2333,0.2333,0.0,0.0,0.0,0.0,0.2333,0.2315,0.0,0.0,0.0,0.0,0.0,0.0,0.0,0.0,0.217,0.2889,0.611,0.0,0.7767,1.0818,1.1619,1.1619,0.0,1.1619,1.1619,1.1619,1.1619,1.1619,1.1619,1.1619,1.1619,1.1619,1.1619,1.1619,1.1619,1.1742,1.1901,1.2094,1.2247,1.2338,1.2338,1.2437,1.2501,1.2501,1.2501,1.2454,1.2345,1.2338,1.2288,1.2169,1.2166,1.2206,1.2291,1.202,1.1867,1.183,1.1687,1.1619,1.1619,1.1619,1.1619,1.1619,1.1619,1.1619,1.1619,1.1619,1.1619,1.1606,1.1491,1.1423,1.1379,1.126,1.1124,1.0992,0.0,0.0,0.0,0.0,0.0,0.0,0.0,0.0,0.0,0.0,0.2515,0.2515,0.2515,0.2515,0.2515,0.0,0.0,0.0,0.0,0.2515,0.2515,0.2515,0.2515,0.2515,0.2515,0.2515,0.2515,0.2515,0.2515,0.2483,0.2423,0.2423,0.2391,0.2333,0.2333,0.2333,0.2333,0.2333,0.2333,0.2333,0.2333,0.0,0.0,0.0,0.0,0.0,0.2333,0.2323,0.0,0.2276,0.2246,0.2215,0.0,0.0,0.0,0.0,0.2255,0.2772,0.5279,0.6463,0.7767,1.0818,1.1619,1.1619,1.1619,1.1619,1.1619,1.1619,1.1619,1.1619,1.1619,1.1619,1.1619,1.1619,1.1619,1.1619,1.1619,1.1742,1.1864,1.1945,1.2091,1.2186,1.2186,1.2254,1.2298,1.2298,1.2298,1.2267,1.2189,1.2186,1.2517,1.3092,1.236,1.1996,1.2077,1.1915,1.1796,1.1731,1.1657,1.1619,1.1619,1.1619,1.1619,1.1619,1.1619,1.1619,1.1619,1.1619,1.1619,1.1603,1.145,1.1348,1.1267,1.1118,1.0972,1.0843,0.0,0.0,0.0,0.0,0.0,0.0,0.0,0.0,0.0,0.0,0.0,0.0,0.0,0.0,0.0,0.0,0.0,0.0,0.0,0.2515,0.2515,0.2515,0.2515,0.2515,0.2515,0.2515,0.2515,0.2515,0.2515,0.2486,0.2431,0.2425,0.2391,0.2333,0.2333,0.2333,0.2333,0.2333,0.2333,0.2333,0.2333,0.0,0.0,0.0,0.0,0.0,0.0,0.0,0.0,0.23,0.2271,0.2171,0.2215,0.0,0.0,0.0,0.0,0.0,0.4281,0.5813,0.7693,1.0527,1.14,1.1619,1.1619,1.1619,1.1619,1.1619,1.1619,1.1619,1.1619,1.1619,1.1619,1.1619,1.1619,1.1619,1.1619,1.1725,1.1799,1.1799,1.1935,1.2026,1.2026,1.2047,1.2135,1.2135,1.2281,1.2419,1.2398,1.2618,1.3337,1.4543,1.3164,1.2372,1.2084,1.1869,1.1738,1.1619,1.1619,1.1619,1.1619,1.1619,1.1619,1.1619,1.1619,1.1619,1.1619,1.1619,1.1606,1.1569,1.1416,1.1263,1.1114,1.0968,1.0829,1.0721,0.0,0.0,0.0,0.0,0.0,0.0,0.0,0.0,0.0,0.0,0.0,0.0,0.0,0.0,0.0,0.0,0.0,0.0,0.0,0.2515,0.2515,0.2515,0.2515,0.2515,0.2515,0.2515,0.2515,0.2515,0.2515,0.2497,0.2461,0.2435,0.2391,0.2333,0.2333,0.2333,0.2333,0.2333,0.2333,0.2333,0.2333,0.0,0.0,0.0,0.0,0.0,0.0,0.0,0.0,0.23,0.2271,0.2174,0.217,0.0,0.0,0.0,0.0,0.0,0.4281,0.5813,0.7404,0.9219,1.0599,1.1619,1.1619,1.1619,1.1619,1.1619,1.1619,1.1619,1.1619,1.1619,1.1619,1.1619,1.1619,1.1619,1.1619,1.164,1.165,1.165,1.1779,1.1867,1.1867,1.1986,1.2135,1.2135,1.3234,1.3905,1.3767,1.5057,1.5768,1.5804,1.5559,1.4835,1.3567,1.2291,1.164,1.1619,1.1619,1.1619,1.1619,1.1619,1.1619,1.1619,1.1619,1.1619,1.1619,1.1619,1.1545,1.1409,1.1257,1.1107,1.0962,1.0812,1.0741,1.0721,0.0,0.0,0.0,0.0,0.0,0.0,0.0,0.0,0.0,0.0,0.0,0.0,0.0,0.0,0.0,0.0,0.0,0.0,0.2515,0.2515,0.2515,0.2515,0.2515,0.2515,0.2515,0.2515,0.2515,0.2515,0.2515,0.2499,0.2468,0.2421,0.2375,0.2333,0.2333,0.2333,0.2333,0.2333,0.2333,0.2333,0.0,0.0,0.0,0.0,0.0,0.0,0.0,0.0,0.0,0.0,0.2283,0.2178,0.2264,0.0,0.0,0.0,0.0,0.0,0.32,0.4583,0.6103,0.7695,0.987,1.1619,1.1619,1.1619,1.1619,1.1619,1.1619,1.1619,1.1619,1.1619,1.1619,1.1619,1.1619,1.1619,1.1619,1.1619,1.1619,1.1619,1.1677,1.1714,1.1714,1.1779,1.1823,1.1823,1.3264,1.4091,1.401,1.5426,1.659,1.7343,1.6559,1.5778,1.5075,1.3599,1.2395,1.1619,1.1619,1.1619,1.1619,1.1619,1.1619,1.1619,1.1619,1.1619,1.1613,1.1531,1.1453,1.1369,1.1138,1.1006,1.086,1.0775,1.0721,1.0721,0.0,0.0,0.0,0.0,0.0,0.0,0.0,0.0,0.0,0.0,0.0,0.0,0.0,0.0,0.0,0.0,0.0,0.0,0.2515,0.2515,0.2515,0.2515,0.2515,0.2515,0.2515,0.2515,0.2515,0.2515,0.2515,0.2495,0.2457,0.2411,0.2369,0.2333,0.2333,0.2333,0.2333,0.2333,0.2333,0.2333,0.0,0.0,0.0,0.0,0.0,0.0,0.0,0.0,0.0,0.0,0.0,0.0,0.0,0.0,0.0,0.2292,0.2316,0.2333,0.2333,0.3713,0.5525,0.668,0.9072,1.1181,1.1548,1.1619,1.1619,1.1619,1.1619,1.1619,1.1619,1.1619,1.1619,1.1619,1.1619,1.1619,1.1619,1.1619,1.1619,1.1619,1.1619,1.1619,1.1619,1.1619,1.1619,1.1619,1.3317,1.4445,1.4445,1.6207,1.7689,1.8901,1.776,1.6982,1.6625,1.515,1.3456,1.1619,1.1619,1.1619,1.1619,1.1619,1.1619,1.1619,1.1619,1.1619,1.1606,1.1453,1.1369,1.1311,1.105,1.086,1.0813,1.0765,1.0721,1.0721,0.0,0.0,0.0,0.0,0.0,0.0,0.0,0.0,0.0,0.0,0.0,0.0,0.0,0.0,0.0,0.0,0.0,0.0,0.2515,0.2515,0.2515,0.2515,0.2515,0.2515,0.2515,0.2515,0.2515,0.2515,0.2515,0.2485,0.2427,0.2423,0.2389,0.2333,0.2333,0.2333,0.2333,0.2333,0.2333,0.2333,0.2333,0.0,0.0,0.0,0.0,0.0,0.0,0.0,0.0,0.0,0.0,0.0,0.0,0.0,0.2293,0.2322,0.2331,0.2333,0.2333,0.4509,0.6898,0.6968,0.8273,0.987,1.1257,1.1619,1.1619,1.1619,1.1619,1.1619,1.1619,1.1619,1.1619,1.1619,1.1619,1.1619,1.1619,1.1619,1.1619,1.1619,1.1619,1.1619,1.1619,1.1619,1.1619,1.1619,1.4303,1.5919,1.5919,1.8751,2.0451,2.0527,2.0457,1.9675,1.8266,1.67,1.4512,1.1619,1.1619,1.1619,1.1619,1.1619,1.1619,1.1619,1.1619,1.1619,1.1606,1.1453,1.1307,1.1165,1.1009,1.0796,1.0734,1.0724,1.0721,1.0721,0.0,0.0,0.0,0.0,0.0,0.0,0.0,0.0,0.0,0.0,0.0,0.0,0.0,0.0,0.0,0.0,0.0,0.2515,0.2515,0.2515,0.2515,0.2515,0.2515,0.2515,0.2515,0.2515,0.2515,0.2515,0.2515,0.2483,0.2423,0.2423,0.2391,0.2333,0.2333,0.2333,0.2333,0.2333,0.2333,0.2333,0.2333,0.2333,0.0,0.0,0.0,0.0,0.0,0.0,0.0,0.0,0.2314,0.2296,0.2324,0.2313,0.2296,0.2324,0.2333,0.2333,0.2333,0.3204,0.4292,0.5307,0.6755,0.8492,1.1038,1.1619,1.1619,1.1619,1.1619,1.1619,1.1619,1.1619,1.1619,1.1619,1.1619,1.1619,1.1619,1.1619,1.1619,1.1619,1.1619,1.1619,1.1619,1.1619,1.1619,1.1619,1.4369,1.6131,1.6131,1.903,2.0665,2.0665,2.0665,1.9959,1.8412,1.6841,1.5075,1.3035,1.2043,1.1619,1.1619,1.1619,1.1619,1.1619,1.1619,1.1565,1.1463,1.1311,1.1162,1.1016,1.0863,1.0772,1.0721,1.0721,1.0721,1.0721,0.0,0.0,0.0,0.0,0.0,0.0,0.0,0.0,0.0,0.0,0.0,0.0,0.0,0.0,0.0,0.0,0.2515,0.2515,0.2515,0.2515,0.2515,0.2515,0.2515,0.2515,0.2515,0.2515,0.2515,0.2515,0.2515,0.2483,0.2423,0.2423,0.2391,0.2333,0.2333,0.2333,0.2333,0.2333,0.2333,0.2333,0.2333,0.2333,0.0,0.0,0.0,0.0,0.0,0.0,0.0,0.0,0.232,0.2307,0.2326,0.232,0.2308,0.2327,0.2333,0.2333,0.2333,0.2696,0.335,0.4439,0.625,0.8273,1.038,1.1253,1.1619,1.1619,1.1619,1.1619,1.1619,1.1619,1.1619,1.1619,1.1619,1.1619,1.1619,1.1619,1.1619,1.1619,1.1619,1.1619,1.1619,1.1619,1.1619,1.1619,1.4369,1.6131,1.6131,1.903,2.0665,2.0665,2.0665,2.0173,1.9117,1.7619,1.6065,1.4587,1.3035,1.2043,1.1619,1.1619,1.1619,1.1619,1.1619,1.1535,1.1379,1.1226,1.105,1.0799,1.0761,1.0721,1.0721,1.0721,1.0721,1.0721,0.0,0.0,0.0,0.0,0.0,0.0,0.0,0.0,0.2468,0.2469,0.2495,0.0,0.0,0.0,0.0,0.0,0.2515,0.2515,0.2515,0.2515,0.2515,0.2515,0.2515,0.2515,0.2515,0.2515,0.2515,0.2515,0.2515,0.2483,0.2423,0.2423,0.2391,0.2333,0.2333,0.2333,0.2333,0.2333,0.2333,0.2333,0.2333,0.2333,0.2333,0.0,0.0,0.0,0.0,0.0,0.0,0.0,0.2333,0.2333,0.2333,0.2333,0.2333,0.2333,0.2333,0.2333,0.2333,0.3496,0.4657,0.4657,0.6974,0.9288,0.9288,1.0452,1.1548,1.1548,1.1619,1.1619,1.1619,1.1619,1.1619,1.1619,1.1619,1.1619,1.1619,1.1616,1.1616,1.1616,1.1616,1.1616,1.1616,1.1616,1.1616,1.1616,1.4369,1.6127,1.6131,1.903,2.0665,2.0665,2.0665,2.0665,2.0665,1.9186,1.7624,1.6056,1.4583,1.3103,1.1619,1.1619,1.1619,1.1619,1.1616,1.1531,1.1379,1.1223,1.0985,1.0721,1.0721,1.0721,1.0721,1.0721,1.0721,1.0721,0.0,0.0,0.0,0.0,0.0,0.0,0.0,0.0,0.242,0.2463,0.2477,0.0,0.0,0.0,0.0,0.0,0.0,0.2515,0.2515,0.2515,0.2515,0.2515,0.2515,0.2515,0.2515,0.2515,0.2515,0.2515,0.2515,0.2483,0.2423,0.2423,0.2391,0.2333,0.2333,0.2914,0.4004,0.4004,0.4004,0.4004,0.4004,0.3278,0.2333,0.0,0.0,0.0,0.0,0.0,0.0,0.0,0.0,0.0,0.2333,0.2333,0.2333,0.2333,0.2333,0.2333,0.2333,0.2623,0.2987,0.2987,0.5378,0.7693,0.7693,0.8855,1.0017,1.0017,1.0818,1.1619,1.1619,1.1619,1.1619,1.1619,1.1619,1.1619,1.1619,1.1528,1.146,1.146,1.1362,1.1297,1.1297,1.1297,1.1345,1.145,1.425,1.5985,1.6122,1.903,2.0665,2.0665,2.0665,2.0665,2.0665,1.9186,1.7624,1.6056,1.4583,1.3103,1.1619,1.1619,1.1619,1.1613,1.1504,1.1372,1.1209,1.0955,1.0799,1.0721,1.0721,1.0721,1.0721,1.0721,1.0721,1.0721,0.0,0.0,0.0,0.0,0.0,0.0,0.0,0.0,0.339,0.3459,0.293,0.248,0.0,0.0,0.0,0.0,0.2515,0.2515,0.2515,0.2515,0.2515,0.2515,0.2515,0.2515,0.2515,0.2515,0.2515,0.2515,0.2502,0.2472,0.2423,0.2411,0.2676,0.3278,0.3278,0.4148,0.5597,0.5597,0.5597,0.5525,0.4947,0.4149,0.3205,0.0,0.0,0.0,0.0,0.0,0.0,0.0,0.0,0.0,0.2333,0.2333,0.2333,0.2333,0.2333,0.2333,0.2333,0.2333,0.2478,0.3059,0.5161,0.7187,0.7765,0.9072,1.0233,1.0233,1.0962,1.1619,1.1619,1.1619,1.1619,1.1619,1.1619,1.1619,1.1619,1.1487,1.1392,1.1392,1.1257,1.1231,1.1231,1.1231,1.1202,1.1294,1.4128,1.5955,1.6008,1.8985,2.0665,2.0665,2.0665,2.0665,2.0665,1.975,1.8541,1.6987,1.55,1.3951,1.247,1.1903,1.1586,1.1518,1.1304,1.1162,1.106,1.0819,1.0721,1.0721,1.0721,1.0721,1.0721,1.0721,1.0721,1.0721,0.0,0.0,0.7055,0.7055,0.0,0.0,0.0,0.0,0.5157,0.5222,0.3774,0.2712,0.0,0.0,0.0,0.0,0.2515,0.2515,0.2515,0.2515,0.2515,0.2515,0.2515,0.2515,0.2515,0.2515,0.2515,0.2515,0.2484,0.2453,0.2423,0.2542,0.3392,0.4729,0.4875,0.5742,0.7187,0.7187,0.7187,0.7115,0.567,0.502,0.4729,0.3132,0.0,0.0,0.0,0.0,0.0,0.0,0.0,0.0,0.2333,0.2333,0.2333,0.2333,0.2333,0.2333,0.2333,0.2333,0.2623,0.4149,0.5741,0.7476,0.9144,1.0599,1.1548,1.14,1.1476,1.1619,1.1619,1.1619,1.1619,1.1619,1.1619,1.1613,1.1599,1.1467,1.1365,1.1352,1.1216,1.1121,1.1121,1.1121,1.1197,1.1345,1.416,1.5934,1.6111,1.9024,2.0641,2.0665,2.0665,2.0665,2.0665,2.0665,1.9959,1.8406,1.6841,1.5358,1.388,1.2327,1.1528,1.1355,1.107,1.0873,1.085,1.0778,1.0721,1.0721,1.0721,1.0721,1.0721,1.0721,1.0721,1.0721,0.0,0.0,0.715,0.715,0.0,0.0,0.0,0.0,0.0,0.6984,0.5538,0.0,0.0,0.0,0.0,0.0,0.0,0.2515,0.2515,0.2515,0.2515,0.2515,0.2515,0.2515,0.2515,0.2515,0.2515,0.2515,0.2484,0.2453,0.2423,0.3659,0.4348,0.4729,0.5958,0.7331,0.8781,0.8781,0.8781,0.8783,0.842,0.7551,0.6319,0.4801,0.4149,0.0,0.0,0.0,0.0,0.0,0.0,0.0,0.2333,0.2333,0.2333,0.2333,0.2333,0.2333,0.2333,0.2333,0.2405,0.2696,0.4944,0.7693,1.0455,1.1329,1.1253,1.0017,1.0743,1.1619,1.1619,1.1619,1.1619,1.1619,1.1619,1.1575,1.1457,1.1307,1.1172,1.1056,1.0907,1.0816,1.0816,1.0816,1.1326,1.2514,1.4379,1.603,1.7464,1.9347,2.0454,2.0659,2.0665,2.0665,2.0665,2.0665,1.9959,1.8406,1.6841,1.5358,1.388,1.2327,1.147,1.1202,1.1026,1.0813,1.0768,1.0734,1.0721,1.0721,1.0721,1.0721,1.0721,1.0721,1.0721,1.0721,0.0,0.0,0.0,0.0,0.0,0.0,0.0,0.0,0.0,0.0,0.0,0.0,0.0,0.0,0.0,0.0,0.2983,0.2515,0.2515,0.2515,0.2508,0.2493,0.2478,0.2471,0.2471,0.2471,0.2471,0.2471,0.244,0.2802,0.3554,0.4302,0.5489,0.6902,0.7767,0.8928,1.038,1.038,1.038,1.0308,0.9579,0.8853,0.7912,0.6393,0.5815,0.5597,0.4003,0.0,0.0,0.0,0.0,0.0,0.0,0.0,0.2333,0.2333,0.2333,0.2333,0.2333,0.2333,0.2696,0.4147,0.6898,0.9651,1.1253,1.1619,1.14,1.0599,1.1038,1.1619,1.1619,1.1619,1.1619,1.1619,1.1619,1.1565,1.1413,1.126,1.1111,1.0897,1.0812,1.0721,1.0721,1.0721,1.1342,1.2809,1.4356,1.6089,1.7789,1.9442,2.04,2.0659,2.0665,2.0665,2.0665,2.0665,2.0318,1.9465,1.7905,1.6018,1.375,1.2129,1.1277,1.1053,1.0904,1.0729,1.0721,1.0721,1.0721,1.0721,1.0721,1.0721,1.0721,1.0721,1.0721,1.0721,0.0,0.0,0.0,0.0,0.0,0.0,0.0,0.0,0.0,0.0,0.0,0.0,0.0,0.0,0.0,0.0,0.0,0.0,0.2906,0.2666,0.2495,0.247,0.244,0.2423,0.2423,0.2423,0.2423,0.2423,0.2691,0.3583,0.512,0.5074,0.6612,0.9291,0.9582,1.038,1.1619,1.1619,1.1619,1.1472,1.0233,0.9726,0.9507,0.7984,0.7404,0.7187,0.567,0.5091,0.4873,0.3278,0.0,0.0,0.0,0.0,0.2333,0.2333,0.2333,0.2333,0.2333,0.2478,0.3422,0.6246,0.9144,1.1257,1.1548,1.1619,1.1619,1.1619,1.1619,1.1619,1.1619,1.1619,1.1619,1.1619,1.1619,1.1555,1.1379,1.1243,1.1101,1.086,1.0799,1.0721,1.0721,1.0721,1.1376,1.3013,1.447,1.6072,1.8094,1.9466,2.0352,2.0659,2.0665,2.0665,2.0665,2.0665,2.0665,2.0665,1.8857,1.6469,1.3559,1.1877,1.106,1.0873,1.0785,1.0721,1.0721,1.0721,1.0721,1.0721,1.0721,1.0721,1.0721,1.0787,1.0787,1.0853,0.0,0.0,0.0,0.0,0.0,0.0,0.0,0.0,0.0,0.0,1.0693,0.9677,0.0,0.0,0.7203,0.7203,0.5639,0.4702,0.4702,0.0,0.0,0.247,0.244,0.2423,0.2423,0.2423,0.2423,0.2423,0.3735,0.5194,0.6677,0.6725,0.7621,0.9363,1.0671,1.14,1.1619,1.1619,1.1619,1.1548,1.14,1.1257,1.1109,0.9582,0.9,0.8783,0.7259,0.668,0.6463,0.4873,0.4367,0.0,0.0,0.0,0.2333,0.2333,0.2333,0.2333,0.2333,0.335,0.4801,0.6536,0.8348,0.9942,1.1329,1.1619,1.1619,1.1619,1.1619,1.1619,1.1619,1.1619,1.1619,1.1619,1.1619,1.1518,1.1233,1.1244,1.106,1.0782,1.0731,1.0721,1.0721,1.0721,1.1769,1.445,1.48,1.6308,1.945,1.985,2.0165,2.0653,2.0665,2.0665,2.0665,2.0665,2.0665,2.0665,1.7642,1.5215,1.338,1.1718,1.0897,1.0873,1.0785,1.0721,1.0721,1.0721,1.0721,1.0721,1.0721,1.0721,1.0721,1.1049,1.1115,1.1181,0.0,0.0,0.0,0.0,0.0,0.0,0.0,0.0,0.0,0.0,0.0,1.1408,1.1408,0.9928,0.8915,0.8915,0.7357,0.603,0.5092,0.3414,0.2469,0.2469,0.2423,0.2398,0.2398,0.2381,0.2373,0.2373,0.3903,0.5499,0.7027,0.786,0.9144,1.0599,1.1329,1.1619,1.1619,1.1619,1.1619,1.1619,1.1619,1.1619,1.1548,1.0818,1.0599,1.038,0.8853,0.8273,0.8056,0.6538,0.5381,0.4584,0.3859,0.0,0.0,0.0,0.2333,0.2478,0.3423,0.4801,0.6393,0.7912,0.9435,1.0743,1.1472,1.1619,1.1619,1.1619,1.1619,1.1619,1.1619,1.1619,1.1619,1.1619,1.1619,1.1511,1.1206,1.1231,1.1053,1.0755,1.0721,1.0721,1.0721,1.0721,1.1901,1.4712,1.4907,1.6287,1.9496,1.9802,2.0062,2.0436,2.0593,2.0665,2.0665,2.0665,2.0593,2.0448,1.7275,1.5346,1.4405,1.1885,1.0819,1.0749,1.0751,1.0721,1.0721,1.0721,1.0721,1.0721,1.0721,1.0787,1.0982,1.1181,1.1317,1.1578,0.0,0.0,0.0,0.0,0.0,0.0,0.0,0.0,0.0,0.0,0.0,1.2501,1.2501,0.0,0.0,0.0,0.9073,0.7279,0.517,0.3414,0.2469,0.2469,0.2418,0.2386,0.2378,0.2356,0.234,0.2333,0.4293,0.5887,0.7042,0.9,1.0527,1.1619,1.1619,1.1619,1.1619,1.1619,1.1619,1.1619,1.1619,1.1619,1.1619,1.1619,1.1619,1.1472,1.0308,0.987,0.9654,0.8129,0.6827,0.5817,0.5381,0.4438,0.0,0.0,0.0,0.3804,0.5043,0.6206,0.7441,0.8972,1.0188,1.1109,1.1476,1.1619,1.1619,1.1619,1.1619,1.1619,1.1619,1.1619,1.1619,1.1619,1.1619,1.1511,1.1206,1.1231,1.1053,1.0755,1.0721,1.0721,1.0721,1.0721,1.1901,1.4712,1.4907,1.6241,1.9322,1.9736,2.0008,2.0267,2.0533,2.0665,2.0665,2.0605,2.0472,2.0273,1.7479,1.6037,1.5742,1.2632,1.1244,1.1178,1.085,1.0721,1.0721,1.0721,1.0721,1.0721,1.0721,1.092,1.1181,1.1314,1.1582,1.1978,0.0,0.0,0.0,0.0,0.0,0.0,0.0,0.0,0.0,0.0,0.0,1.2501,1.2501,1.2424,1.2347,1.2347,1.0862,0.8446,0.5248,0.3414,0.2469,0.2469,0.2438,0.0,0.2379,0.2377,0.2362,0.2333,0.5377,0.6898,0.704,1.0089,1.1548,1.1619,1.1619,1.1619,1.1619,1.1619,1.1619,1.1619,1.1619,1.1619,1.1619,1.1619,1.1619,1.1619,1.1476,1.1472,1.1253,0.9726,0.9144,0.8783,0.7331,0.6825,0.6753,0.0,0.0,0.0,0.7025,0.7099,0.7543,0.9095,0.9451,0.9798,1.1257,1.1619,1.1619,1.1619,1.1619,1.1619,1.1619,1.1619,1.1619,1.1619,1.1619,1.1511,1.1206,1.1231,1.1053,1.0755,1.0721,1.0721,1.0721,1.0721,1.1901,1.4712,1.4907,1.6241,1.9322,1.9736,2.0008,2.0267,2.0533,2.0665,2.0665,2.0418,2.0291,2.0273,1.8267,1.7296,1.7208,1.4081,1.2684,1.2618,1.131,1.0721,1.0721,1.0721,1.0721,1.0721,1.0721,1.092,1.1247,1.1648,1.1978,1.2309,0.0,0.0,0.0,0.0,0.0,0.0,0.0,0.0,0.0,0.0,0.0,0.0,0.0,1.2501,1.2501,1.2501,1.094,0.9459,0.829,0.6628,0.5217,0.4129,0.4081,0.359,0.2512,0.2398,0.2891,0.3833,0.5983,0.7476,0.8492,1.0599,1.1619,1.1619,1.1619,1.1619,1.1619,1.1619,1.1619,1.1619,1.1619,1.1619,1.1619,1.1619,1.1619,1.1619,1.1619,1.1619,1.1548,1.0962,1.0089,0.9216,0.8636,0.7883,0.7141,0.7201,0.7317,0.7568,0.8535,0.8832,0.9189,1.0596,1.0907,1.0995,1.1496,1.1619,1.1619,1.1619,1.1619,1.1619,1.1619,1.1619,1.1619,1.1619,1.1619,1.1548,1.1338,1.1223,1.109,1.089,1.0778,1.0721,1.0721,1.0721,1.1508,1.3407,1.4385,1.5789,1.7824,1.9166,1.9929,2.0026,2.0442,2.0587,2.0418,2.0321,2.0104,1.9754,1.8166,1.7336,1.7044,1.4155,1.2816,1.275,1.131,1.0721,1.0721,1.0721,1.085,1.1052,1.1052,1.138,1.1912,1.2045,1.2309,1.2638,0.0,0.0,0.0,1.2501,0.0,1.2501,1.2501,1.2501,1.2501,1.2501,0.0,0.0,0.0,0.0,1.2501,1.2501,1.094,1.0006,1.0006,0.845,0.6967,0.5874,0.5285,0.4483,0.3391,0.326,0.3743,0.4674,0.6828,0.8309,0.9363,1.089,1.1619,1.1619,1.1619,1.1619,1.1619,1.1619,1.1619,1.1619,1.1619,1.1619,1.1619,1.1619,1.1619,1.1619,1.1619,1.1619,1.1619,1.1619,1.089,1.0089,1.0089,0.9445,0.8745,0.882,0.897,0.9257,1.0312,1.0127,1.0073,1.1559,1.1464,1.1071,1.1496,1.1619,1.1619,1.1619,1.1619,1.1619,1.1619,1.1619,1.1619,1.1619,1.1619,1.1565,1.1413,1.126,1.1111,1.0897,1.0812,1.0721,1.0721,1.0721,1.131,1.2684,1.4124,1.5489,1.691,1.8762,1.979,1.9881,2.0309,2.0412,2.0152,2.0056,1.982,1.9464,1.8455,1.7863,1.763,1.4772,1.3468,1.3407,1.1508,1.0721,1.0721,1.0853,1.0982,1.1181,1.1383,1.178,1.2309,1.2309,1.2507,1.277,1.2501,1.2501,1.2501,1.2501,1.2501,1.2501,1.2501,1.2501,1.2501,1.2501,0.0,0.0,0.0,0.0,0.0,1.2501,1.102,1.0083,1.0083,0.8526,0.7593,0.7593,0.603,0.5141,0.508,0.5076,0.5017,0.4824,0.7996,0.9481,0.9435,1.089,1.1619,1.1619,1.1619,1.1619,1.1619,1.1619,1.1619,1.1619,1.1619,1.1619,1.1619,1.1619,1.1619,1.1619,1.1619,1.1619,1.1619,1.1619,1.1619,1.1619,1.1623,1.1721,1.1833,1.1837,1.205,1.2284,0.0,0.0,0.0,1.1677,1.0724,0.9732,1.1257,1.1619,1.1619,1.1619,1.1619,1.1619,1.1619,1.1619,1.1619,1.1619,1.1619,1.1565,1.1419,1.1267,1.1118,1.0904,1.0819,1.0724,1.0721,1.0721,1.1244,1.2618,1.4058,1.5494,1.685,1.8593,1.9597,1.9875,2.0134,2.014,1.9875,1.9603,1.953,1.9518,1.9193,1.9078,1.9008,1.6208,1.4973,1.4777,1.1963,1.0784,1.0787,1.1052,1.1181,1.1247,1.1648,1.1978,1.2309,1.2309,1.2507,1.277,1.2501,1.2501,1.2501,1.2501,1.2501,1.2501,1.2501,1.2501,1.2501,0.0,0.0,0.0,1.2501,1.2501,1.2501,1.2501,1.2111,1.1798,1.1798,1.1333,1.0552,0.9384,0.8837,0.8043,0.6855,0.6659,0.7105,0.8255,0.8985,0.9908,1.0962,1.14,1.1619,1.1619,1.1619,1.1619,1.1619,1.1619,1.1619,1.1619,1.1619,1.1619,1.1619,1.1619,1.1619,1.1619,1.1619,1.1619,1.1619,1.1619,1.1619,1.1636,1.1738,1.1799,1.1853,1.1965,1.2057,1.2125,1.2125,0.0,0.0,0.0,0.0,0.0,1.1496,1.1619,1.1619,1.1619,1.1619,1.1619,1.1619,1.1619,1.1619,1.1619,1.1619,1.1606,1.1562,1.1423,1.127,1.1121,1.0975,1.0843,1.0731,1.0721,1.085,1.1244,1.3538,1.5038,1.5489,1.8066,1.9597,1.9875,1.9959,1.9863,1.9585,1.9572,1.9374,1.9181,1.9114,1.9078,1.9072,1.7507,1.6208,1.5173,1.3595,1.2421,1.1449,1.1052,1.1118,1.1648,1.178,1.2177,1.2638,1.2638,1.2704,1.277,1.2501,1.2501,1.2501,1.2501,1.2501,1.2501,1.2501,1.2501,1.2501,0.0,0.0,0.0,1.2501,1.2501,1.2501,1.2501,1.2501,1.2501,1.2501,1.2501,1.2034,1.1098,1.0397,0.954,0.8526,0.8366,0.8714,0.958,1.0123,1.08,1.1619,1.1619,1.1619,1.1619,1.1619,1.1619,1.1619,1.1619,1.1619,1.1619,1.1619,1.1619,1.1619,1.1619,1.1619,1.1619,1.1619,1.1619,1.1619,1.1619,1.1619,1.1633,1.1714,1.1782,1.1847,1.1938,1.2013,1.2135,1.2135,1.2013,1.1945,1.1853,0.0,0.0,1.164,1.1619,1.1619,1.1619,1.1619,1.1619,1.1619,1.1619,1.1619,1.1619,1.1619,1.1619,1.1619,1.1487,1.1335,1.1251,1.1036,1.0823,1.0734,1.0721,1.0721,1.0721,1.3341,1.5429,1.6602,1.8463,1.9495,1.9543,1.9652,1.9579,1.9372,1.9301,1.9223,1.9078,1.9078,1.9078,1.9072,1.7963,1.6732,1.5368,1.4245,1.3009,1.178,1.1317,1.1516,1.2045,1.2177,1.2441,1.277,1.277,1.277,1.277,0.0,1.2501,1.2501,1.2501,1.2501,1.2501,1.2501,1.2501,1.2501,0.0,1.2501,1.2501,1.2501,1.2501,1.2501,1.2501,1.2501,1.2501,1.2501,1.2501,1.2501,1.2501,1.1098,1.0233,1.0222,1.0097,0.9977,0.9858,1.1142,1.1742,1.1619,1.1619,1.1619,1.1619,1.1619,1.1619,1.1619,1.1619,1.1619,1.1619,1.1619,1.1619,1.1619,1.1619,1.1619,1.1619,1.1619,1.1619,1.1619,1.1619,1.1619,1.1619,1.1619,1.1704,1.1809,1.1809,1.1904,1.2013,1.2013,1.1911,1.1809,1.1809,1.1711,0.0,1.1619,1.1619,1.1619,1.1619,1.1619,1.1619,1.1619,1.1619,1.1619,1.1619,1.1619,1.1619,1.1619,1.1501,1.1358,1.1206,1.1073,1.087,1.0785,1.0768,1.0761,1.0748,1.335,1.6078,1.8746,1.9231,1.9384,1.9084,1.9301,1.9307,1.9078,1.9142,1.9142,1.9078,1.9136,1.9142,1.9078,1.8221,1.699,1.5629,1.4572,1.3403,1.2107,1.1978,1.2045,1.2309,1.2638,1.277,1.277,1.277,1.277,1.277,1.2501,1.2501,1.2501,1.2501,1.2501,1.2501,1.2501,1.2501,1.2501,1.2501,1.2501,1.2501,1.2501,1.2501,1.2501,1.2501,1.2501,1.2501,1.2501,1.2501,1.2501,1.2501,1.2189,1.1981,1.187,1.1723,1.1577,1.1356,1.1583,1.1647,1.1619,1.1619,1.1619,1.1619,1.1619,1.1619,1.1619,1.1619,1.1619,1.1619,1.1619,1.1619,1.1619,1.1619,1.1619,1.1619,1.1619,1.1619,1.1619,1.1619,1.1619,1.1619,1.1619,1.164,1.166,1.166,1.1681,1.1708,1.1708,1.1684,1.166,1.166,1.164,0.0,1.1619,1.1619,1.1619,1.1619,1.1619,1.1619,1.1619,1.1619,1.1619,1.1619,1.1619,1.1619,1.1619,1.1592,1.1518,1.1365,1.1321,1.1243,1.109,1.1077,1.1029,1.0847,1.336,1.5624,1.7308,1.853,1.9126,1.9078,1.9126,1.9126,1.9078,1.9386,1.9386,1.9078,1.9386,1.9392,1.9142,1.9462,1.881,1.7448,1.6721,1.5549,1.4193,1.3095,1.2507,1.2309,1.2375,1.2572,1.277,1.277,1.277,1.277,1.2501,1.2501,1.2501,1.2501,1.2501,1.2501,1.2501,1.2501,1.2501,1.2501,1.2501,1.2501,1.2501,1.2501,1.2501,1.2501,1.2501,1.2501,1.2501,1.2501,1.2501,1.2501,1.2433,1.2362,1.2291,1.2064,1.1908,1.183,1.1687,1.1619,1.1619,1.1619,1.1619,1.1619,1.1619,1.1619,1.1619,1.1619,1.1619,1.1619,1.1619,1.1619,1.1619,1.1619,1.1619,1.1619,1.1619,1.1619,1.1619,1.1619,1.1619,1.1619,1.1619,1.1619,1.1619,1.1619,1.1619,1.1619,1.1619,1.1619,1.1619,1.1619,1.1619,0.0,0.0,1.1619,1.1619,1.1619,1.1619,1.1619,1.1619,1.1619,1.1619,1.1619,1.1619,1.1619,1.1619,1.1619,1.1562,1.1409,1.1392,1.1331,1.1175,1.1231,1.144,1.1887,1.3773,1.5489,1.691,1.8355,1.9078,1.9078,1.9078,1.9078,1.9078,1.945,1.9514,1.9328,1.9711,1.9781,1.959,2.0106,1.9577,1.8221,1.8075,1.7232,1.5879,1.5168,1.4777,1.4516,1.3091,1.2638,1.277,1.277,1.277,1.2902,1.2501,1.2501,1.2501,1.2501,1.2501,1.2501,1.2501,1.2501,1.2501,1.2501,1.2501,1.2501,1.2501,1.2501,1.2501,1.2501,1.2501,1.2501,1.2501,1.2501,1.2488,1.2464,1.2352,1.226,1.2203,1.1959,1.1816,1.1789,1.1677,1.1619,1.1619,1.1619,1.1619,1.1619,1.1619,1.1619,1.1619,1.1619,1.1619,1.1619,1.1619,1.1619,1.1619,1.1619,1.1619,1.1619,1.1619,1.1619,1.1619,1.1619,1.1619,1.1619,1.1619,1.1619,1.1619,1.1619,1.1619,1.1619,1.1619,1.1619,1.1619,1.1619,1.1619,1.1619,0.0,0.0,0.0,1.1619,1.1619,1.1619,1.1619,1.1619,1.1619,1.1619,1.1619,1.1619,1.1619,1.1619,1.1572,1.145,1.1436,1.1385,1.1263,1.1199,1.1588,1.2597,1.4055,1.5429,1.6522,1.8221,1.9078,1.9078,1.9078,1.9142,1.92,1.952,1.9711,1.9711,2.0036,2.017,2.0106,2.0418,1.996,1.8926,1.8978,1.839,1.7361,1.7109,1.6953,1.6657,1.4441,1.3617,1.3617,1.3617,1.3617,1.3744,1.2501,1.2501,1.2501,1.2501,1.2501,1.2501,1.2501,1.2501,1.2501,1.2501,1.2501,1.2501,1.2501,1.2501,1.2501,1.2501,1.2501,1.2501,1.2501,1.2501,1.2444,1.2322,1.2298,1.2162,1.1887,1.1847,1.1769,1.1643,1.1626,1.1619,1.1619,1.1619,1.1619,1.1619,1.1619,1.1619,1.1619,1.1619,1.1619,1.1619,1.1619,1.1619,1.1619,1.1619,1.1619,1.1619,1.1619,1.1619,1.1619,1.1619,1.1619,1.1619,1.1619,1.1619,1.1619,1.1619,1.1619,1.1619,1.1619,1.1619,1.1619,1.1619,1.1619,1.1619,1.1619,0.0,1.1619,1.1619,0.0,1.1619,1.1619,0.0,0.0,1.1619,1.1619,1.1619,1.1619,1.1619,1.1613,1.1596,1.1592,1.1586,1.1569,1.1321,1.1293,1.141,1.3602,1.4973,1.5103,1.7641,1.9078,1.9078,1.9078,1.9264,1.9514,1.9909,2.0043,2.0043,2.0354,2.0418,2.0106,2.0418,2.0539,2.0284,1.9431,1.8908,1.8652,1.749,1.6786,1.6557,1.6508,1.6527,1.6527,1.6527,1.6527,1.6527,1.2501,1.2501,1.2501,1.2501,1.2501,1.2501,1.2501,1.2501,1.2501,1.2501,1.2501,1.2501,1.2501,1.2501,1.2501,1.2501,1.2501,1.2501,1.2501,1.2423,1.2352,1.2291,1.2118,1.1962,1.1833,1.1748,1.1681,1.1619,1.1619,1.1619,1.1619,1.1619,1.1619,1.1619,1.1619,1.1619,1.1619,1.1619,1.1619,1.1619,1.1835,1.1979,1.1907,1.1691,1.1619,1.1619,1.1619,1.1619,1.1619,1.1619,1.1619,1.1619,1.1619,1.1619,1.1619,1.1619,1.1619,1.1619,1.1619,1.1619,1.1619,1.1619,1.1619,1.1619,1.1619,1.1619,1.1619,1.1619,0.0,0.0,0.0,0.0,0.0,0.0,1.1619,1.1619,1.1619,1.1619,1.1619,1.1619,1.1619,1.1619,1.1619,1.1341,1.1231,1.1231,1.3482,1.4907,1.4907,1.7577,1.9078,1.9078,1.9264,1.945,1.9577,2.01,2.0418,2.0418,2.0736,2.0792,2.0672,2.0862,2.0919,2.0856,2.0399,2.0112,1.9959,1.9386,1.8969,1.8674,1.879,1.7977,1.6706,1.6706,1.6856,1.7109,1.2656,1.2579,1.2501,1.2501,1.2501,1.2501,1.2501,1.2501,1.2501,1.2501,1.2501,1.2501,1.2501,1.2501,1.2501,1.2501,1.2501,1.2484,1.2447,1.2345,1.2254,1.2169,1.1952,1.1813,1.1775,1.1674,1.1619,1.1619,1.1619,1.1619,1.1619,1.1619,1.1619,1.1619,1.1619,1.1619,1.1619,1.1691,1.1763,1.176,1.2148,1.2244,1.2137,1.197,1.1844,1.1837,1.165,1.1636,1.1636,1.1494,1.1494,1.1494,1.1494,1.1525,1.1555,1.1555,1.1586,1.1619,1.1619,1.1619,1.1619,1.1619,1.1619,1.1619,1.1619,1.1619,1.1619,1.1619,1.1619,0.0,0.0,0.0,1.1619,1.1619,0.0,1.1619,1.1619,1.1619,1.1619,1.1619,1.1619,1.1619,1.1619,1.1341,1.1231,1.1231,1.3482,1.4907,1.4907,1.7577,1.9136,1.92,1.945,1.9705,1.9896,2.0348,2.0672,2.0729,2.0982,2.1109,2.1109,2.1109,2.1109,2.1109,2.1029,2.0869,2.0668,2.0588,2.0381,2.0114,2.0114,1.9004,1.7445,1.7582,1.7857,1.8267,1.3042,1.2733,1.2501,1.2501,1.2501,1.2501,1.2501,1.2501,1.2501,1.2501,1.2501,1.2501,1.2501,1.2501,1.2501,1.2501,1.2501,1.2444,1.2305,1.2291,1.2159,1.186,1.1837,1.1769,1.163,1.1619,1.1619,1.1619,1.1619,1.1619,1.1619,1.1619,1.1619,1.1619,1.1619,1.1619,1.1619,1.2051,1.2194,1.218,1.2381,1.2355,1.2229,1.2392,1.2455,1.2433,1.1854,1.1728,1.1659,1.1313,1.1175,1.1175,1.1175,1.1277,1.1399,1.1399,1.1504,1.1619,1.1619,1.1619,1.1619,1.1619,1.1619,1.1619,1.1619,1.1619,1.1619,1.1619,1.1619,1.1619,1.1619,1.1619,1.1619,1.1619,1.1619,0.0,0.0,1.1619,1.1619,1.1619,1.1619,1.1619,1.1619,1.1341,1.1231,1.1231,1.3482,1.4907,1.4907,1.7577,1.9264,1.9577,1.9577,1.9903,2.0545,2.0609,2.0729,2.1109,2.1109,2.1109,2.1109,2.1109,2.1109,2.1096,2.0815,2.0681,2.0655,2.0368,2.0074,1.9813,1.9813,1.976,1.9774,2.0338,2.073,2.0982,1.3509,1.3355,1.3123,1.2579,1.2501,1.2501,1.2501,1.2501,1.2501,1.2501,1.2501,1.2501,1.2501,1.2501,1.2464,1.2369,1.2362,1.2298,1.2149,1.2043,1.1942,1.1837,1.1742,1.167,1.1619,1.1619,1.1619,1.1619,1.1619,1.1619,1.1619,1.1619,1.1619,1.1619,1.1907,1.1979,1.2051,1.2402,1.2554,1.2448,1.2626,1.28,1.296,1.2466,1.2281,1.227,1.2076,1.2054,1.1989,1.192,1.1851,1.1851,1.1851,1.1887,1.1934,1.1934,1.1831,1.1734,1.1944,1.1804,1.1664,1.1664,1.1664,1.1594,1.1388,1.1318,1.1318,1.1318,1.1318,1.1318,1.1318,1.1399,1.1467,1.1467,1.1552,1.1619,0.0,1.1619,1.1619,1.1619,1.1619,1.1579,1.148,1.1284,1.1124,1.1029,1.2555,1.3927,1.4842,1.6662,1.8279,1.9577,1.9839,2.0164,2.0609,2.0792,2.0982,2.1109,2.1109,2.1109,2.1109,2.1109,2.1002,2.0815,2.0722,2.0454,2.0087,1.9987,1.9773,1.9512,1.9512,1.9633,1.9846,2.0241,2.0575,2.0848,1.3975,1.3818,1.3509,1.3042,1.2965,1.2888,1.2733,1.2811,1.2888,1.2733,1.2811,1.2965,1.2965,1.2916,1.2845,1.275,1.2691,1.2521,1.2212,1.2255,1.2102,1.1759,1.1811,1.1763,1.1619,1.1619,1.1619,1.1619,1.1619,1.1619,1.1619,1.1619,1.1691,1.1835,1.2051,1.2266,1.2474,1.2768,1.2824,1.271,1.2819,1.303,1.3114,1.2636,1.2467,1.2509,1.2316,1.2229,1.2229,1.209,1.209,1.209,1.209,1.2062,1.2111,1.2111,1.2014,1.192,1.2123,1.2058,1.1848,1.1848,1.1848,1.1783,1.1438,1.1369,1.1369,1.1369,1.13,1.1231,1.1369,1.1382,1.1311,1.1311,1.144,1.1558,0.0,1.1619,1.1619,1.1619,1.1619,1.1558,1.1406,1.1253,1.1104,1.089,1.2062,1.3403,1.4842,1.6268,1.7823,1.9711,1.9973,2.0297,2.0799,2.0982,2.1109,2.1109,2.1109,2.1109,2.1109,2.1002,2.0855,2.0668,2.0454,2.0154,1.9793,1.9686,1.9539,1.9424,1.9424,1.9486,1.9693,2.0087,2.0488,2.0855,1.4596,1.413,1.374,1.374,1.374,1.3586,1.32,1.3432,1.3586,1.32,1.3425,1.3652,1.3652,1.358,1.3476,1.3468,1.3331,1.2948,1.2415,1.2773,1.2561,1.1695,1.2051,1.2051,1.1691,1.1619,1.1619,1.1619,1.1619,1.1619,1.1619,1.1619,1.1835,1.2194,1.2266,1.247,1.2802,1.3009,1.3142,1.3095,1.309,1.2982,1.277,1.277,1.2938,1.2992,1.25,1.2309,1.2309,1.1978,1.1846,1.1846,1.1846,1.1959,1.2019,1.2019,1.2123,1.2239,1.2239,1.2239,1.217,1.217,1.217,1.2101,1.1761,1.1689,1.1689,1.1689,1.1482,1.1348,1.1623,1.142,1.122,1.122,1.128,1.143,1.1575,1.1596,1.1596,1.1596,1.1596,1.1541,1.1396,1.1243,1.1094,1.088,1.1992,1.3341,1.4842,1.6138,1.7888,2.0043,2.0106,2.0418,2.1109,2.1109,2.1109,2.1109,2.1109,2.1102,2.1076,2.0802,2.0661,2.0601,2.004,1.9793,1.976,1.9486,1.9424,1.9424,1.9424,1.9444,1.9472,2.0034,2.0608,2.1109,1.6873,1.5578,1.4661,1.4661,1.4122,1.3663,1.3586,1.3663,1.3663,1.3586,1.3556,1.3554,1.3554,1.3413,1.3267,1.314,1.3092,1.2922,1.2683,1.2816,1.2729,1.247,1.2613,1.2613,1.247,1.2191,1.2051,1.2051,1.1763,1.1619,1.1619,1.1907,1.2122,1.2194,1.276,1.3049,1.3071,1.331,1.3347,1.3078,1.2928,1.2877,1.277,1.277,1.2798,1.2831,1.272,1.2638,1.2638,1.2572,1.2572,1.2572,1.2572,1.2538,1.2574,1.2574,1.2472,1.2304,1.257,1.2437,1.2237,1.2237,1.2237,1.217,1.1836,1.177,1.177,1.177,1.1703,1.1569,1.1368,1.14,1.1346,1.1002,1.1128,1.1236,1.1274,1.128,1.128,1.128,1.128,1.1263,1.1226,1.109,1.0941,1.0792,1.107,1.2293,1.4777,1.5233,1.6856,1.9979,2.0106,2.0418,2.1109,2.1109,2.1109,2.1109,2.1109,2.0995,2.0782,2.0708,2.0441,2.0013,1.9867,1.9679,1.9472,1.9457,1.9424,1.9424,1.9424,1.9633,2.0027,2.018,2.0608,2.1109,1.8608,1.7697,1.6832,1.6067,1.5523,1.4947,1.4114,1.4126,1.4172,1.395,1.3934,1.3993,1.3916,1.3761,1.3625,1.3528,1.3447,1.329,1.3047,1.3182,1.3111,1.2824,1.2968,1.2968,1.2824,1.2613,1.2474,1.2474,1.2259,1.2115,1.2115,1.233,1.2549,1.2689,1.3114,1.3306,1.3352,1.3331,1.3238,1.2974,1.2877,1.277,0.0,1.277,1.3161,1.3744,1.3744,1.3288,1.277,1.277,1.277,1.2902,1.3551,1.3744,1.3809,1.4455,1.4067,1.3481,1.3678,1.3547,1.3284,1.27,1.296,1.3218,1.2239,1.2045,1.2045,1.2045,1.1912,1.178,1.1714,1.1522,1.1273,1.0938,1.1016,1.109,1.1224,1.1231,1.1231,1.1231,1.1107,1.107,1.107,1.0995,1.0816,1.0731,1.0721,1.1901,1.4782,1.4907,1.6532,1.9979,1.9973,2.0284,2.1109,2.0919,2.0919,2.1109,2.1109,2.0955,2.0675,2.0541,2.0234,1.9793,1.9666,1.9519,1.9424,1.9424,1.9424,1.9424,1.9424,1.9646,2.006,2.0187,2.0608,2.1109,2.0074,1.9919,1.9248,1.7707,1.7399,1.6884,1.5327,1.5178,1.5099,1.4565,1.4906,1.5193,1.5003,1.4679,1.443,1.443,1.4137,1.3757,1.3396,1.3686,1.3615,1.2968,1.3253,1.3253,1.2968,1.2896,1.2896,1.2896,1.2824,1.2824,1.2824,1.2824,1.3039,1.3325,1.3302,1.3401,1.3477,1.3206,1.2974,1.277,1.277,1.2902,1.3095,1.3095,1.3936,1.5168,1.5168,1.4394,1.3354,1.3354,1.3354,1.3547,1.4782,1.5168,1.5424,1.6651,1.6138,1.5168,1.5168,1.5168,1.4912,1.3682,1.4263,1.4777,1.3284,1.2894,1.2828,1.27,1.2437,1.2239,1.2309,1.1714,1.1161,1.0897,1.085,1.0962,1.1087,1.1104,1.1104,1.1104,1.0995,0.0,1.085,1.085,1.0796,1.0731,1.0721,1.1901,1.4782,1.4907,1.6532,1.9979,1.9839,2.0151,2.1109,2.0799,2.0799,2.1109,2.1069,2.0902,2.0608,2.0314,2.0013,1.9726,1.9472,1.9424,1.9424,1.9424,1.9424,1.9424,1.9424,1.9546,1.9833,2.0127,2.0581,2.1056,2.1718,2.0416,1.9367,1.9027,1.9175,1.9236,1.89,1.7623,1.6674,1.6408,1.7517,1.8196,1.7975,1.6615,1.5786,1.5786,1.4625,1.39,1.3829,1.3829,1.3829,1.3686,1.3757,1.3757,1.3686,1.3396,1.3182,1.3182,1.2968,1.2824,1.2824,1.3111,1.3253,1.3321,1.3467,1.3433,1.3177,1.297,1.2798,1.277,1.277,1.3486,1.452,1.452,1.5429,1.6656,1.6656,1.6462,1.6268,1.6268,1.6268,1.6333,1.6527,1.6656,1.6651,1.6915,1.685,1.6656,1.6656,1.6656,1.6586,1.6333,1.6462,1.6527,1.6268,1.6203,1.5879,1.4712,1.439,1.3932,1.2568,1.1714,1.1125,1.0821,1.0761,1.0768,1.0795,1.0799,1.0799,1.0799,1.0775,1.0761,1.0761,1.0761,1.0748,1.0721,1.0721,1.1901,1.4782,1.4907,1.6532,1.9979,2.0043,2.0354,2.1109,2.1046,2.1046,2.1109,2.0869,2.0595,2.0301,2.0007,1.972,1.9497,1.945,1.9424,1.9424,1.9424,1.9424,1.9424,1.9424,1.9546,1.9833,2.0127,2.0454,2.0788,2.3408,2.2633,2.184,2.0887,2.0705,2.0399,1.9588,1.9314,1.8909,1.8145,1.8555,1.8826,1.8584,1.7822,1.7268,1.7268,1.6635,1.5867,1.5097,1.5026,1.4675,1.39,1.39,1.39,1.39,1.3686,1.3615,1.3615,1.3472,1.34,1.34,1.3539,1.3615,1.3603,1.355,1.3352,1.3084,1.2909,1.277,1.2836,1.3613,1.4329,1.4973,1.5684,1.6845,1.8069,1.8069,1.8524,1.8914,1.7496,1.698,1.7103,1.7812,1.8069,1.8203,1.8914,1.8588,1.8069,1.8069,1.8069,1.7876,1.7168,1.749,1.7876,1.7168,1.698,1.678,1.6138,1.6009,1.5489,1.3735,1.2499,1.1648,1.1317,1.1251,1.1185,1.0982,1.0986,1.0986,1.0986,1.0986,1.0986,1.0986,1.0986,1.0916,1.0721,1.0721,1.2029,1.5033,1.5163,1.6786,2.0227,2.017,2.0418,2.1109,2.0919,2.0846,2.0882,2.0742,2.0441,2.0,1.9867,1.9639,1.9424,1.9424,1.9424,1.9424,1.9424,1.9424,1.9424,1.9424,1.9452,1.9633,2.0067,2.0327,2.0508,2.4529,2.4496,2.4003,2.2585,2.2193,2.1631,2.0272,2.0912,2.1106,1.9648,1.958,1.958,1.939,1.9083,1.8874,1.8874,1.8594,1.7895,1.6639,1.6569,1.5938,1.4466,1.4395,1.4252,1.39,1.39,1.39,1.39,1.39,1.39,1.39,1.39,1.3859,1.3774,1.3794,1.368,1.349,1.3611,1.3678,1.3809,1.4907,1.5489,1.5879,1.6974,1.8267,1.9425,1.9425,2.0138,2.0786,1.8588,1.7876,1.8075,1.91,1.9425,1.968,2.0786,2.0329,1.9425,1.9425,1.9425,1.917,1.8139,1.8652,1.917,1.8139,1.7876,1.7818,1.749,1.7168,1.6522,1.5093,1.3927,1.2951,1.2301,1.2495,1.2363,1.1446,1.1508,1.1574,1.138,1.1181,1.1247,1.1703,1.1376,1.1181,1.1372,1.1306,1.2483,1.5219,1.5739,1.7361,2.0482,2.0354,2.0482,2.1109,2.0803,2.0658,2.0675,2.0548,2.0247,1.98,1.9733,1.9586,1.9424,1.9424,1.9424,1.9424,1.9424,1.9424,1.9424,1.9424,1.9424,1.9432,2.002,2.0173,2.0314,2.4195,2.4035,2.3841,2.3672,2.3786,2.3773,2.3444,2.3225,2.2543,2.0904,2.1968,2.2782,2.2474,2.1252,2.0421,2.0421,1.9153,1.8315,1.817,1.8175,1.7474,1.5943,1.5872,1.5239,1.39,1.39,1.39,1.39,1.39,1.39,1.39,1.39,1.3729,1.3482,1.4544,1.4931,1.4805,1.6084,1.6592,1.6592,1.6716,1.7555,1.8652,1.878,1.9686,2.0912,2.0912,2.0982,2.1046,2.0786,2.0722,2.0722,2.0849,2.0912,2.0912,2.1046,2.0982,2.0912,2.0912,2.0912,2.0849,2.0722,2.0786,2.0849,2.0722,2.0722,2.0335,1.91,1.7882,1.6845,1.6317,1.6123,1.5469,1.3853,1.4688,1.4628,1.2103,1.2553,1.2742,1.1843,1.1118,1.1505,1.3394,1.1831,1.1505,1.3394,1.3259,1.3718,1.5349,1.6904,1.8658,2.0545,2.0545,2.0736,2.1109,2.0848,2.0702,2.0668,2.0134,1.9853,1.9793,1.9526,1.9392,1.9424,1.9424,1.9424,1.9424,1.9424,1.9424,1.9424,1.9424,1.9424,1.9432,2.002,2.0173,2.0314,2.3921,2.3848,2.3774,2.3774,2.3721,2.3641,2.3521,2.3247,2.2832,2.219,2.2687,2.2999,2.2879,2.2372,2.1953,2.1953,2.1459,2.0692,1.9785,1.9715,1.9013,1.7549,1.7479,1.7198,1.6635,1.6635,1.6635,1.6635,1.5655,1.5239,1.5239,1.5239,1.5514,1.5997,1.624,1.6282,1.6203,1.6786,1.698,1.7044,1.7882,1.8518,1.91,1.9941,2.0589,2.1109,2.1109,2.1109,2.1109,2.1109,2.1109,2.1109,2.1109,2.1109,2.1109,2.1109,2.1109,2.1109,2.1109,2.1109,2.1109,2.1109,2.1109,2.1109,2.1109,2.1109,2.0919,2.0399,1.917,1.8133,1.7999,1.7291,1.6517,1.5804,1.6188,1.6058,1.4763,1.4889,1.5014,1.4633,1.4306,1.4432,1.5274,1.4623,1.4367,1.5009,1.3975,1.4106,1.5923,1.7479,1.91,2.0856,2.0919,2.0903,2.0848,2.0735,2.0501,2.0147,1.9913,1.9713,1.9539,1.9419,1.9424,1.9424,1.9424,1.9424,1.9424,1.9424,1.9424,1.9424,1.9424,1.9424,1.9477,1.982,2.0087,2.0233,2.3754,2.3701,2.3641,2.3641,2.3467,2.3293,2.3207,2.3006,2.2928,2.2928,2.2928,2.2928,2.2928,2.2928,2.2928,2.2928,2.2928,2.2441,2.1327,2.1258,2.0623,1.9083,1.9083,1.8874,1.8385,1.8379,1.8379,1.8379,1.7338,1.678,1.6775,1.6653,1.6983,1.768,1.7697,1.7657,1.7625,1.8011,1.8203,1.8267,1.9234,1.9616,1.975,2.0722,2.1109,2.1109,2.1109,2.1109,2.1109,2.1109,2.1109,2.1109,2.1109,2.1109,2.1109,2.1109,2.1109,2.1109,2.1109,2.1109,2.1109,2.1109,2.1109,2.1109,2.1109,2.1109,2.1109,2.1109,2.0335,1.9616,1.9616,1.8844,1.8075,1.7683,1.7941,1.7812,1.6705,1.6834,1.6894,1.6641,1.6377,1.6506,1.7093,1.6635,1.6436,1.6759,1.5594,1.5464,1.6958,1.8442,1.9807,2.1046,2.1029,2.0882,2.0681,2.0501,2.0207,1.98,1.9713,1.9566,1.9424,1.9424,1.9424,1.9424,1.9424,1.9424,1.9424,1.9424,1.9424,1.9424,1.9424,1.9424,1.9406,1.9693,1.9927,2.0147,2.3714,2.3534,2.3333,2.3333,2.3327,2.322,2.2919,2.2934,2.2928,2.2928,2.2928,2.2928,2.2928,2.2928,2.2928,2.2928,2.2928,2.2859,2.2859,2.2859,2.2166,2.0629,2.056,1.9854,1.8449,1.8379,1.8379,1.8379,1.8385,1.8385,1.8369,1.7916,1.7696,1.7741,1.8629,1.8978,1.91,2.0462,2.1046,2.1046,2.1046,2.1046,2.1109,2.1109,2.1109,2.1109,2.1109,2.1109,2.1109,2.1109,2.1109,2.1109,2.1109,2.1109,2.1109,2.1109,2.1109,2.1109,2.1109,2.1109,2.1109,2.1109,2.1109,2.1109,2.1109,2.1109,2.1109,2.1109,2.1109,2.1046,2.1046,2.1046,2.0589,1.9228,2.0138,2.0075,1.7367,1.7871,1.8127,1.7103,1.6377,1.6695,1.8774,1.7087,1.6759,1.8844,1.864,1.8442,1.8442,2.0132,2.1109,2.1109,2.0828,2.0681,2.0675,2.01,1.9806,1.98,1.9506,1.943,1.9424,1.9424,1.9424,1.9424,1.9424,1.9424,1.9424,1.9424,1.9424,1.9424,1.9424,1.9424,1.9406,1.9693,1.9806,1.9846,2.3202,2.3073,2.3006,2.3006,2.3006,2.2979,2.2879,2.2928,2.2928,2.2928,2.2928,2.2928,2.2928,2.2928,2.2928,2.2928,2.2928,2.2928,2.2928,2.2928,2.2654,2.2166,2.216,2.1953,2.1459,2.1459,2.1459,2.1459,2.0409,1.9836,1.9593,1.9261,1.9549,2.0347,2.0432,2.0462,2.0462,2.0912,2.1109,2.1109,2.1109,2.1109,2.1109,2.1109,2.1109,2.1109,2.1109,2.1109,2.1109,2.1109,2.1109,2.1109,2.1109,2.1109,2.1109,2.1109,2.1109,2.1109,2.1109,2.1109,2.1109,2.1109,2.1109,2.1109,2.1109,2.1109,2.1109,2.1109,2.1109,2.1109,2.1109,2.1109,2.0976,2.0526,2.0786,2.0786,1.9947,2.0068,2.0132,1.9814,1.9616,1.968,2.0399,1.9807,1.9737,2.0392,2.0329,1.9871,1.8902,2.0265,2.1022,2.0822,2.0722,2.0481,2.008,1.9893,1.97,1.9506,1.947,1.9424,1.9424,1.9424,1.9424,1.9424,1.9424,1.9424,1.9424,1.9424,1.9424,1.9424,1.9424,1.9424,1.9437,1.9472,1.9633,1.9813,2.2928,2.2928,2.2928,2.2928,2.2928,2.2928,2.2928,2.2928,2.2928,2.2928,2.2928,2.2928,2.2928,2.2928,2.2928,2.2928,2.2928,2.2928,2.2928,2.2928,2.2928,2.2928,2.2928,2.2928,2.2928,2.2928,2.2928,2.2928,2.1776,2.122,2.1044,2.0668,2.0869,2.1601,2.1243,2.1109,2.1109,2.1109,2.1109,2.1109,2.1109,2.1109,2.1109,2.1109,2.1109,2.1109,2.1109,2.1109,2.1109,2.1109,2.1109,2.1109,2.1109,2.1109,2.1109,2.1109,2.1109,2.1109,2.1109,2.1109,2.1109,2.1109,2.1109,2.1109,2.1109,2.1109,2.1109,2.1109,2.1109,2.1109,2.1109,2.1109,2.1109,2.1109,2.1109,2.1109,2.1109,2.1109,2.1109,2.1109,2.1109,2.1109,2.1109,2.1109,2.1062,2.0955,2.0949,2.0512,1.9512,2.0374,2.0862,2.0681,2.0461,2.0174,1.9806,1.9693,1.9546,1.9424,1.9424,1.9424,1.9424,1.9424,1.9424,1.9424,1.9424,1.9424,1.9424,1.9424,1.9424,1.9424,1.9424,1.9424,1.9424,1.9424,1.9486,1.9639,2.2928,2.2928,2.2928,2.2928,2.2928,2.2928,2.2928,2.2928,2.2928,2.2928,2.2928,2.2928,2.2928,2.2928,2.2928,2.2928,2.2928,2.2928,2.2928,2.2928,2.2928,2.2928,2.2928,2.2928,2.2928,2.2928,2.2921,2.2901,2.2532,2.2378,2.2345,2.1804,2.1608,2.1574,2.1229,2.1109,2.1109,2.1109,2.1109,2.1109,2.1109,2.1109,2.1109,2.1109,2.1109,2.1109,2.1109,2.1109,2.1109,2.1109,2.1109,2.1109,2.1109,2.1109,2.1109,2.1109,2.1109,2.1109,2.1109,2.1109,2.1109,2.1109,2.1109,2.1109,2.1109,2.1109,2.1109,2.1109,2.1109,2.1109,2.1109,2.1109,2.1109,2.1109,2.1109,2.1109,2.1109,2.1109,2.1109,2.1109,2.1109,2.1102,2.1082,2.1082,2.0955,2.0668,2.0648,2.0528,2.0247,2.0474,2.0615,2.0615,2.0087,1.9786,1.9773,1.9499,1.9424,1.9424,1.9424,1.9424,1.9424,1.9424,1.9424,1.9424,1.9424,1.9424,1.9424,1.9424,1.9424,1.9424,1.9424,1.9424,1.9424,1.9424,1.9424,1.9424,2.2928,2.2928,2.2928,2.2928,2.2928,2.2928,2.2928,2.2928,2.2928,2.2928,2.2928,2.2928,2.2928,2.2928,2.2928,2.2928,2.2928,2.2928,2.2928,2.2928,2.2928,2.2928,2.2928,2.2928,2.2928,2.2928,2.2752,2.2525,2.2231,2.1977,2.1822,2.1681,2.143,2.1209,2.1142,2.1109,2.1109,2.1109,2.1109,2.1109,2.1109,2.1109,2.1109,2.1109,2.1109,2.1109,2.1109,2.1109,2.1109,2.1109,2.1109,2.1109,2.1109,2.1109,2.1109,2.1109,2.1109,2.1109,2.1109,2.1109,2.1109,2.1109,2.1109,2.1109,2.1109,2.1109,2.1109,2.1109,2.1109,2.1109,2.1109,2.1109,2.1109,2.1109,2.1109,2.1109,2.1109,2.1109,2.1109,2.1109,2.1109,2.1022,2.0802,2.0775,2.0655,2.0361,2.0334,2.0307,2.0173,2.0087,2.0007,2.0007,1.9873,1.9693,1.9472,1.9406,1.9424,1.9424,1.9424,1.9424,1.9424,1.9424,1.9424,1.9424,1.9424,1.9424,1.9424,1.9424,1.9424,1.9424,1.9424,1.9424,1.9424,1.9424,1.9424,1.9424,2.2928,2.2928,2.2928,2.2928,2.2928,2.2928,2.2928,2.2928,2.2928,2.2928,2.2928,2.2928,2.2928,2.2928,2.2928,2.2928,2.2928,2.2928,2.2928,2.2928,2.2928,2.2928,2.2928,2.2928,2.2928,2.2732,2.2519,2.2218,2.1931,2.171,2.1614,2.141,2.1263,2.1109,2.1109,2.1109,2.1109,2.1109,2.1109,2.1109,2.1109,2.1109,2.1109,2.1109,2.1109,2.1109,2.1109,2.1109,2.1109,2.1109,2.1109,2.1109,2.1109,2.1109,2.1109,2.1109,2.1109,2.1109,2.1109,2.1109,2.1109,2.1109,2.1109,2.1109,2.1109,2.1109,2.1109,2.1109,2.1109,2.1109,2.1109,2.1109,2.1109,2.1109,2.1109,2.1109,2.1109,2.1109,2.1109,2.1109,2.0995,2.0848,2.0688,2.0555,2.0354,2.0054,2.0034,1.9973,1.9846,1.9686,1.9659,1.98,1.9673,1.9526,1.9424,1.9424,1.9424,1.9424,1.9424,1.9424,1.9424,1.9424,1.9424,1.9424,1.9424,1.9424,1.9424,1.9424,1.9424,1.9424,1.9424,1.9424,1.9424,1.9424,1.9424,1.9424,2.2928,2.2928,2.2928,2.2928,2.2928,2.2928,2.2928,2.2928,2.2928,2.2928,2.2928,2.2928,2.2928,2.2928,2.2928,2.2928,2.2928,2.2928,2.2928,2.2928,2.2928,2.2928,2.2928,2.2928,2.2928,2.2525,2.2211,2.1924,2.163,2.1547,2.1541,2.1229,2.1109,2.1109,2.1109,2.1109,2.1109,2.1109,2.1109,2.1109,2.1109,2.1109,2.1109,2.1109,2.1109,2.1109,2.1109,2.1109,2.1109,2.1109,2.1109,2.1109,2.1109,2.1109,2.1109,2.1109,2.1109,2.1109,2.1109,2.1109,2.1109,2.1109,2.1109,2.1109,2.1109,2.1109,2.1109,2.1109,2.1109,2.1109,2.1109,2.1109,2.1109,2.1109,2.1109,2.1109,2.1109,2.1109,2.1089,2.1049,2.0828,2.0641,2.0555,2.0314,2.0047,1.976,1.9733,1.9626,1.9379,1.9424,1.9479,1.9726,1.9499,1.9424,1.9424,1.9424,1.9424,1.9424,1.9424,1.9424,1.9424,1.9424,1.9424,1.9424,1.9424,1.9424,1.9424,1.9424,1.9424,1.9424,1.9424,1.9424,1.9424,1.9424,1.9424,1.9424,2.2928,2.2928,2.2928,2.2928,2.2928,2.2928,2.2928,2.2928,2.2928,2.2928,2.2928,2.2928,2.2928,2.2928,2.2928,2.2928,2.2928,2.2928,2.2928,2.2928,2.2928,2.2928,2.2928,2.2928,2.2928,2.2331,2.1911,2.1688,2.1323,2.1182,2.1176,2.1129,2.1109,2.1109,2.1109,2.1109,2.1109,2.1109,2.1109,2.1109,2.1109,2.1109,2.1109,2.1109,2.1109,2.1109,2.1109,2.1109,2.1109,2.1109,2.1109,2.1109,2.1109,2.1109,2.1109,2.1109,2.1109,2.1109,2.1109,2.1109,2.1109,2.1109,2.1109,2.1109,2.1109,2.1109,2.1109,2.1109,2.1109,2.1109,2.1109,2.1109,2.1109,2.1109,2.1109,2.1109,2.1109,2.1109,2.1022,2.0775,2.0708,2.0481,1.998,1.9893,1.9746,1.9459,1.9432,1.9412,1.943,1.9424,1.945,1.9432,1.9392,1.9424,1.9424,1.9424,1.9424,1.9424,1.9424,1.9424,1.9424,1.9424,1.9424,1.9424,1.9424,1.9424,1.9424,1.9424,1.9424,1.9424,1.9424,1.9424,1.9424,1.9424,1.9424,1.9424,2.2928,2.2928,2.2928,2.2928,2.2928,2.2928,2.2928,2.2928,2.2928,2.2928,2.2928,2.2928,2.2928,2.2928,2.2928,2.2928,2.2928,2.2928,2.2928,2.2928,2.2928,2.2928,2.2928,2.278,2.2398,2.2124,2.1764,2.1309,2.1176,2.1109,2.1109,2.1109,2.1109,2.1109,2.1109,2.1109,2.1109,2.1109,2.1109,2.1109,2.1109,2.1109,2.1109,2.1109,2.1109,2.1109,2.1109,2.1109,2.1109,2.1109,2.1109,2.1109,2.1109,2.1109,2.1109,2.1109,2.1109,2.1109,2.1109,2.1109,2.1109,2.1109,2.1109,2.1109,2.1109,2.1109,2.1109,2.1109,2.1109,2.1109,2.1109,2.1109,2.1109,2.1109,2.1109,2.1109,2.1109,2.1109,2.1002,2.0715,2.0535,2.0267,1.984,1.9659,1.9512,1.9437,1.9424,1.9424,1.9424,1.9424,1.9424,1.9424,1.9424,1.9424,1.9424,1.9424,1.9424,1.9424,1.9424,1.9424,1.9424,1.9424,1.9424,1.9424,1.9424,1.9424,1.9424,1.9424,1.9424,1.9424,1.9424,1.9424,1.9424,1.9424,1.9424,1.9424,2.2928,2.2928,2.2928,2.2928,2.2928,2.2928,2.2928,2.2928,2.2928,2.2928,2.2928,2.2928,2.2928,2.2928,2.2928,2.2928,2.2928,2.2928,2.2928,2.2928,2.2928,2.2928,2.2928,2.2585,2.1997,2.1984,2.1697,2.1109,2.1109,2.1109,2.1109,2.1109,2.1109,2.1109,2.1109,2.1109,2.1109,2.1109,2.1109,2.1109,2.1109,2.1109,2.1109,2.1109,2.1109,2.1109,2.1109,2.1109,2.1109,2.1109,2.1109,2.1109,2.1109,2.1109,2.1109,2.1109,2.1109,2.1109,2.1109,2.1109,2.1109,2.1109,2.1109,2.1109,2.1109,2.1109,2.1109,2.1109,2.1109,2.1109,2.1109,2.1109,2.1109,2.1109,2.1109,2.1109,2.1109,2.1109,2.0975,2.0615,2.0374,2.0094,1.9733,1.9499,1.9424,1.9424,1.9424,1.9424,1.9424,1.9424,1.9424,1.9424,1.9424,1.9424,1.9424,1.9424,1.9424,1.9424,1.9424,1.9424,1.9424,1.9424,1.9424,1.9424,1.9424,1.9424,1.9424,1.9424,1.9424,1.9424,1.9424,1.9424,1.9424,1.9424,1.9424,1.9424,2.2928,2.2928,2.2928,2.2928,2.2928,2.2928,2.2928,2.2928,2.2928,2.2928,2.2928,2.2928,2.2928,2.2928,2.2928,2.2928,2.2928,2.2928,2.2928,2.2928,2.2928,2.2928,2.2928,2.2585,2.1997,2.1984,2.1697,2.1109,2.1109,2.1109,2.1109,2.1109,2.1109,2.1109,2.1109,2.1109,2.1109,2.1109,2.1109,2.1109,2.1109,2.1109,2.1109,2.1109,2.1109,2.1109,2.1109,2.1109,2.1109,2.1109,2.1109,2.1109,2.1109,2.1109,2.1109,2.1109,2.1109,2.1109,2.1109,2.1109,2.1109,2.1109,2.1109,2.1109,2.1109,2.1109,2.1109,2.1109,2.1109,2.1109,2.1109,2.1109,2.1109,2.1109,2.1109,2.1109,2.1109,2.1109,2.0895,2.0334,2.0247,2.0013,1.9452,1.9437,1.9424,1.9424,1.9424,1.9424,1.9424,1.9424,1.9424,1.9424,1.9424,1.9424,1.9424,1.9424,1.9424,1.9424,1.9424,1.9424,1.9424,1.9424,1.9424,1.9424,1.9424,1.9424,1.9424,1.9424,1.9424,1.9424,1.9424,1.9424,1.9424,1.9424,1.9424,1.9424,2.2928,2.2928,2.2928,2.2928,2.2928,2.2928,2.2928,2.2928,2.2928,2.2928,2.2928,2.2928,2.2928,2.2928,2.2928,2.2928,2.2928,2.2928,2.2928,2.2928,2.2928,2.2928,2.2928,2.2672,2.2265,2.2078,2.179,2.1383,2.1196,2.1109,2.1109,2.1109,2.1109,2.1109,2.1109,2.1109,2.1109,2.1109,2.1109,2.1109,2.1109,2.1109,2.1109,2.1109,2.1109,2.1109,2.1109,2.1109,2.1109,2.1109,2.1109,2.1109,2.1109,2.1109,2.1109,2.1109,2.1109,2.1109,2.1109,2.1109,2.1109,2.1109,2.1109,2.1109,2.1109,2.1109,2.1109,2.1109,2.1109,2.1109,2.1109,2.1109,2.1109,2.1109,2.1109,2.1109,2.1109,2.1109,2.0889,2.024,2.0173,2.0007,1.9426,1.9424,1.9424,1.9424,1.9424,1.9424,1.9424,1.9424,1.9424,1.9424,1.9424,1.9424,1.9424,1.9424,1.9424,1.9424,1.9424,1.9424,1.9424,1.9424,1.9424,1.9424,1.9424,1.9424,1.9424,1.9424,1.9424,1.9424,1.9424,1.9424,1.9424,1.9424,1.9424,1.9424,2.2928,2.2928,2.2928,2.2928,2.2928,2.2928,2.2928,2.2928,2.2928,2.2928,2.2928,2.2928,2.2928,2.2928,2.2928,2.2928,2.2928,2.2928,2.2928,2.2928,2.2928,2.2928,2.2928,2.2719,2.2425,2.2131,2.1844,2.1614,2.1256,2.1109,2.1109,2.1109,2.1109,2.1109,2.1109,2.1109,2.1109,2.1109,2.1109,2.1109,2.1109,2.1109,2.1109,2.1109,2.1109,2.1109,2.1109,2.1109,2.1109,2.1109,2.1109,2.1109,2.1109,2.1109,2.1109,2.1109,2.1109,2.1109,2.1109,2.1109,2.1109,2.1109,2.1109,2.1109,2.1109,2.1109,2.1109,2.1109,2.1109,2.1109,2.1109,2.1109,2.1109,2.1109,2.1109,2.1109,2.1109,2.1109,2.0889,2.024,2.0173,2.0007,1.9426,1.9424,1.9424,1.9424,1.9424,1.9424,1.9424,1.9424,1.9424,1.9424,1.9424,1.9424,1.9424,1.9424,1.9424,1.9424,1.9424,1.9424,1.9424,1.9424,1.9424,1.9424,1.9424,1.9424,1.9424,1.9424,1.9424,1.9424,1.9424,1.9424,1.9424,1.9424,1.9424,1.9424,2.2928,2.2928,2.2928,2.2928,2.2928,2.2928,2.2928,2.2928,2.2928,2.2928,2.2928,2.2928,2.2928,2.2928,2.2928,2.2928,2.2928,2.2928,2.2928,2.2928,2.2928,2.2928,2.2928,2.2726,2.2432,2.2138,2.185,2.1621,2.1256,2.1109,2.1109,2.1109,2.1109,2.1109,2.1109,2.1109,2.1109,2.1109,2.1109,2.1109,2.1109,2.1109,2.1109,2.1109,2.1109,2.1109,2.1109,2.1109,2.1109,2.1109,2.1109,2.1109,2.1109,2.1109,2.1109,2.1109,2.1109,2.1109,2.1109,2.1109,2.1109,2.1109,2.1109,2.1109,2.1109,2.1109,2.1109,2.1109,2.1109,2.1109,2.1109,2.1109,2.1109,2.1109,2.1109,2.1109,2.1109,2.1109,2.0895,2.0307,2.0173,2.0007,1.9426,1.9424,1.9424,1.9424,1.9424,1.9424,1.9424,1.9424,1.9424,1.9424,1.9424,1.9424,1.9424,1.9424,1.9424,1.9424,1.9424,1.9424,1.9424,1.9424,1.9424,1.9424,1.9424,1.9424,1.9424,1.9424,1.9424,1.9424,1.9424,1.9424,1.9424,1.9424,1.9424,1.9424,2.2928,2.2928,2.2928,2.2928,2.2928,2.2928,2.2928,2.2928,2.2928,2.2928,2.2928,2.2928,2.2928,2.2928,2.2928,2.2928,2.2928,2.2928,2.2928,2.2928,2.2928,2.2928,2.2928,2.2819,2.2732,2.2438,2.2151,2.1857,2.1563,2.1309,2.1109,2.1109,2.1109,2.1109,2.1109,2.1109,2.1109,2.1109,2.1109,2.1109,2.1109,2.1109,2.1109,2.1109,2.1109,2.1109,2.1109,2.1109,2.1109,2.1109,2.1109,2.1109,2.1109,2.1109,2.1109,2.1109,2.1109,2.1109,2.1109,2.1109,2.1109,2.1109,2.1109,2.1109,2.1109,2.1109,2.1109,2.1109,2.1109,2.1109,2.1109,2.1109,2.1109,2.1109,2.1109,2.1109,2.1109,2.1109,2.0969,2.0588,2.0361,2.0087,1.9706,1.9486,1.9424,1.9424,1.9424,1.9424,1.9424,1.9424,1.9424,1.9424,1.9424,1.9424,1.9424,1.9424,1.9424,1.9424,1.9424,1.9424,1.9424,1.9424,1.9424,1.9424,1.9424,1.9424,1.9424,1.9424,1.9424,1.9424,1.9424,1.9424,1.9424,1.9424,1.9424,1.9424,2.2928,2.2928,2.2928,2.2928,2.2928,2.2928,2.2928,2.2928,2.2928,2.2928,2.2928,2.2928,2.2928,2.2928,2.2928,2.2928,2.2928,2.2928,2.2928,2.2928,2.2928,2.2928,2.2928,2.2928,2.2928,2.2572,2.2331,2.2158,2.175,2.1527,2.1283,2.1162,2.1109,2.1109,2.1109,2.1109,2.1109,2.1109,2.1109,2.1109,2.1109,2.1109,2.1109,2.1109,2.1109,2.1109,2.1109,2.1109,2.1109,2.1109,2.1109,2.1109,2.1109,2.1109,2.1109,2.1109,2.1109,2.1109,2.1109,2.1109,2.1109,2.1109,2.1109,2.1109,2.1109,2.1109,2.1109,2.1109,2.1109,2.1109,2.1109,2.1109,2.1109,2.1109,2.1109,2.1109,2.1109,2.1109,2.1002,2.0715,2.0414,2.0114,1.9826,1.9539,1.9424,1.9424,1.9424,1.9424,1.9424,1.9424,1.9424,1.9424,1.9424,1.9424,1.9424,1.9424,1.9424,1.9424,1.9424,1.9424,1.9424,1.9424,1.9424,1.9424,1.9424,1.9424,1.9424,1.9424,1.9424,1.9424,1.9424,1.9424,1.9424,1.9424,1.9424,1.9424,2.2928,2.2928,2.2928,2.2928,2.2928,2.2928,2.2928,2.2928,2.2928,2.2928,2.2928,2.2928,2.2928,2.2928,2.2928,2.2928,2.2928,2.2928,2.2928,2.2928,2.2928,2.2928,2.2928,2.2928,2.2928,2.2599,2.2445,2.2418,2.1891,2.1681,2.1648,2.1316,2.1189,2.1189,2.1162,2.1149,2.1149,2.1122,2.1109,2.1109,2.1109,2.1109,2.1109,2.1109,2.1109,2.1109,2.1109,2.1109,2.1109,2.1109,2.1109,2.1109,2.1109,2.1109,2.1109,2.1109,2.1109,2.1109,2.1109,2.1109,2.1109,2.1109,2.1109,2.1109,2.1109,2.1109,2.1109,2.1109,2.1109,2.1109,2.1109,2.1109,2.1109,2.1109,2.1109,2.1109,2.1109,2.1109,2.1009,2.0742,2.0454,2.016,1.9867,1.9553,1.9424,1.9424,1.9424,1.9424,1.9424,1.9424,1.9424,1.9424,1.9424,1.9424,1.9424,1.9424,1.9424,1.9424,1.9424,1.9424,1.9424,1.9424,1.9424,1.9424,1.9424,1.9424,1.9424,1.9424,1.9424,1.9424,1.9424,1.9424,1.9424,1.9424,1.9424,1.9424,2.2928,2.2928,2.2928,2.2928,2.2928,2.2928,2.2928,2.2928,2.2928,2.2928,2.2928,2.2928,2.2928,2.2928,2.2928,2.2928,2.2928,2.2928,2.2928,2.2928,2.2928,2.2928,2.2928,2.2928,2.2928,2.2799,2.2652,2.2418,2.2291,2.2118,2.1891,2.1824,2.1797,2.1784,2.1557,2.1521,2.1443,2.1209,2.1109,2.1109,2.1109,2.1109,2.1109,2.1109,2.1109,2.1109,2.1109,2.1109,2.1109,2.1109,2.1109,2.1109,2.1109,2.1109,2.1109,2.1109,2.1109,2.1109,2.1109,2.1109,2.1109,2.1109,2.1109,2.1109,2.1109,2.1109,2.1109,2.1109,2.1109,2.1109,2.1109,2.1109,2.1109,2.1109,2.1109,2.1109,2.1109,2.1109,2.1089,2.1022,2.0755,2.0461,2.0167,1.9673,1.9424,1.9424,1.9424,1.9424,1.9424,1.9424,1.9424,1.9424,1.9424,1.9424,1.9424,1.9424,1.9424,1.9424,1.9424,1.9424,1.9424,1.9424,1.9424,1.9424,1.9424,1.9424,1.9424,1.9424,1.9424,1.9424,1.9424,1.9424,1.9424,1.9424,1.9424,1.9424,2.2928,2.2928,2.2928,2.2928,2.2928,2.2928,2.2928,2.2928,2.2928,2.2928,2.2928,2.2928,2.2928,2.2928,2.2928,2.2928,2.2928,2.2928,2.2928,2.2928,2.2928,2.2928,2.2928,2.2928,2.2928,2.2928,2.2786,2.2632,2.2492,2.2338,2.2191,2.2051,2.1984,2.1977,2.1824,2.1757,2.1737,2.1443,2.1323,2.1309,2.1162,2.1109,2.1109,2.1109,2.1109,2.1109,2.1109,2.1109,2.1109,2.1109,2.1109,2.1109,2.1109,2.1109,2.1109,2.1109,2.1109,2.1109,2.1109,2.1109,2.1109,2.1109,2.1109,2.1109,2.1109,2.1109,2.1109,2.1109,2.1109,2.1109,2.1109,2.1109,2.1109,2.1109,2.1109,2.1109,2.1109,2.1109,2.1109,2.1109,2.0855,2.0501,2.0067,1.9626,1.9424,1.9424,1.9424,1.9424,1.9424,1.9424,1.9424,1.9424,1.9424,1.9424,1.9424,1.9424,1.9424,1.9424,1.9424,1.9424,1.9424,1.9424,1.9424,1.9424,1.9424,1.9424,1.9424,1.9424,1.9424,1.9424,1.9424,1.9424,1.9424,1.9424,1.9424,1.9424,2.2928,2.2928,2.2928,2.2928,2.2928,2.2928,2.2928,2.2928,2.2928,2.2928,2.2928,2.2928,2.2928,2.2928,2.2928,2.2928,2.2928,2.2928,2.2928,2.2928,2.2928,2.2928,2.2928,2.2928,2.2928,2.2928,2.2928,2.2928,2.2612,2.2498,2.2492,2.2245,2.2138,2.2131,2.2084,2.2064,2.2038,2.175,2.1661,2.1594,2.1283,2.1156,2.1109,2.1109,2.1109,2.1109,2.1109,2.1109,2.1109,2.1109,2.1109,2.1109,2.1109,2.1109,2.1109,2.1109,2.1109,2.1109,2.1109,2.1109,2.1109,2.1109,2.1109,2.1109,2.1109,2.1109,2.1109,2.1109,2.1109,2.1109,2.1109,2.1109,2.1109,2.1109,2.1109,2.1109,2.1109,2.1109,2.1109,2.1109,2.0808,2.0408,1.992,1.9566,1.9424,1.9424,1.9424,1.9424,1.9424,1.9424,1.9424,1.9424,1.9424,1.9424,1.9424,1.9424,1.9424,1.9424,1.9424,1.9424,1.9424,1.9424,1.9424,1.9424,1.9424,1.9424,1.9424,1.9424,1.9424,1.9424,1.9424,1.9424,1.9424,1.9424,1.9424,1.9424,2.2928,2.2928,2.2928,2.2928,2.2928,2.2928,2.2928,2.2928,2.2928,2.2928,2.2928,2.2928,2.2928,2.2928,2.2928,2.2928,2.2928,2.2928,2.2928,2.2928,2.2928,2.2928,2.2928,2.2928,2.2928,2.2928,2.2928,2.2928,2.2819,2.2806,2.2806,2.2834,2.2814,2.28,2.2478,2.2358,2.2338,2.2051,2.1784,2.1614,2.1574,2.1336,2.1109,2.1109,2.1109,2.1109,2.1109,2.1109,2.1109,2.1109,2.1109,2.1109,2.1109,2.1109,2.1109,2.1109,2.1109,2.1109,2.1109,2.1109,2.1109,2.1109,2.1109,2.1109,2.1109,2.1109,2.1109,2.1109,2.1109,2.1109,2.1109,2.1109,2.1109,2.1109,2.1109,2.1109,2.1109,2.1109,2.1109,2.1109,2.0628,2.0261,2.012,1.9686,1.9424,1.9424,1.9424,1.9424,1.9424,1.9424,1.9424,1.9424,1.9424,1.9424,1.9424,1.9424,1.9424,1.9424,1.9424,1.9424,1.9424,1.9424,1.9424,1.9424,1.9424,1.9424,1.9424,1.9424,1.9424,1.9424,1.9424,1.9424,1.9424,1.9424,1.9424,1.9424,2.2928,2.2928,2.2928,2.2928,2.2928,2.2928,2.2928,2.2928,2.2928,2.2928,2.2928,2.2928,2.2928,2.2928,2.2928,2.2928,2.2928,2.2928,2.2928,2.2928,2.2928,2.2928,2.2928,2.2928,2.2928,2.2928,2.2928,2.2928,2.2928,2.2928,2.2928,2.2928,2.2928,2.2921,2.2726,2.2665,2.2645,2.2352,2.2158,2.2004,2.1748,2.1541,2.1336,2.1169,2.1109,2.1109,2.1109,2.1109,2.1109,2.1109,2.1109,2.1109,2.1109,2.1109,2.1109,2.1109,2.1109,2.1109,2.1109,2.1109,2.1109,2.1109,2.1109,2.1109,2.1109,2.1109,2.1109,2.1109,2.1109,2.1109,2.1109,2.1109,2.1109,2.1109,2.1109,2.1109,2.1109,2.1109,2.1109,2.1109,2.0735,2.0414,2.0247,1.9853,1.9539,1.9437,1.9424,1.9424,1.9424,1.9424,1.9424,1.9424,1.9424,1.9424,1.9424,1.9424,1.9424,1.9424,1.9424,1.9424,1.9424,1.9424,1.9424,1.9424,1.9424,1.9424,1.9424,1.9424,1.9424,1.9424,1.9424,1.9424,1.9424,1.9424,1.9424,1.9424]}]]